[[{"header":{"parameterUnit":"m.s-1","parameterCategory":1,"la1":30.6,"la2":28.766,"lo1":-90.7593,"lo2":-88.6598,"dy":0.0162,"dx":0.0183,"nx":116,"ny":114,"refTime":"2023-09-21T00:00:00:Z","depth":0,"parameterNumber":2,"parameterNumberName":"U-component_of_WINDS"},"data":[0.0,0.0,0.0,0.0,0.0,0.0,0.0,0.0,0.0,0.0,0.0,0.0,0.0,0.0,0.0,0.0,0.0,0.0,0.0,0.0,0.0,0.0,0.0,0.0,0.0,0.0,0.0,0.0,0.0,0.0,0.0,0.0,0.0,0.0,0.0,0.0,0.0,0.0,0.0,0.0,0.0,0.0,0.0,0.0,0.0,0.0,0.0,0.0,0.0,0.0,0.0,0.0,0.0,0.0,0.0,0.0,0.0,0.0,0.0,0.0,0.0,0.0,0.0,0.0,0.0,0.0,0.0,0.0,0.0,0.0,0.0,0.0,0.0,0.0,0.0,0.0,0.0,0.0,0.0,0.0,0.0,0.0,0.0,0.0,0.0,0.0,0.0,0.0,0.0,0.0,0.0,0.0,0.0,0.0,0.0,0.0,0.0,0.0,0.0,0.0,0.0,0.0,0.0,0.0,0.0,0.0,0.0,0.0,0.0,0.0,0.0,0.0,0.0,0.0,0.0,0.0,0.0,0.0,0.0,0.0,0.0,0.0,0.0,0.0,0.0,0.0,0.0,0.0,0.0,0.0,0.0,0.0,0.0,0.0,0.0,0.0,0.0,0.0,0.0,0.0,0.0,0.0,0.0,0.0,0.0,0.0,0.0,0.0,0.0,0.0,0.0,0.0,0.0,0.0,0.0,0.0,0.0,0.0,0.0,0.0,0.0,0.0,0.0,0.0,0.0,0.0,0.0,0.0,0.0,0.0,0.0,0.0,0.0,0.0,0.0,0.0,0.0,0.0,0.0,0.0,0.0,0.0,0.0,0.0,0.0,0.0,0.0,0.0,0.0,0.0,0.0,0.0,0.0,0.0,0.0,0.0,0.0,0.0,0.0,0.0,0.0,0.0,0.0,0.0,0.0,0.0,0.0,0.0,0.0,0.0,0.0,0.0,0.0,0.0,0.0,0.0,0.0,0.0,0.0,0.0,0.0,0.0,0.0,0.0,0.0,0.0,0.0,0.0,0.0,0.0,0.0,0.0,0.0,0.0,0.0,0.0,0.0,0.0,0.0,0.0,0.0,0.0,0.0,0.0,0.0,0.0,0.0,0.0,0.0,0.0,0.0,0.0,0.0,0.0,0.0,0.0,0.0,0.0,0.0,0.0,0.0,0.0,0.0,0.0,0.0,0.0,0.0,0.0,0.0,0.0,0.0,0.0,0.0,0.0,0.0,0.0,0.0,0.0,0.0,0.0,0.0,0.0,0.0,0.0,0.0,0.0,0.0,0.0,0.0,0.0,0.0,0.0,0.0,0.0,0.0,0.0,0.0,0.0,0.0,0.0,0.0,0.0,0.0,0.0,0.0,0.0,0.0,0.0,0.0,0.0,0.0,0.0,0.0,0.0,0.0,0.0,0.0,0.0,0.0,0.0,0.0,0.0,0.0,0.0,0.0,0.0,0.0,0.0,0.0,0.0,0.0,0.0,0.0,0.0,0.0,0.0,0.0,0.0,0.0,0.0,0.0,0.0,0.0,0.0,0.0,0.0,0.0,0.0,0.0,0.0,0.0,0.0,0.0,0.0,0.0,0.0,0.0,0.0,0.0,0.0,0.0,0.0,0.0,0.0,0.0,0.0,0.0,0.0,0.0,0.0,0.0,0.0,0.0,0.0,0.0,0.0,0.0,0.0,0.0,0.0,0.0,0.0,0.0,0.0,0.0,0.0,0.0,0.0,0.0,0.0,0.0,0.0,0.0,0.0,0.0,0.0,0.0,0.0,0.0,0.0,0.0,0.0,0.0,0.0,0.0,0.0,0.0,0.0,0.0,0.0,0.0,0.0,0.0,0.0,0.0,0.0,0.0,0.0,0.0,0.0,0.0,0.0,0.0,0.0,0.0,0.0,0.0,0.0,0.0,0.0,0.0,0.0,0.0,0.0,0.0,0.0,0.0,0.0,0.0,0.0,0.0,0.0,0.0,0.0,0.0,0.0,0.0,0.0,0.0,0.0,0.0,0.0,0.0,0.0,0.0,0.0,0.0,0.0,0.0,0.0,0.0,0.0,0.0,0.0,0.0,0.0,0.0,0.0,0.0,0.0,0.0,0.0,0.0,0.0,0.0,0.0,0.0,0.0,0.0,0.0,0.0,0.0,0.0,0.0,0.0,0.0,0.0,0.0,0.0,0.0,0.0,0.0,0.0,0.0,0.0,0.0,0.0,0.0,0.0,0.0,0.0,0.0,0.0,0.0,0.0,0.0,0.0,0.0,0.0,0.0,0.0,0.0,0.0,0.0,0.0,0.0,0.0,0.0,0.0,0.0,0.0,0.0,0.0,0.0,0.0,0.0,0.0,0.0,0.0,0.0,0.0,0.0,0.0,0.0,0.0,0.0,0.0,0.0,0.0,0.0,0.0,0.0,0.0,0.0,0.0,0.0,0.0,0.0,0.0,0.0,0.0,0.0,0.0,0.0,0.0,0.0,0.0,0.0,0.0,0.0,0.0,0.0,0.0,0.0,0.0,0.0,0.0,0.0,0.0,0.0,0.0,0.0,0.0,0.0,0.0,0.0,0.0,0.0,0.0,0.0,0.0,0.0,0.0,0.0,0.0,0.0,0.0,0.0,0.0,0.0,0.0,0.0,0.0,0.0,0.0,0.0,0.0,0.0,0.0,0.0,0.0,0.0,0.0,0.0,0.0,0.0,0.0,0.0,0.0,0.0,0.0,0.0,0.0,0.0,0.0,0.0,0.0,0.0,0.0,0.0,0.0,0.0,0.0,0.0,0.0,0.0,0.0,0.0,0.0,0.0,0.0,0.0,0.0,0.0,0.0,0.0,0.0,0.0,0.0,0.0,0.0,0.0,0.0,0.0,0.0,0.0,0.0,0.0,0.0,0.0,0.0,0.0,0.0,0.0,0.0,0.0,0.0,0.0,0.0,0.0,0.0,0.0,0.0,0.0,0.0,0.0,0.0,0.0,0.0,0.0,0.0,0.0,0.0,0.0,0.0,0.0,0.0,0.0,0.0,0.0,0.0,0.0,0.0,0.0,0.0,0.0,0.0,0.0,0.0,0.0,0.0,0.0,0.0,0.0,0.0,0.0,0.0,0.0,0.0,0.0,0.0,0.0,0.0,0.0,0.0,0.0,0.0,0.0,0.0,0.0,0.0,0.0,0.0,0.0,0.0,0.0,0.0,0.0,0.0,0.0,0.0,0.0,0.0,0.0,0.0,0.0,0.0,0.0,0.0,0.0,0.0,0.0,0.0,0.0,0.0,0.0,0.0,0.0,0.0,0.0,0.0,0.0,0.0,0.0,0.0,0.0,0.0,0.0,0.0,0.0,0.0,0.0,0.0,0.0,0.0,0.0,0.0,0.0,0.0,0.0,0.0,0.0,0.0,0.0,0.0,0.0,0.0,0.0,0.0,0.0,0.0,0.0,0.0,0.0,0.0,0.0,0.0,0.0,0.0,0.0,0.0,0.0,0.0,0.0,0.0,0.0,0.0,0.0,0.0,0.0,0.0,0.0,0.0,0.0,0.0,0.0,0.0,0.0,0.0,0.0,0.0,0.0,0.0,0.0,0.0,0.0,0.0,0.0,0.0,0.0,0.0,0.0,0.0,0.0,0.0,0.0,0.0,0.0,0.0,0.0,0.0,0.0,0.0,0.0,0.0,0.0,0.0,0.0,0.0,0.0,0.0,0.0,0.0,0.0,0.0,0.0,0.0,0.0,0.0,0.0,0.0,0.0,0.0,0.0,0.0,0.0,0.0,0.0,0.0,0.0,0.0,0.0,0.0,0.0,0.0,0.0,0.0,0.0,0.0,0.0,0.0,0.0,0.0,0.0,0.0,0.0,0.0,0.0,0.0,0.0,0.0,0.0,0.0,0.0,0.0,0.0,0.0,0.0,0.0,0.0,0.0,0.0,0.0,0.0,0.0,0.0,0.0,0.0,0.0,0.0,0.0,0.0,0.0,0.0,0.0,0.0,0.0,0.0,0.0,0.0,0.0,0.0,0.0,0.0,0.0,0.0,0.0,0.0,0.0,0.0,0.0,0.0,0.0,0.0,0.0,0.0,0.0,0.0,0.0,0.0,0.0,0.0,0.0,0.0,0.0,0.0,0.0,0.0,0.0,0.0,0.0,0.0,0.0,0.0,0.0,0.0,0.0,0.0,0.0,0.0,0.0,0.0,0.0,0.0,0.0,0.0,0.0,0.0,0.0,0.0,0.0,0.0,0.0,0.0,0.0,0.0,0.0,0.0,0.0,0.0,0.0,0.0,0.0,0.0,0.0,0.0,0.0,0.0,0.0,0.0,0.0,0.0,0.0,0.0,0.0,0.0,0.0,0.0,0.0,0.0,0.0,0.0,0.0,0.0,0.0,0.0,0.0,0.0,0.0,0.0,0.0,0.0,0.0,0.0,0.0,0.0,0.0,0.0,0.0,0.0,0.0,0.0,0.0,0.0,0.0,0.0,0.0,0.0,0.0,0.0,0.0,0.0,0.0,0.0,0.0,0.0,0.0,0.0,0.0,0.0,0.0,0.0,0.0,0.0,0.0,0.0,0.0,0.0,0.0,0.0,0.0,0.0,0.0,0.0,0.0,0.0,0.0,0.0,0.0,0.0,0.0,0.0,0.0,0.0,0.0,0.0,0.0,0.0,0.0,0.0,0.0,0.0,0.0,0.0,0.0,0.0,0.0,0.0,0.0,0.0,0.0,0.0,0.0,0.0,0.0,0.0,0.0,0.0,0.0,0.0,0.0,0.0,0.0,0.0,0.0,0.0,0.0,0.0,0.0,0.0,0.0,0.0,0.0,0.0,0.0,0.0,0.0,0.0,0.0,0.0,0.0,0.0,0.0,0.0,0.0,0.0,0.0,0.0,0.0,0.0,0.0,0.0,0.0,0.0,0.0,0.0,0.0,0.0,0.0,0.0,0.0,0.0,0.0,0.0,0.0,0.0,0.0,0.0,0.0,0.0,0.0,0.0,0.0,0.0,0.0,0.0,0.0,0.0,0.0,0.0,0.0,0.0,0.0,0.0,0.0,0.0,0.0,0.0,0.0,0.0,0.0,0.0,0.0,0.0,0.0,0.0,0.0,0.0,0.0,0.0,0.0,0.0,0.0,0.0,0.0,0.0,0.0,0.0,0.0,0.0,0.0,0.0,0.0,0.0,0.0,0.0,0.0,0.0,0.0,0.0,0.0,0.0,0.0,0.0,0.0,0.0,0.0,0.0,0.0,0.0,0.0,0.0,0.0,0.0,0.0,0.0,0.0,0.0,0.0,0.0,0.0,0.0,0.0,0.0,0.0,0.0,0.0,0.0,0.0,0.0,0.0,0.0,0.0,0.0,0.0,0.0,0.0,0.0,0.0,0.0,0.0,0.0,0.0,0.0,0.0,0.0,0.0,0.0,0.0,0.0,0.0,0.0,0.0,0.0,0.0,0.0,0.0,0.0,0.0,0.0,0.0,0.0,0.0,0.0,0.0,0.0,0.0,0.0,0.0,0.0,0.0,0.0,0.0,0.0,0.0,0.0,0.0,0.0,0.0,0.0,0.0,0.0,0.0,0.0,0.0,0.0,0.0,0.0,0.0,0.0,0.0,0.0,0.0,0.0,0.0,0.0,0.0,0.0,0.0,0.0,0.0,0.0,0.0,0.0,0.0,0.0,0.0,0.0,0.0,0.0,0.0,0.0,0.0,0.0,0.0,0.0,0.0,0.0,0.0,0.0,0.0,0.0,0.0,0.0,0.0,0.0,0.0,0.0,0.0,0.0,0.0,0.0,0.0,0.0,0.0,0.0,0.0,0.0,0.0,0.0,0.0,0.0,0.0,0.0,0.0,0.0,0.0,0.0,0.0,0.0,0.0,0.0,0.0,0.0,0.0,0.0,0.0,0.0,0.0,0.0,0.0,0.0,0.0,0.0,0.0,0.0,0.0,0.0,0.0,0.0,0.0,0.0,0.0,0.0,0.0,0.0,0.0,0.0,0.0,0.0,0.0,0.0,0.0,0.0,0.0,0.0,0.0,0.0,0.0,0.0,0.0,0.0,0.0,0.0,0.0,0.0,0.0,0.0,0.0,0.0,0.0,0.0,0.0,0.0,0.0,0.0,0.0,0.0,0.0,0.0,1.4613,1.5373,0.0,0.0,0.0,0.0,0.0,0.0,0.0,0.0,0.0,0.0,0.0,0.0,0.0,0.0,0.0,0.0,0.0,0.0,0.0,0.0,0.0,0.0,0.0,0.0,0.0,0.0,0.0,0.0,0.0,0.0,0.0,0.0,0.0,0.0,0.0,0.0,0.0,0.0,-0.197,-0.1627,-0.1119,-0.0587,0.0056,0.0765,0.0,0.0,0.0,0.0,0.0,0.0,0.0,0.0,0.0,0.0,0.0,0.0,0.0,0.0,0.0,0.0,0.0,0.0,0.0,0.0,0.0,0.0,0.0,0.0,0.0,0.0,0.0,0.0,0.0,0.0,0.0,0.0,0.0,0.0,0.0,0.0,0.0,0.0,0.0,0.0,0.0,0.0,0.0,0.0,0.0,0.0,0.0,0.0,0.0,0.0,0.0,0.0,0.0,0.0,0.0,0.0,0.0,0.0,0.0,0.0,0.0,0.0,0.0,0.0,0.0,0.0,0.0,0.0,0.0,0.0,1.5695,1.5587,0.0,0.0,0.0,0.0,0.0,0.0,0.0,0.0,0.0,0.0,0.0,0.0,0.0,0.0,0.0,0.0,0.0,0.0,0.0,0.0,0.0,0.0,0.0,-0.5137,-0.5001,-0.4746,-0.465,-0.453,0.0,0.0,0.0,0.0,0.0,0.0,0.0,-0.3314,-0.2994,-0.2177,-0.2227,-0.2043,-0.1636,-0.1065,-0.0268,0.0667,0.0833,0.0,0.0,0.0,0.0,0.0,0.0,0.0,0.0,0.0,0.0,0.0,0.0,0.0,0.0,0.0,0.0,0.0,0.0,0.0,0.0,0.0,0.0,0.0,0.0,0.0,0.0,0.0,0.0,0.0,0.0,0.0,0.0,0.0,0.0,0.0,0.0,0.0,0.0,0.0,0.0,0.0,0.0,0.0,0.0,0.0,0.0,0.0,0.0,0.0,0.0,0.0,0.0,0.0,0.0,0.0,0.0,0.0,0.0,0.0,0.0,0.0,0.0,0.0,1.7743,1.8233,1.8622,1.901,1.8958,1.8495,1.7106,1.6127,1.5558,1.5984,0.0,0.0,0.0,0.0,0.0,0.0,0.0,0.0,0.0,0.0,0.0,0.0,0.0,0.0,0.0,0.0,0.0,0.0,0.0,0.0,0.0,-0.5525,-0.5437,-0.5222,-0.4834,-0.4588,-0.4562,0.0,0.0,0.0,0.0,0.0,-0.4134,-0.4422,-0.4014,-0.2868,-0.2309,-0.1984,-0.1849,-0.1367,-0.0692,0.0124,0.0659,0.0951,0.1092,0.0,0.0,0.0,0.0,0.0,0.0,0.0,0.0,0.0,0.0,0.0,0.0,0.0,0.0,0.0,0.0,0.0,0.0,0.0,0.0,0.0,0.0,0.0,0.0,0.0,0.0,0.0,0.0,0.0,0.0,0.0,0.0,0.0,0.0,0.0,0.0,0.0,0.0,0.0,0.0,0.0,1.3057,1.293,0.0,0.0,0.0,0.0,0.0,0.0,0.0,0.0,0.0,0.0,0.0,0.0,0.0,1.7371,1.8235,1.8149,1.8192,1.8361,1.7945,1.7788,1.7841,1.7904,1.8114,1.8411,1.8187,0.0,1.6814,1.6503,0.0,0.0,0.0,0.0,0.0,0.0,0.0,0.0,0.0,0.0,0.0,0.0,0.0,0.0,0.0,0.0,0.0,0.0,0.0,0.0,0.0,-0.6175,-0.61,-0.6093,-0.593,-0.5629,-0.5136,-0.5288,0.0,0.0,0.0,-0.5071,-0.4595,-0.447,-0.3895,-0.2834,-0.2532,-0.2418,-0.245,-0.1901,-0.1478,-0.1138,-0.0117,0.0549,0.095,0.1819,0.0,0.0,0.0,0.0,0.0,0.0,0.0,0.0,0.0,0.0,0.0,0.0,0.0,0.0,0.0,0.0,0.0,0.0,0.0,0.0,0.0,0.0,0.0,0.0,0.0,0.0,0.0,0.0,0.0,0.0,0.0,0.0,0.0,0.0,0.0,0.0,0.0,0.0,0.0,1.3449,1.3585,1.2835,1.3571,1.3928,0.0,0.0,0.0,0.0,0.0,0.0,0.0,0.0,0.0,1.5713,1.5991,1.6327,1.6773,1.7623,1.8216,1.8546,1.9003,1.9372,1.9611,1.9611,1.9728,1.9896,1.9683,1.9093,1.8224,1.7451,1.6747,1.6093,0.0,0.0,0.0,0.0,1.5421,1.5787,0.0,0.0,0.0,0.0,0.0,0.0,0.0,0.0,0.0,0.0,0.0,0.0,-0.6863,-0.7017,-0.7103,-0.7125,-0.7014,-0.6655,-0.6009,-0.595,-0.5791,-0.5439,-0.5494,-0.5334,-0.4943,-0.4379,-0.3814,-0.3241,-0.3029,-0.2987,-0.3101,-0.264,-0.2261,-0.1915,-0.1096,-0.0228,0.0699,0.1466,0.1998,0.2386,0.0,0.0,0.0,0.0,0.0,0.0,0.0,0.0,0.0,0.0,0.0,0.0,0.0,0.0,0.0,0.0,0.0,0.0,0.0,0.0,0.0,0.0,0.0,0.0,0.0,0.0,0.0,0.0,0.0,0.0,0.0,0.0,0.0,0.0,0.0,0.0,0.0,1.3361,1.3587,1.2574,1.3456,1.3763,0.0,0.0,0.0,0.0,0.0,0.0,1.3902,1.4303,1.4798,1.5436,1.58,1.6107,1.6321,1.7734,1.8612,1.8973,1.9926,2.0566,2.0892,2.0892,2.0892,2.0873,2.0588,2.009,1.9391,1.8338,1.7373,1.6549,1.6312,1.6095,1.59,1.59,1.6387,1.7007,0.0,0.0,0.0,0.0,0.0,0.0,0.0,0.0,0.0,0.0,0.0,-0.7223,-0.7182,-0.8081,-0.8585,-0.8338,-0.7678,-0.7253,-0.7216,-0.6333,-0.5803,-0.5777,-0.6021,-0.5884,-0.5285,-0.4503,-0.4292,-0.4694,-0.3929,-0.3592,-0.3656,-0.3623,-0.2865,-0.1556,-0.2197,-0.1566,0.0031,0.1278,0.1816,0.1921,0.2972,0.0,0.0,0.0,0.0,0.0,0.0,0.0,0.0,0.0,0.0,0.0,0.0,0.0,0.0,0.0,0.0,0.0,0.0,0.0,0.0,0.0,0.0,0.0,0.0,0.0,0.0,0.0,0.0,0.0,0.0,0.0,0.0,0.0,0.0,0.0,0.0,0.0,0.0,1.1829,1.2757,0.0,0.0,0.0,0.0,1.4189,1.4578,1.4894,1.5108,1.5436,1.603,1.6947,1.7746,1.853,1.9358,1.9916,2.0176,2.0215,2.0258,2.0324,2.0343,2.0343,2.0343,2.0343,2.0324,2.0288,2.0159,1.8944,1.7913,1.7096,1.7464,1.7126,1.6457,1.6457,1.6722,1.7041,0.0,0.0,0.0,0.0,0.0,0.0,0.0,0.0,-0.6997,-0.6826,-0.7361,-0.7911,-0.8315,-0.9006,-0.9503,-0.9667,-0.9136,-0.8449,-0.7674,-0.6926,-0.6329,-0.595,-0.594,-0.5826,-0.5567,-0.4728,-0.4391,-0.4609,-0.3931,-0.3696,-0.3889,-0.3889,-0.364,-0.314,-0.2417,-0.1683,-0.0948,-0.0015,0.0939,0.1873,0.2643,0.3182,0.0,0.0,0.0,0.0,0.0,0.0,0.0,0.0,0.0,0.0,0.0,0.0,0.0,0.0,0.0,0.0,0.0,0.0,0.0,0.0,0.0,0.0,0.0,0.0,0.0,0.0,0.0,0.0,0.0,0.0,0.0,0.0,0.0,0.0,0.0,0.0,0.0,1.2791,1.3614,0.0,1.349,1.4008,1.4328,1.418,1.4505,1.4944,1.5487,1.6042,1.6621,1.7204,1.7726,1.8133,1.8442,1.9415,1.9909,1.993,2.0175,2.0289,2.028,1.9983,1.9848,1.9839,1.9625,1.952,1.9489,1.9073,1.8662,1.8304,1.8151,1.7902,1.7641,1.7427,1.8326,1.9493,0.0,0.0,0.0,0.0,0.0,0.0,0.0,0.0,-0.7227,-0.7029,-0.7861,-0.8626,-0.9016,-1.0024,-1.0693,-1.0735,-1.021,-0.9482,-0.8532,-0.7548,-0.681,-0.6355,-0.6033,-0.5891,-0.5931,-0.5325,-0.4975,-0.4908,-0.4422,-0.4172,-0.4169,-0.421,-0.4154,-0.3962,-0.3138,-0.2261,-0.1374,-0.109,0.0,0.1589,0.2156,0.2801,0.3447,0.0,0.0,0.0,0.0,0.0,0.0,0.0,0.0,0.0,0.0,0.0,0.0,0.0,0.0,0.0,0.0,0.0,0.0,0.0,0.0,0.0,0.0,0.0,0.0,0.0,0.0,0.0,0.0,0.0,0.0,0.0,0.0,0.0,0.0,1.2141,1.2846,1.3156,1.4051,1.4405,1.383,1.4377,1.4726,1.461,1.4921,1.5498,1.6349,1.6945,1.7352,1.7641,1.7946,1.8151,1.8151,1.8978,1.9407,1.9393,1.9612,1.9683,1.9675,1.9391,1.9303,1.9385,1.9131,1.9107,1.9196,1.9062,1.8972,1.8946,1.8963,1.8807,1.8541,1.8322,1.9181,2.0294,0.0,0.0,0.0,0.0,0.0,0.0,0.0,-0.76,-0.7497,-0.7414,-0.8579,-0.9362,-0.9254,-1.1111,-1.2118,-1.1469,-1.0777,-1.0196,-0.9783,-0.8123,-0.7102,-0.6979,-0.6364,-0.6159,-0.6435,-0.6301,-0.606,-0.571,-0.5444,-0.5043,-0.452,-0.464,-0.4394,-0.386,-0.4428,-0.3419,-0.1322,-0.185,-0.0904,0.0988,0.1561,0.2249,0.301,0.0,0.0,0.0,0.0,0.0,0.0,0.0,0.0,0.0,0.0,0.0,0.0,0.0,0.0,0.0,0.0,0.0,0.0,0.0,0.0,0.0,0.0,0.0,0.0,0.0,0.0,0.0,0.0,0.0,0.0,0.0,0.0,0.0,1.1159,1.1788,1.2364,1.2805,1.3939,1.4336,1.3456,1.4431,1.5251,1.5596,1.5914,1.6585,1.767,1.8084,1.8266,1.8266,1.8607,1.8781,1.8781,1.8781,1.8781,1.8781,1.8589,1.8504,1.8512,1.8587,1.875,1.8996,1.8964,1.9091,1.9352,1.8963,1.8812,1.8894,1.9878,1.9781,1.908,1.9071,1.9076,1.9144,0.0,0.0,0.0,0.0,0.0,0.0,0.0,-0.7904,-0.7921,-0.7652,-0.8783,-0.9791,-1.0234,-1.1284,-1.1885,-1.1709,-1.0627,-0.9636,-0.8834,-0.7237,-0.6334,-0.6351,-0.6504,-0.6813,-0.7334,-0.7071,-0.6635,-0.6065,-0.5755,-0.5297,-0.4717,-0.4749,-0.4779,-0.479,-0.4322,-0.3729,-0.3011,-0.1917,-0.1007,-0.0208,0.0965,0.1652,0.2084,0.0,0.0,0.0,0.0,0.0,0.0,0.0,0.0,0.0,0.0,0.0,0.0,0.0,0.0,0.0,0.0,0.0,0.0,0.0,0.0,0.0,0.0,0.0,0.0,0.0,0.0,0.0,0.0,0.0,0.0,0.0,1.0114,1.074,1.1214,1.1986,1.2873,1.3901,1.4342,1.4631,1.4864,1.5204,1.5523,1.5856,1.5984,1.6116,1.635,1.7313,1.7696,1.7295,1.8133,1.8574,1.8574,1.8396,1.8396,1.8574,1.8527,1.8574,1.8728,1.9044,1.9052,1.8878,1.9407,1.936,1.8994,1.9153,1.9066,1.8827,1.9097,1.9069,1.8841,1.8604,1.8367,1.8308,0.0,0.0,0.0,0.0,0.0,0.0,0.0,-0.8029,-0.8108,-0.7863,-0.8944,-0.9863,-1.0203,-1.1051,-1.1444,-1.1114,-1.0254,-0.9359,-0.8498,-0.7279,-0.663,-0.6723,-0.6989,-0.7389,-0.7934,-0.7793,-0.747,-0.6989,-0.6765,-0.623,-0.5382,-0.5436,-0.5424,-0.5294,-0.4769,-0.4329,-0.3906,-0.2451,-0.1523,-0.094,0.026,0.1153,0.1794,0.2397,0.3118,0.3863,0.4234,0.4479,0.4636,0.4606,0.0,0.0,0.0,0.0,0.0,0.0,0.0,0.0,0.0,0.0,0.0,0.0,0.0,0.0,0.0,0.0,0.0,0.0,0.0,0.0,0.0,0.0,0.0,0.0,1.0618,1.131,1.1961,1.2392,1.3037,1.4121,1.4514,1.4783,1.4986,1.5274,1.5463,1.5468,1.5458,1.5454,1.5471,1.6163,1.6422,1.6116,1.6718,1.7248,1.7707,1.7559,1.7753,1.8334,1.8218,1.8234,1.8357,1.8603,1.8649,1.8566,1.9,1.9018,1.8723,1.8816,1.8715,1.8527,0.0,0.0,0.0,0.0,1.8295,1.8111,0.0,0.0,0.0,0.0,0.0,0.0,0.0,-0.7997,-0.8123,-0.8012,-0.8989,-0.9649,-0.9545,-1.0482,-1.0823,-1.0103,-0.9653,-0.9091,-0.8356,-0.7729,-0.7452,-0.7621,-0.768,-0.7913,-0.8351,-0.8487,-0.842,-0.8186,-0.8041,-0.7398,-0.6295,-0.6294,-0.6017,-0.5502,-0.5436,-0.505,-0.4392,-0.3325,-0.2368,-0.1478,-0.0538,0.0595,0.1706,0.1676,0.2563,0.3839,0.3894,0.4228,0.4639,0.4646,0.0,0.0,0.0,0.0,0.0,0.0,0.0,0.0,0.0,0.0,0.0,0.0,0.0,0.0,0.0,0.0,0.0,0.0,0.0,0.0,0.0,0.0,0.0,0.0,1.1616,1.231,1.3081,1.2997,1.3151,1.3863,1.4532,1.4737,1.425,1.4795,1.498,1.4519,1.4495,1.4531,1.4656,1.4799,0.0,0.0,0.0,1.5399,1.6358,1.6459,1.696,1.787,1.7681,1.7642,1.776,1.7754,1.7919,1.8188,1.8261,1.8398,1.8514,1.8247,1.8117,1.8133,1.8573,1.8712,1.8712,1.8766,1.8583,1.8266,0.0,0.0,0.0,0.0,0.0,0.0,0.0,-0.7846,-0.7913,-0.7989,-0.858,-0.9026,-0.9105,-0.9602,-0.9863,-0.9718,-0.8792,-0.7914,-0.7178,-0.7195,-0.7394,-0.7745,-0.8178,-0.8525,-0.8779,-0.9167,-0.9157,-0.8738,-0.8088,-0.7464,-0.6899,-0.6068,-0.5608,-0.5505,-0.5483,-0.5453,-0.5363,-0.4409,-0.3451,-0.2518,-0.1536,-0.047,0.0603,0.1217,0.1744,0.2331,0.3612,0.4123,0.4291,0.4831,0.5052,0.5122,0.5222,0.5292,0.0,0.0,0.0,0.0,0.0,0.0,0.0,0.0,0.0,0.0,0.0,0.0,0.0,0.0,0.0,0.0,0.0,0.0,0.0,1.1918,1.2506,1.3075,1.3653,1.3888,1.4045,1.4201,1.4339,1.422,1.3702,1.3775,1.3678,1.319,1.3165,1.2996,1.2597,1.3547,1.3902,1.3475,1.4238,1.4787,1.4984,1.5626,1.6153,1.6574,1.6669,0.0,1.8016,1.7645,1.7703,1.8162,1.8693,1.8649,1.8201,1.8431,1.8331,1.811,1.8203,1.8249,1.8249,1.8473,1.8527,1.8479,0.0,0.0,0.0,0.0,0.0,0.0,0.0,-0.7737,-0.7898,-0.8162,-0.8229,-0.8344,-0.8577,-0.8688,-0.8664,-0.8467,-0.7928,-0.7611,-0.7648,-0.7581,-0.7925,-0.8765,-0.87,-0.8827,-0.919,-0.9496,-0.9645,-0.9647,-0.8843,-0.8296,-0.7967,-0.6829,-0.612,-0.5791,-0.5662,-0.5632,-0.5644,-0.4701,-0.3762,-0.282,-0.1795,-0.0791,0.0162,0.0762,0.1355,0.1959,0.284,0.3518,0.4059,0.4462,0.4732,0.4919,0.506,0.5007,0.5032,0.0,0.0,0.0,0.0,0.0,0.0,0.0,0.0,0.0,0.0,0.0,0.0,0.0,0.0,0.9967,1.0207,0.0,1.0752,1.1354,1.184,1.2445,1.3319,1.3333,1.3507,1.4214,1.4058,1.3799,1.3539,1.3298,1.2934,1.2443,1.2395,1.2175,1.1634,1.2204,1.2422,1.216,1.264,1.3138,1.3638,1.4046,1.4603,1.5253,1.534,1.5669,1.6183,1.5972,1.6258,1.6958,1.7304,1.7554,1.7721,1.7886,1.7856,1.7707,1.7707,1.7846,1.811,1.8257,1.8311,1.828,0.0,0.0,0.0,0.0,0.0,0.0,0.0,-0.7635,-0.7862,-0.8182,-0.792,-0.776,-0.7909,-0.7887,-0.768,-0.7243,-0.7256,-0.7576,-0.8285,-0.8084,-0.8447,-0.9589,-0.9142,-0.9056,-0.9488,-0.9659,-0.9977,-1.0467,-0.971,-0.9178,-0.8865,-0.7787,-0.6824,-0.6016,-0.5841,-0.5755,-0.5644,-0.4904,-0.403,-0.3092,-0.2084,-0.113,-0.0216,0.0331,0.1042,0.1773,0.2075,0.2764,0.3585,0.3868,0.4225,0.458,0.4657,0.4617,0.4626,0.506,0.5167,0.0,0.0,0.0,0.0,0.0,0.0,0.0,0.0,0.9005,0.9748,1.0107,0.9984,0.991,1.0295,1.0196,1.0236,1.0712,1.1036,1.1607,1.2694,1.2458,1.2632,1.3865,1.363,1.3322,1.3225,1.2861,1.2419,1.1883,1.1834,1.1663,1.1218,1.1194,1.1194,1.1194,1.1194,1.158,1.2393,1.2611,1.3138,1.398,1.4033,1.4154,1.4292,1.413,1.458,1.5507,1.5727,1.6254,1.7021,1.7021,1.7115,1.7279,1.7084,1.7396,1.7947,1.7994,1.8017,1.8002,0.0,0.0,0.0,0.0,0.0,0.0,0.0,0.0,-0.7544,-0.7591,-0.7667,-0.7514,-0.7013,-0.7416,-0.7493,-0.6906,-0.708,-0.7355,-0.7675,-0.7941,-0.8377,-0.9061,-0.9296,-0.944,-0.95,-0.9742,-1.0143,-1.0665,-1.0096,-0.9463,-0.8805,-0.8183,-0.7127,-0.5755,-0.5952,-0.593,-0.5688,-0.5577,-0.4993,-0.4052,-0.3112,-0.2124,-0.1124,-0.0062,0.0501,0.0878,0.178,0.2195,0.2415,0.3213,0.375,0.4065,0.396,0.4266,0.4683,0.4758,0.4687,0.4794,0.5756,0.6436,0.6921,0.7153,0.7222,0.7426,0.0,0.8347,0.8523,0.8912,0.9421,0.9896,1.0167,1.0681,1.1136,1.1439,1.142,1.1587,1.2194,1.2142,1.2259,1.2886,1.2905,1.2686,1.2224,1.2127,1.1878,1.1316,1.1292,1.1267,1.1194,1.1194,1.1194,1.1194,1.1194,1.1243,1.136,1.2252,1.2751,1.2877,1.3046,1.3551,1.4274,1.3494,1.3618,1.4531,1.5412,1.5869,1.5964,1.5964,1.649,1.7209,1.6325,1.6537,1.7426,1.7651,1.7745,1.7761,0.0,0.0,0.0,0.0,0.0,0.0,0.0,0.0,0.0,-0.7678,-0.7489,-0.7251,-0.7001,-0.7094,-0.7075,-0.6821,-0.7046,-0.7408,-0.7916,-0.8085,-0.8515,-0.9311,-0.9293,-0.9332,-0.9494,-0.9919,-1.0316,-1.0701,-0.9776,-0.9241,-0.9055,-0.755,-0.6531,-0.5976,-0.5823,-0.5731,-0.5688,-0.5688,-0.4837,-0.3446,-0.3049,-0.1976,-0.053,-0.006,0.0246,0.0502,0.1121,0.1593,0.0,0.2436,0.3164,0.3892,0.3909,0.4225,0.4604,0.4674,0.4605,0.4605,0.5106,0.5626,0.606,0.6165,0.6774,0.7468,0.7966,0.862,0.9268,0.9749,0.9706,0.9658,0.9921,0.9726,0.9552,0.967,0.9577,0.9737,1.0462,1.051,1.0726,1.1371,1.1591,1.1767,1.199,1.1707,1.1438,1.1223,1.1194,1.1194,1.1194,1.1194,1.1194,1.1194,1.1194,1.1194,1.1194,1.1629,1.1819,1.1819,1.1914,1.213,1.2471,1.211,1.2462,1.3427,1.4483,1.4937,1.4937,1.4937,1.5175,1.5561,1.5751,1.6058,1.6513,1.7216,1.7481,1.7473,0.0,0.0,0.0,0.0,0.0,0.0,0.0,0.0,0.0,0.0,-0.7377,-0.7177,-0.7102,-0.6916,-0.6796,-0.6796,-0.6957,-0.7264,-0.773,-0.7882,-0.8273,-0.9021,-0.9006,-0.9119,-0.938,-0.9919,-1.0263,-1.042,-0.9699,-0.9271,-0.9108,-0.7416,-0.6502,-0.627,-0.5783,-0.5572,-0.561,-0.561,-0.4686,-0.3207,-0.2944,-0.1865,-0.0365,-0.0094,0.014,0.0357,0.0604,0.1023,0.1491,0.1619,0.2363,0.3244,0.3341,0.3749,0.4224,0.4398,0.4524,0.4634,0.4772,0.5127,0.5498,0.5661,0.6533,0.743,0.7792,0.8625,0.9416,0.988,0.9525,0.9185,0.9274,0.8776,0.8316,0.8199,0.8098,0.8303,0.8998,0.9039,0.9318,1.0193,1.0427,1.0839,1.1627,1.1356,1.1137,1.1189,1.1194,1.1194,1.1194,1.1194,1.1194,1.1194,1.1194,1.1194,1.1194,1.1194,1.1194,1.1194,1.1194,1.1194,1.1194,1.1194,1.1604,1.2349,1.3403,1.386,1.386,1.386,1.4028,1.434,1.4787,1.5294,1.5893,1.6615,1.7068,1.7302,0.0,0.0,0.0,0.0,0.0,0.0,0.0,0.0,0.0,0.0,0.0,0.0,0.0,-0.6916,-0.6796,-0.6796,-0.6747,-0.6694,-0.6649,-0.7081,-0.743,-0.7645,-0.8329,-0.8842,-0.9101,-0.9642,-0.9858,-0.9736,-1.0213,-0.9856,-0.8705,-0.8382,-0.7605,-0.6478,-0.5941,-0.5588,-0.54,-0.54,-0.4896,-0.3984,-0.3074,-0.2174,-0.1259,-0.0349,0.016,0.0399,0.0414,0.0513,0.0659,0.0797,0.125,0.1766,0.1767,0.2536,0.3481,0.3751,0.4326,0.4923,0.5049,0.5345,0.5739,0.6314,0.6699,0.7065,0.7668,0.7927,0.8112,0.8326,0.8448,0.8432,0.8124,0.8308,0.8376,0.7975,0.7904,0.8006,0.8303,0.8107,0.8377,0.9588,0.9614,0.9907,1.0834,1.0929,1.0986,1.1179,1.1194,1.1194,1.1194,1.1194,1.1194,1.1194,1.1194,1.1194,1.1194,1.1194,1.1194,1.1194,1.1194,1.1194,1.1194,1.1194,1.1218,1.1292,1.2296,1.2751,1.2751,1.2751,1.3355,1.4196,1.3186,1.4022,1.5798,1.5822,1.6466,1.7302,0.0,0.0,0.0,0.0,0.0,0.0,0.0,0.0,0.0,0.0,0.0,0.0,0.0,0.0,0.0,0.0,-0.6537,-0.643,-0.6584,-0.6834,-0.6999,-0.7066,-0.7947,-0.8395,-0.8311,-0.9011,-0.9356,-0.9309,-0.8639,-0.8097,-0.7674,-0.6427,-0.5725,-0.5489,-0.5179,-0.5082,-0.5109,-0.4609,-0.3873,-0.296,-0.2152,-0.1285,-0.044,-0.0124,0.0057,0.016,0.0,0.054,0.0727,0.0732,0.116,0.1697,0.1697,0.2206,0.2931,0.3606,0.439,0.5119,0.5464,0.5867,0.6338,0.694,0.7292,0.7621,0.8143,0.8296,0.8319,0.8304,0.8097,0.7834,0.7634,0.748,0.7355,0.7309,0.7179,0.7155,0.7296,0.7524,0.7797,0.8087,0.9009,0.9759,1.0066,1.0581,1.0976,1.1179,1.1194,1.1194,1.1194,1.1194,1.1194,1.1194,1.1194,1.1194,1.1194,1.1194,1.1194,1.1194,1.1194,1.1194,1.1194,1.1194,1.1194,1.1218,1.1556,1.1697,1.1697,1.1697,1.1917,1.2276,1.2587,1.3138,1.3902,1.5294,1.6011,1.6396,0.0,0.0,0.0,0.0,0.0,0.0,0.0,0.0,0.0,0.0,0.0,0.0,0.0,0.0,0.0,0.0,0.0,-0.6441,-0.6484,-0.6553,-0.6617,-0.6691,-0.7383,-0.7779,-0.7791,-0.8373,-0.8645,-0.8601,-0.7683,-0.7169,-0.7028,-0.5539,-0.4926,-0.5021,-0.4597,-0.4482,-0.457,-0.4099,-0.3327,-0.2388,-0.2008,-0.1168,-0.0148,-0.0222,-0.0117,0.0,0.0261,0.0491,0.0699,0.0703,0.1007,0.1381,0.1376,0.1809,0.2518,0.3506,0.4354,0.5125,0.5845,0.643,0.6933,0.7427,0.7753,0.8052,0.8366,0.8364,0.8243,0.7994,0.7657,0.7306,0.6933,0.6671,0.6541,0.6602,0.6502,0.6472,0.6593,0.688,0.7128,0.7285,0.8168,0.9013,0.9627,1.0166,1.0664,1.1155,1.1194,1.1231,1.1307,1.1236,1.1231,1.1307,1.1236,1.1194,1.1194,1.1194,1.1194,1.1194,1.1194,1.1194,1.1194,1.1194,1.1194,1.1194,1.1194,1.1194,1.1194,1.1194,1.1194,1.1267,1.1917,1.2368,1.292,1.462,1.5484,1.594,0.0,0.0,0.0,0.0,0.0,0.0,0.0,0.0,0.0,0.0,0.0,0.0,0.0,0.0,0.0,0.0,0.0,0.0,-0.6284,-0.6187,-0.6221,-0.6399,-0.6649,-0.7012,-0.7504,-0.7743,-0.78,-0.7655,-0.7377,-0.7074,-0.6731,-0.5711,-0.5175,-0.5027,-0.4225,-0.3881,-0.3887,-0.3848,-0.3247,-0.2324,-0.2543,-0.1744,-0.0427,-0.0627,-0.0319,0.0213,0.0205,0.0337,0.053,0.0654,0.0749,0.0807,0.0796,0.1374,0.2276,0.3461,0.4265,0.5043,0.6235,0.6967,0.7488,0.776,0.8048,0.8287,0.8294,0.8133,0.7821,0.7358,0.7142,0.6785,0.6006,0.5902,0.5944,0.5901,0.5895,0.5997,0.6259,0.6208,0.6417,0.7167,0.719,0.7804,0.9516,0.9701,1.0112,1.1036,1.1168,1.1307,1.1499,1.134,1.1321,1.1504,1.1335,1.1222,1.1212,1.1212,1.1203,1.1194,1.1208,1.1203,1.1194,1.1194,1.1194,1.1194,1.1194,1.1194,1.1194,1.1194,1.1194,1.1194,1.1194,1.177,1.2751,1.3884,1.4865,1.5798,0.0,0.0,0.0,0.0,0.0,0.0,0.0,0.0,0.0,0.0,0.0,0.0,0.0,0.0,0.0,0.0,0.0,0.0,-0.5703,-0.5455,-0.5285,-0.5237,-0.6049,-0.6477,-0.6409,-0.7049,-0.7308,-0.7172,-0.6658,-0.6314,-0.6099,-0.4942,-0.4449,-0.4482,-0.382,-0.3588,-0.3638,-0.3088,-0.2698,-0.2403,-0.1927,-0.1227,-0.0493,-0.0643,-0.0264,0.0353,0.035,0.0447,0.0577,0.0612,0.0731,0.0868,0.0818,0.1659,0.2833,0.363,0.4805,0.6009,0.6925,0.7437,0.7773,0.8104,0.8126,0.813,0.827,0.7791,0.7244,0.6909,0.6355,0.5789,0.5383,0.5318,0.5399,0.5633,0.5791,0.6017,0.6339,0.642,0.6544,0.6752,0.7372,0.8189,0.9298,0.9766,0.9991,1.0002,1.088,1.1499,1.1702,1.1664,1.1685,1.1716,1.1664,1.1586,1.141,1.141,1.1354,1.1198,1.1359,1.135,1.1194,1.1194,1.1194,1.1194,1.1194,1.1194,1.1194,1.1194,1.1194,1.1194,1.1194,1.1365,1.1795,1.362,1.395,1.3758,0.0,0.0,0.0,0.0,0.0,0.0,0.0,0.0,0.0,0.0,0.0,0.0,0.0,0.0,0.0,0.0,0.0,0.0,0.0,-0.5361,-0.5209,-0.5281,-0.5611,-0.5853,-0.6001,-0.6445,-0.6523,-0.6215,-0.6051,-0.5729,-0.5273,-0.4647,-0.4229,-0.3978,-0.3636,-0.3413,-0.3265,-0.2846,-0.261,0.0,0.0,-0.1291,-0.067,-0.0623,-0.0191,0.0405,0.0405,0.049,0.0606,0.0673,0.0798,0.1024,0.1486,0.2134,0.2992,0.4332,0.5373,0.6245,0.7083,0.7661,0.8013,0.7995,0.8006,0.7969,0.7814,0.7342,0.6739,0.6135,0.5632,0.5169,0.4672,0.4625,0.4778,0.5154,0.5376,0.5654,0.6114,0.6352,0.6404,0.6221,0.6676,0.7232,0.7889,0.821,0.8496,0.8739,1.0436,1.127,1.0801,1.1314,1.1652,1.1745,1.1657,1.1632,1.1626,1.1626,1.159,1.1468,1.148,1.1428,1.1335,1.1236,1.1194,1.1194,1.1194,1.1194,1.1194,1.1194,1.1194,1.1194,1.1194,1.1194,1.1399,1.3095,1.3281,1.2961,0.0,0.0,0.0,0.0,0.0,0.0,0.0,0.0,0.0,0.0,0.0,0.0,0.0,0.0,0.0,0.0,0.0,0.0,0.0,0.0,-0.5407,-0.5702,-0.5275,-0.5319,-0.5935,-0.5951,-0.5728,-0.524,-0.5569,-0.5307,-0.4493,-0.4561,-0.4223,-0.3541,-0.3475,-0.3226,-0.2843,-0.2854,-0.2718,-0.2465,-0.2206,-0.1617,-0.0866,0.0,-0.0123,0.0416,0.0441,0.0533,0.064,0.0765,0.0897,0.1192,0.2174,0.2552,0.3039,0.5063,0.5835,0.6213,0.7036,0.7719,0.8103,0.7653,0.7684,0.7677,0.7125,0.6718,0.6202,0.5243,0.499,0.4731,0.4018,0.4021,0.4259,0.4654,0.4882,0.5229,0.5844,0.6148,0.6158,0.577,0.5742,0.5896,0.6222,0.6218,0.6559,0.7381,0.9576,1.0436,0.9352,1.0509,1.1353,1.1723,1.1501,1.1522,1.1834,1.1808,1.1794,1.1787,1.1645,1.156,1.1523,1.1335,1.125,1.1279,1.125,1.1236,1.1241,1.1269,1.126,1.1241,1.1269,1.1279,1.1421,1.2618,1.2842,1.271,0.0,0.0,0.0,0.0,0.0,0.0,0.0,0.0,0.0,0.0,-0.5695,0.0,0.0,0.0,0.0,0.0,0.0,0.0,0.0,0.0,0.0,-0.4739,-0.5068,-0.5381,-0.5662,-0.5727,-0.565,-0.5442,-0.541,-0.5057,-0.4409,-0.4154,-0.3763,-0.3255,-0.281,-0.2597,-0.2576,-0.2631,-0.2563,-0.24,-0.219,-0.1616,-0.0875,-0.0603,0.0,0.0,0.0666,0.0752,0.0778,0.0854,0.0968,0.1119,0.1322,0.227,0.3544,0.4577,0.5766,0.6836,0.7379,0.7627,0.7646,0.7278,0.7048,0.6836,0.6504,0.5847,0.5192,0.484,0.4414,0.4054,0.3861,0.4066,0.4387,0.4725,0.5002,0.5368,0.5969,0.6202,0.6183,0.5821,0.5924,0.617,0.6503,0.6372,0.624,0.6141,0.7444,0.8261,0.8252,0.9419,1.0653,1.1896,1.155,1.1557,1.2034,1.1817,1.1761,1.1791,1.1938,1.1914,1.173,1.1532,1.1527,1.1699,1.1509,1.1463,1.1452,1.1642,1.1609,1.1452,1.1622,1.1709,1.1837,1.294,1.2638,1.1859,0.0,0.0,0.0,0.0,0.0,0.0,0.0,0.0,0.0,-0.493,-0.4898,-0.4985,0.0,0.0,0.0,0.0,0.0,0.0,0.0,0.0,0.0,0.0,0.0,0.0,-0.4868,-0.4798,-0.4598,-0.4253,0.0,-0.4494,-0.3934,-0.3984,-0.3718,-0.3186,-0.2819,-0.2542,-0.2333,-0.2156,-0.2037,-0.1941,-0.142,-0.0939,-0.0495,0.0,0.0,0.0,0.0,0.0801,0.0808,0.0874,0.0966,0.1159,0.1836,0.276,0.3826,0.4976,0.6124,0.7036,0.714,0.7397,0.7468,0.6936,0.6682,0.6458,0.5895,0.5347,0.4807,0.4333,0.4076,0.3894,0.3729,0.3976,0.4246,0.4416,0.4713,0.5138,0.57,0.5654,0.5516,0.5387,0.5227,0.51,0.5046,0.4956,0.4841,0.4672,0.5198,0.6112,0.7467,0.9405,1.0794,1.1509,1.148,1.1567,1.1837,1.1702,1.1733,1.1899,1.1899,1.1897,1.1952,1.1744,1.1702,1.1787,1.1688,1.1671,1.1655,1.1754,1.1735,1.1685,1.1754,1.1791,1.1883,1.2509,1.226,1.1741,0.0,0.0,0.0,0.0,0.0,0.0,0.0,-0.4477,-0.446,-0.4449,-0.4394,-0.4567,-0.5088,-0.4967,-0.4831,0.0,0.0,0.0,0.0,0.0,0.0,0.0,0.0,0.0,0.0,0.0,0.0,-0.3166,-0.3737,0.0,0.0,0.0,0.0,0.0,-0.272,-0.2417,-0.2002,-0.1679,-0.1485,0.0,0.0,-0.0326,0.0,0.0,0.0,0.0,0.0,0.0779,0.0784,0.0851,0.0919,0.1155,0.2151,0.3024,0.3886,0.5127,0.6189,0.6954,0.6776,0.7053,0.7242,0.6587,0.6317,0.6051,0.5374,0.4943,0.4512,0.392,0.3866,0.3849,0.3644,0.3854,0.407,0.4097,0.4437,0.4892,0.541,0.5148,0.4902,0.4938,0.4503,0.4043,0.3613,0.3579,0.3587,0.3587,0.3838,0.4784,0.6642,0.8744,1.0131,1.0715,1.0907,1.1208,1.1596,1.1541,1.165,1.2001,1.185,1.1857,1.2062,1.193,1.186,1.1845,1.1855,1.1862,1.1862,1.1905,1.19,1.1867,1.1909,1.1923,1.1947,1.2112,1.2041,1.1886,0.0,0.0,0.0,0.0,0.0,0.0,0.0,-0.4446,-0.4649,-0.459,-0.4573,-0.4599,-0.466,-0.4482,-0.4264,0.0,0.0,0.0,0.0,0.0,0.0,0.0,0.0,0.0,0.0,0.0,0.0,-0.3371,-0.3201,0.0,0.0,0.0,0.0,0.0,0.0,-0.1688,-0.1464,-0.137,0.0,0.0,0.0,0.0,0.0,0.0,0.0,0.0,0.0,0.0712,0.0722,0.0785,0.0853,0.0932,0.1053,0.2199,0.3585,0.398,0.5291,0.6631,0.6552,0.6651,0.6685,0.6237,0.5722,0.5254,0.5004,0.445,0.3953,0.3826,0.3713,0.3624,0.3599,0.3772,0.3957,0.4083,0.4437,0.4862,0.5337,0.5123,0.4848,0.4739,0.441,0.4024,0.3553,0.3555,0.3587,0.3587,0.462,0.5343,0.5536,0.5787,0.7033,0.9471,0.9282,0.9943,1.1568,1.1295,1.1432,1.2005,1.1987,1.1978,1.1996,1.2044,1.2049,1.1996,1.2057,1.2057,1.2098,1.2282,1.2249,1.2103,1.2282,1.2325,1.2357,1.2376,1.2258,1.2088,0.0,0.0,0.0,0.0,0.0,0.0,0.0,-0.4095,-0.4446,-0.4426,-0.4418,-0.4418,-0.4418,-0.4348,-0.4258,0.0,0.0,0.0,0.0,0.0,0.0,0.0,0.0,0.0,0.0,0.0,-0.2467,-0.2438,-0.2413,0.0,0.0,0.0,0.0,0.0,0.0,-0.1446,-0.1194,-0.0844,0.0,0.0,0.0,0.0,0.0,0.0,0.0,0.0,0.0,0.0,0.07,0.0735,0.0786,0.0841,0.0841,0.1817,0.3018,0.3383,0.4523,0.5752,0.5955,0.629,0.6443,0.5876,0.5402,0.4991,0.463,0.4169,0.3808,0.3697,0.3638,0.3599,0.3599,0.373,0.3865,0.3957,0.411,0.4343,0.4694,0.4305,0.4043,0.4203,0.3855,0.3562,0.3511,0.3552,0.3587,0.3587,0.4033,0.4313,0.4313,0.5646,0.6919,0.7971,0.8585,0.9254,0.9966,1.0551,1.1072,1.1455,1.165,1.1759,1.1755,1.195,1.2041,1.2001,1.2031,1.2129,1.2301,1.2381,1.234,1.2301,1.2381,1.2414,1.2414,1.2414,1.2362,1.225,0.0,0.0,0.0,0.0,0.0,0.0,-0.3399,-0.3959,-0.4388,-0.4388,-0.4388,-0.4364,-0.4309,-0.425,-0.4159,-0.4016,0.0,0.0,0.0,0.0,0.0,0.0,0.0,0.0,0.0,0.0,-0.1771,-0.1707,-0.1807,-0.1876,0.0,0.0,-0.1873,-0.1796,0.0,0.0,0.0,0.0,0.0,0.0,0.0,0.0,0.0,0.0,0.0,0.0,0.0,0.0,0.0,0.0,0.0,0.0775,0.0775,0.1457,0.2374,0.2868,0.3988,0.5102,0.5402,0.5824,0.6057,0.558,0.5153,0.4757,0.4384,0.4006,0.3709,0.3616,0.3599,0.3599,0.3599,0.3706,0.3824,0.3884,0.3965,0.4112,0.4403,0.3918,0.3646,0.3974,0.3526,0.3255,0.3452,0.3542,0.3587,0.3587,0.3587,0.3587,0.3587,0.5172,0.6225,0.6586,0.7753,0.853,0.8892,1.0111,1.0829,1.1099,1.135,1.1459,1.1459,1.1759,1.1869,1.1896,1.1978,1.2114,1.2305,1.2359,1.2355,1.2305,1.2359,1.2414,1.2414,1.2414,1.2349,1.2301,0.0,0.0,0.0,0.0,0.0,0.0,0.0,-0.4161,-0.4596,-0.4596,-0.4596,-0.4521,-0.4321,-0.412,-0.3818,-0.3347,0.0,0.0,0.0,0.0,0.0,0.0,0.0,0.0,0.0,0.0,-0.17,-0.1502,-0.1504,-0.1575,-0.1706,-0.1706,-0.167,-0.1592,0.0,0.0,0.0,0.0,0.0,0.0,0.0,0.0,0.0,0.0,0.0,0.0,0.0,0.0,0.0,0.0,0.0,0.0,0.0,0.1074,0.166,0.2384,0.3695,0.4921,0.4985,0.5197,0.5418,0.5392,0.4958,0.4462,0.4327,0.3946,0.3599,0.3599,0.3599,0.3599,0.3599,0.3706,0.3824,0.3884,0.4124,0.4405,0.4747,0.4215,0.3925,0.4255,0.3578,0.317,0.339,0.3519,0.3587,0.3587,0.3587,0.3587,0.3587,0.3615,0.4173,0.5371,0.6531,0.7695,0.8892,1.0111,1.0829,1.1099,1.1099,1.1099,1.1131,1.1459,1.1596,1.1623,1.1869,1.2005,1.2028,1.2305,1.225,1.2032,1.2305,1.2414,1.2414,1.2414,1.226,1.209,0.0,0.0,0.0,0.0,0.0,0.0,0.0,-0.3182,-0.363,-0.358,-0.3576,-0.3517,-0.3357,-0.329,-0.3151,-0.2907,0.0,0.0,0.0,0.0,0.0,0.0,0.0,0.0,0.0,0.0,-0.1449,-0.143,-0.143,-0.1527,-0.1696,-0.1657,-0.1642,-0.1654,-0.1224,-0.086,0.0,0.0,0.0,0.0,0.0,0.0,0.06,0.0,0.0,0.0,0.0,0.0,0.0,0.0,0.0,0.0,0.0,0.0,0.0,0.2515,0.3203,0.3888,0.4277,0.4575,0.4772,0.4677,0.4433,0.4197,0.4062,0.3808,0.3599,0.3599,0.3599,0.3599,0.3599,0.3641,0.3744,0.3999,0.4108,0.42,0.43,0.4018,0.3779,0.3748,0.3538,0.3429,0.3521,0.3565,0.3587,0.3587,0.3587,0.3587,0.3587,0.3587,0.3783,0.4145,0.6086,0.7279,0.7667,0.9691,1.0747,1.0829,1.1017,1.0989,1.0829,1.1131,1.1267,1.1291,1.1596,1.1841,1.2005,1.2087,1.2191,1.2246,1.2169,1.225,1.2368,1.2258,1.2142,1.2048,0.0,0.0,0.0,0.0,0.0,0.0,0.0,-0.284,-0.3183,-0.3142,-0.3113,-0.3048,-0.2916,-0.2832,-0.2704,-0.2494,0.0,0.0,0.0,0.0,0.0,0.0,0.0,0.0,0.0,-0.1296,-0.1332,-0.1399,-0.1373,-0.1477,-0.1701,-0.1627,-0.1555,-0.1452,-0.1061,-0.0681,0.0,0.0,0.0,0.0,0.0,0.0,0.0562,0.0,0.0,0.0,0.0,0.0,0.0,0.0,0.0,0.0,0.0,0.0,0.0,0.0,0.2933,0.3287,0.3783,0.4088,0.424,0.414,0.4072,0.3988,0.3823,0.3689,0.3599,0.3599,0.3599,0.3599,0.3599,0.3649,0.3749,0.3988,0.411,0.4147,0.4073,0.3902,0.369,0.3387,0.3427,0.348,0.3518,0.3561,0.3587,0.3587,0.3587,0.3587,0.3587,0.3587,0.3587,0.3587,0.5451,0.6669,0.7083,0.9054,1.0249,1.0692,1.0884,1.0857,1.0719,1.0884,1.0989,1.1131,1.1459,1.1623,0.0,1.1923,1.2032,1.2087,1.2032,1.2169,1.2368,1.2138,1.202,1.1926,0.0,0.0,0.0,0.0,0.0,0.0,0.0,0.0,0.0,0.0,-0.3056,-0.2955,-0.282,-0.262,-0.2365,0.0,0.0,0.0,0.0,0.0,0.0,0.0,0.0,0.0,0.0,-0.1242,-0.1277,-0.1356,-0.1276,-0.1367,-0.1623,-0.155,-0.1357,-0.1055,-0.0775,-0.0357,0.0,0.0,0.0,0.0,0.0,0.0,0.0,0.0,0.0,0.0,0.0,0.0,0.0,0.0,0.0,0.0,0.0,0.0,0.0,0.0,0.0,0.0,0.0,0.3685,0.3816,0.3772,0.3806,0.3811,0.3646,0.3599,0.0,0.3599,0.3599,0.3605,0.3621,0.3717,0.383,0.3934,0.4154,0.4255,0.405,0.3886,0.3624,0.3176,0.3279,0.3422,0.3418,0.3521,0.3587,0.3587,0.3587,0.3587,0.3587,0.3587,0.3587,0.3587,0.4674,0.5868,0.7083,0.8392,0.9585,1.0692,1.0692,1.0692,1.0692,1.0692,1.0829,1.1099,1.1432,1.1404,1.1126,1.1705,1.1814,1.1623,1.1869,1.2141,1.2327,1.205,1.1882,1.1761,0.0,0.0,0.0,0.0,0.0,0.0,0.0,0.0,0.0,0.0,-0.2175,-0.2056,-0.1918,-0.1637,-0.1396,0.0,0.0,0.0,0.0,0.0,0.0,0.0,0.0,0.0,0.0,-0.0688,-0.0717,-0.0942,-0.072,-0.0699,-0.0861,-0.0792,-0.0745,-0.0696,-0.0333,0.0049,0.0407,0.0,0.0,0.0,0.0,0.0,0.0,0.0,0.0,0.0,0.0695,0.0697,0.0,0.0,0.0,0.0,0.0,0.0,0.0,0.0,0.3049,0.3004,0.305,0.0,0.3232,0.3317,0.3436,0.3536,0.0,0.3599,0.3599,0.3599,0.3599,0.3654,0.3804,0.3812,0.3927,0.4295,0.4506,0.4524,0.4263,0.3972,0.3669,0.3289,0.3428,0.3527,0.3481,0.3544,0.3587,0.3587,0.3587,0.3587,0.3587,0.3587,0.3587,0.3587,0.3867,0.5005,0.7083,0.922,1.0417,1.0692,1.0692,1.0692,1.0692,1.0692,1.0719,1.0802,1.1103,1.1185,1.1099,1.1236,1.1432,1.1623,1.1678,1.1869,1.2046,1.1685,1.1642,1.1723,0.0,0.0,0.0,0.0,0.0,0.0,0.0,0.0,0.0,0.0,0.0,0.0,0.0,0.0,0.0,0.0,0.0,0.0,0.0,0.0,0.0,0.0,0.0,0.0,-0.0512,-0.0412,-0.0452,-0.066,-0.0488,-0.0482,-0.0644,-0.058,-0.0465,-0.0311,0.0093,0.0355,0.0497,0.0498,0.0485,0.0,0.0487,0.0,0.0,0.0,0.0,0.0,0.0693,0.0696,0.0,0.0954,0.131,0.1756,0.0,0.0,0.0,0.0,0.3037,0.2951,0.2912,0.2995,0.3092,0.31,0.3301,0.3487,0.3512,0.3558,0.3599,0.3599,0.3599,0.3654,0.3819,0.3724,0.3807,0.4401,0.4306,0.4098,0.3959,0.3667,0.3433,0.3368,0.3471,0.3544,0.3538,0.3568,0.3587,0.3587,0.3561,0.3557,0.3586,0.3537,0.3531,0.3586,0.4114,0.5269,0.7083,0.8386,0.9605,1.0692,1.0692,1.0692,1.0692,1.0692,1.0692,1.0719,1.0994,1.1021,1.0935,1.1044,1.1213,1.1377,1.1377,1.157,1.1819,1.1336,1.1301,1.1418,0.0,0.0,0.0,0.0,0.0,0.0,0.0,0.0,0.0,0.0,0.0,0.0,0.0,0.0,0.0,0.0,0.0,0.0,0.0,0.0,0.0,0.0,0.0,-0.0268,-0.0257,-0.0206,-0.025,-0.0392,-0.0283,-0.0314,-0.0475,-0.0418,-0.0215,0.0121,0.045,0.0564,0.0517,0.0505,0.047,0.0422,0.0474,0.0,0.0,0.0,0.0,0.0,0.0,0.0,0.0,0.1256,0.1711,0.2177,0.2551,0.0,0.0,0.0,0.0,0.0,0.2912,0.3053,0.3172,0.3063,0.3306,0.3547,0.3449,0.3523,0.3599,0.3599,0.3599,0.3637,0.3727,0.3625,0.3718,0.4355,0.3951,0.3581,0.3569,0.3303,0.3195,0.3387,0.347,0.3523,0.3557,0.3568,0.357,0.3561,0.3512,0.3506,0.3557,0.3466,0.3458,0.3557,0.4493,0.5657,0.7029,0.726,0.8496,1.0692,1.0692,1.0692,1.0692,1.0692,1.0692,1.0719,1.0939,1.0911,1.0719,1.0939,1.1048,1.1044,1.1069,1.1293,1.1576,1.1009,1.0941,1.1061,0.0,0.0,0.0,0.0,0.0,0.0,0.0,0.0,0.0,0.0,0.0,0.0,0.0,0.0,0.0,0.0,0.0,0.0,0.0,0.0,0.0,0.0,0.0276,0.0175,-0.0044,0.0233,0.028,0.0091,0.0384,0.054,0.0573,0.0523,0.0536,0.0593,0.0599,0.0595,0.0583,0.0527,0.0495,0.0484,0.0496,0.0,0.0,0.0,0.0,0.0,0.0,0.0,0.0,0.131,0.188,0.2584,0.254,0.0,0.0,0.0,0.0,0.0,0.297,0.3094,0.3188,0.3172,0.3298,0.3452,0.355,0.3583,0.3599,0.3599,0.3599,0.3594,0.3555,0.3791,0.4044,0.4214,0.406,0.3891,0.3837,0.3512,0.3312,0.3402,0.3507,0.3538,0.3448,0.3482,0.3491,0.3443,0.3431,0.3429,0.3439,0.3422,0.3421,0.3439,0.359,0.4706,0.6815,0.8029,0.9333,1.0692,1.0692,1.0692,1.0692,1.0692,1.0692,1.0692,1.0747,1.0747,1.0692,1.0747,1.0774,1.0758,1.0885,1.11,1.1274,1.0626,1.07,1.1038,0.0,0.0,0.0,0.0,0.0,0.0,0.0,0.0,0.0,0.0,0.0,0.0,0.0,0.0,0.0,0.0,0.0,0.0,0.0,0.0,0.0,0.0402,0.0402,0.0361,0.0275,0.0418,0.0494,0.0474,0.063,0.0738,0.0801,0.0774,0.073,0.0694,0.0632,0.0603,0.06,0.0525,0.0504,0.0504,0.0,0.0,0.0,0.0,0.0,0.0,0.0,0.0,0.0,0.0,0.2248,0.2515,0.2715,0.0,0.0,0.0,0.0,0.0,0.2936,0.307,0.3206,0.3206,0.336,0.3474,0.3359,0.333,0.3365,0.3516,0.3541,0.3565,0.3644,0.3697,0.3642,0.3424,0.3671,0.3805,0.3498,0.3308,0.3232,0.3325,0.3412,0.3436,0.3414,0.3436,0.344,0.3414,0.3355,0.3351,0.341,0.3324,0.3319,0.341,0.3354,0.4451,0.6787,0.7434,0.8693,1.0527,1.0647,1.0692,1.0692,1.0692,1.0692,1.0692,1.0692,1.0692,1.0692,1.0692,1.0635,1.0546,1.0599,1.0689,1.0712,1.0297,1.0295,1.0461,0.0,0.0,0.0,0.0,0.0,0.0,0.0,0.0,0.0,0.0,0.0,0.0,0.0,0.0,0.0,0.0,0.0,0.0,0.0,0.0,0.0403,0.0397,0.04,0.0429,0.0502,0.0501,0.0565,0.0695,0.0702,0.0734,0.08,0.0801,0.0766,0.0694,0.0632,0.0603,0.06,0.0525,0.0504,0.0496,0.0,0.0,0.0,0.0,0.0,0.0,0.0,0.0,0.0,0.0,0.0,0.0,0.0,0.0,0.0,0.2901,0.2909,0.292,0.292,0.3082,0.3246,0.3246,0.3422,0.3515,0.3208,0.3154,0.3216,0.3375,0.3403,0.3464,0.3648,0.3597,0.3387,0.2947,0.3408,0.3658,0.3203,0.3153,0.3197,0.3304,0.3316,0.3329,0.3362,0.3365,0.3359,0.3344,0.33,0.3294,0.3342,0.3256,0.3247,0.334,0.3298,0.425,0.6315,0.6628,0.7986,1.0409,1.0566,1.0651,1.0688,1.0647,1.0655,1.0688,1.0647,1.0655,1.0692,1.0692,1.059,1.0405,1.0361,1.0256,1.0125,1.0024,0.9969,0.9895,0.0,0.0,0.0,0.0,0.0,0.0,0.0,0.0,0.0,0.0,0.0,0.0,0.0,0.0,0.0,0.0,0.0,0.0,0.0,0.0,0.0403,0.0397,0.0398,0.043,0.05,0.0503,0.0565,0.0695,0.0702,0.0731,0.0797,0.0799,0.0766,0.0694,0.0632,0.0603,0.06,0.0525,0.0504,0.0496,0.0429,0.0,0.0,0.0,0.0,0.0,0.0,0.0,0.0,0.0,0.0,0.0,0.0,0.0,0.2901,0.2901,0.2947,0.2989,0.2989,0.3183,0.339,0.339,0.3501,0.3541,0.3335,0.333,0.3326,0.3158,0.3124,0.3163,0.3315,0.3622,0.3762,0.3478,0.3633,0.3688,0.3329,0.3279,0.3307,0.3371,0.3406,0.3359,0.3308,0.3301,0.3279,0.3223,0.3215,0.3213,0.3217,0.3211,0.3209,0.3217,0.3215,0.3767,0.4928,0.6108,0.7939,1.0409,1.0422,1.0511,1.0684,1.0498,1.0515,1.0684,1.0494,1.0519,1.0692,1.0692,1.059,1.0393,1.0249,0.9991,0.9669,0.9904,0.9846,0.9628,0.0,0.0,0.0,0.0,0.0,0.0,0.0,0.0,0.0,0.0,0.0,0.0,0.0,0.0,0.0,0.0,0.0,0.0,0.0,0.0,0.0603,0.0647,0.0648,0.0683,0.0749,0.0628,0.0611,0.0695,0.0704,0.0714,0.0735,0.0739,0.0707,0.0634,0.0614,0.0574,0.0537,0.0466,0.0462,0.0513,0.0605,0.0739,0.0,0.0,0.0,0.0,0.0,0.0,0.0,0.0,0.2694,0.2826,0.2887,0.2901,0.2901,0.2901,0.2923,0.2952,0.2993,0.3007,0.309,0.3345,0.3255,0.3092,0.3062,0.3104,0.3126,0.306,0.3112,0.3219,0.3387,0.3302,0.3218,0.3247,0.3312,0.3338,0.3249,0.3239,0.3247,0.327,0.3273,0.3265,0.3242,0.3239,0.3229,0.3206,0.3205,0.3205,0.3205,0.3205,0.3205,0.3205,0.3205,0.4031,0.5779,0.6268,0.7725,1.0095,1.0209,1.0325,1.039,1.032,1.0329,1.0394,1.0389,1.0446,1.0503,1.0503,1.0428,1.0237,0.9945,0.9721,0.9603,0.9727,0.9677,0.9603,0.0,0.0,0.0,0.0,0.0,0.0,0.0,0.0,0.0,0.0,0.0,0.0,0.0,0.0,0.0,0.0,0.0,0.0,0.0623,0.0749,0.0845,0.0896,0.0936,0.0941,0.0905,0.0805,0.0744,0.0699,0.0698,0.0697,0.0697,0.0698,0.0667,0.0598,0.0578,0.053,0.0471,0.0513,0.0555,0.0613,0.0841,0.1018,0.0,0.0,0.0,0.0,0.0,0.0,0.0,0.0,0.2735,0.2726,0.2863,0.2901,0.2901,0.2901,0.2888,0.2874,0.2869,0.2879,0.293,0.3074,0.3032,0.2944,0.2856,0.2913,0.2993,0.295,0.3112,0.326,0.3282,0.3116,0.3011,0.3065,0.3087,0.3112,0.3197,0.3205,0.3205,0.3205,0.3205,0.3205,0.3205,0.3205,0.3205,0.3205,0.3205,0.3205,0.3205,0.3205,0.3205,0.3205,0.3205,0.4056,0.5877,0.6224,0.7366,0.9317,0.9776,1.008,1.0212,1.0129,1.0133,1.019,1.0233,1.0268,1.0351,1.0351,1.0241,1.0072,0.9721,0.9603,0.9603,0.9603,0.9603,0.9603,0.0,0.0,0.0,0.0,0.0,0.0,0.0,0.0,0.0,0.0,0.0,0.0,0.0,0.0,0.0,0.0,0.0,0.0,0.11,0.11,0.1101,0.1103,0.1234,0.1177,0.0914,0.104,0.0973,0.0697,0.0697,0.0697,0.0697,0.0697,0.0666,0.06,0.053,0.0465,0.042,0.069,0.0808,0.0833,0.1093,0.1246,0.1338,0.0,0.0,0.0,0.0,0.0,0.0,0.0,0.2592,0.2726,0.2863,0.2901,0.2901,0.2901,0.2848,0.2774,0.2632,0.2841,0.2994,0.2603,0.2903,0.3187,0.2783,0.2864,0.2964,0.2832,0.3107,0.3281,0.2873,0.3132,0.3306,0.3055,0.306,0.3112,0.3197,0.3205,0.3205,0.3205,0.3205,0.3205,0.3205,0.3205,0.3205,0.3205,0.3205,0.3205,0.3205,0.3205,0.3205,0.3205,0.3205,0.3732,0.4809,0.5877,0.6946,0.8024,0.9101,0.9815,1.0178,0.9991,1.0007,1.0174,0.9991,1.0015,1.0212,1.0212,1.0076,0.9864,0.9668,0.9603,0.9603,0.9603,0.9603,0.9603,0.0,0.0,0.0,0.0,0.0,0.0,0.0,0.0,0.0,0.0,0.0,0.0,0.0,0.0,0.0,0.0,0.0,0.0,0.11,0.123,0.1314,0.1309,0.1482,0.1612,0.1676,0.1757,0.1445,0.0699,0.0698,0.0697,0.0697,0.0697,0.0635,0.0546,0.0855,0.0879,0.0712,0.1119,0.1236,0.1179,0.1444,0.1619,0.1738,0.0,0.0,0.0,0.0,0.0,0.0,0.0,0.0,0.0,0.2863,0.2901,0.2901,0.2901,0.2792,0.2672,0.2727,0.2573,0.245,0.2657,0.2623,0.2569,0.2733,0.2861,0.2932,0.2932,0.3042,0.3092,0.3018,0.3116,0.3158,0.3074,0.3092,0.3112,0.3197,0.3205,0.3205,0.3205,0.3205,0.3205,0.3205,0.3205,0.3205,0.3205,0.3205,0.3205,0.3205,0.3205,0.3205,0.3205,0.3205,0.4081,0.5902,0.6249,0.7322,0.9126,0.9451,0.966,0.9782,0.973,0.9709,0.9791,0.9855,0.9942,0.9995,0.9995,0.9864,0.9672,0.9624,0.9603,0.9603,0.9603,0.9603,0.9603,0.0,0.0,0.0,0.0,0.0,0.0,0.0,0.0,0.0,0.0,0.0,0.0,0.0,0.0,0.0,0.0,0.0,0.0,0.0,0.1491,0.1557,0.1557,0.1774,0.1981,0.2157,0.2121,0.182,0.1262,0.1074,0.0965,0.0931,0.0722,0.0653,0.0703,0.0911,0.1042,0.1132,0.1415,0.1551,0.1603,0.1837,0.1985,0.2066,0.0,0.0,0.0,0.0,0.0,0.0,0.0,0.0,0.0,0.2863,0.2901,0.2887,0.2809,0.2644,0.249,0.2511,0.2338,0.2186,0.2391,0.2416,0.2465,0.2696,0.2858,0.2971,0.3054,0.3051,0.3047,0.3097,0.309,0.3093,0.3105,0.311,0.3163,0.3201,0.3205,0.3205,0.3205,0.3205,0.3205,0.3205,0.3205,0.3205,0.3205,0.3205,0.3205,0.3205,0.3205,0.3205,0.3205,0.3205,0.423,0.6373,0.5977,0.7052,0.9603,0.9175,0.92,0.9603,0.9603,0.9603,0.9607,0.9738,0.9782,0.9782,0.9782,0.9697,0.9603,0.9603,0.9603,0.9603,0.9603,0.9603,0.9603,0.0,0.0,0.0,0.0,0.0,0.0,0.0,0.0,0.0,0.0,0.0,0.0,0.0,0.0,0.0,0.0,0.0,0.0,0.0,0.0,0.1811,0.1833,0.211,0.2331,0.2477,0.2322,0.2233,0.2233,0.1666,0.1355,0.1288,0.0785,0.0714,0.099,0.0891,0.1137,0.1626,0.1667,0.1817,0.2025,0.2222,0.2289,0.228,0.228,0.0,0.0,0.0,0.0,0.0,0.0,0.0,0.0,0.2865,0.2909,0.2869,0.2661,0.2462,0.2281,0.2147,0.2131,0.2128,0.1955,0.2315,0.2697,0.2704,0.286,0.3029,0.3147,0.3127,0.3099,0.3112,0.3098,0.31,0.3113,0.3169,0.3205,0.3205,0.3205,0.3205,0.3205,0.3205,0.3205,0.3205,0.3205,0.3205,0.3205,0.3205,0.3205,0.3205,0.3205,0.3205,0.3205,0.3205,0.418,0.6224,0.5281,0.6356,0.9451,0.8474,0.8574,0.9603,0.9603,0.9603,0.9603,0.9603,0.9603,0.9603,0.9603,0.9603,0.9603,0.9603,0.9603,0.9603,0.9603,0.9603,0.9603,0.0,0.0,0.0,0.0,0.0,0.0,0.0,0.0,0.0,0.0,0.0,0.0,0.0,0.0,0.0,0.0,0.0,0.0,0.0,0.0,0.1895,0.2104,0.252,0.2858,0.3099,0.3221,0.3276,0.3276,0.1967,0.131,0.1299,0.1075,0.0958,0.0949,0.1649,0.1886,0.1789,0.2209,0.2266,0.2094,0.2236,0.2233,0.2146,0.2146,0.2121,0.0,0.0,0.0,0.0,0.0,0.0,0.0,0.2893,0.2933,0.2933,0.2668,0.2536,0.2409,0.2162,0.2031,0.1977,0.2043,0.2346,0.2658,0.2831,0.2922,0.3015,0.3032,0.3072,0.3115,0.3175,0.3136,0.3116,0.3177,0.3197,0.3205,0.3205,0.3205,0.3205,0.3205,0.3205,0.3205,0.3205,0.3205,0.3205,0.3205,0.3205,0.3205,0.3205,0.3205,0.3205,0.3205,0.3205,0.3831,0.5133,0.491,0.5982,0.8347,0.8099,0.8574,0.9603,0.9603,0.9603,0.9603,0.9603,0.9603,0.9603,0.9603,0.9603,0.9603,0.9603,0.9603,0.9603,0.9603,0.9603,0.9603,0.0,0.0,0.0,0.0,0.0,0.0,0.0,0.0,0.0,0.0,0.0,0.0,0.0,0.0,0.0,0.0,0.0,0.0,0.0,0.0,0.0,0.2428,0.2735,0.3027,0.3289,0.3432,0.3501,0.3501,0.2346,0.1811,0.1869,0.1574,0.1446,0.1497,0.1988,0.2247,0.2335,0.2418,0.2433,0.2391,0.2398,0.2355,0.2297,0.2365,0.2352,0.2292,0.2292,0.0,0.0,0.0,0.0,0.0,0.0,0.0,0.2747,0.241,0.2306,0.2256,0.2025,0.1905,0.1906,0.2098,0.2334,0.257,0.2804,0.2899,0.2971,0.2998,0.3055,0.3106,0.3138,0.3117,0.3106,0.3138,0.3144,0.3154,0.3158,0.3162,0.3154,0.3159,0.3162,0.3162,0.3162,0.3189,0.3205,0.3205,0.3205,0.3205,0.3205,0.3205,0.3205,0.3205,0.3205,0.3707,0.4784,0.4809,0.5882,0.7996,0.7996,0.8574,0.9603,0.9603,0.9603,0.9603,0.9603,0.9603,0.9603,0.9603,0.9603,0.9603,0.9603,0.9603,0.9603,0.9603,0.9603,0.9603,0.0,0.0,0.0,0.0,0.0,0.0,0.0,0.0,0.0,0.0,0.0,0.0,0.0,0.0,0.0,0.0,0.0,0.0,0.0,0.0,0.0,0.2752,0.2894,0.3081,0.3308,0.3369,0.3387,0.3364,0.2726,0.2489,0.2611,0.2089,0.1958,0.2132,0.2208,0.2472,0.2838,0.251,0.2486,0.2655,0.2542,0.2501,0.2512,0.2625,0.2601,0.2501,0.2501,0.259,0.2696,0.2641,0.0,0.0,0.0,0.0,0.248,0.2109,0.2057,0.2076,0.1864,0.1812,0.1892,0.2144,0.2306,0.2455,0.2687,0.2822,0.2894,0.2964,0.303,0.3084,0.3094,0.3088,0.3084,0.3095,0.3097,0.3091,0.3092,0.3104,0.3092,0.3094,0.31,0.3104,0.309,0.3161,0.3194,0.3205,0.3205,0.3205,0.3205,0.3205,0.3205,0.3205,0.3205,0.3626,0.4487,0.4687,0.5745,0.7673,0.802,0.8666,0.951,0.951,0.9547,0.9603,0.9603,0.9603,0.9603,0.9603,0.9603,0.9603,0.9603,0.9603,0.9603,0.9603,0.9603,0.9603,0.0,0.0,0.0,0.0,0.0,0.0,0.0,0.0,0.0,0.0,0.0,0.0,0.0,0.0,0.0,0.0,0.0,0.0,0.2421,0.0,0.0,0.3037,0.3179,0.3295,0.3387,0.3399,0.3339,0.3225,0.3012,0.0,0.0,0.0,0.0,0.2295,0.2637,0.2764,0.2726,0.2669,0.2603,0.2525,0.2509,0.2501,0.2503,0.252,0.0,0.2501,0.2501,0.259,0.2662,0.243,0.2437,0.0,0.0,0.0,0.2299,0.2071,0.2085,0.213,0.1864,0.1887,0.2015,0.2163,0.2293,0.2422,0.2527,0.2676,0.2819,0.2827,0.2916,0.3033,0.3087,0.3052,0.3034,0.3088,0.3097,0.3099,0.3108,0.3102,0.3099,0.3108,0.3109,0.3106,0.311,0.3098,0.315,0.3201,0.3205,0.3205,0.3205,0.3205,0.3205,0.3205,0.3205,0.3229,0.3323,0.4202,0.5206,0.638,0.8117,0.9024,0.9169,0.9169,0.9312,0.9603,0.9603,0.9603,0.9603,0.9603,0.9603,0.9603,0.9603,0.9603,0.9603,0.9603,0.9603,0.9603,0.0,0.0,0.0,0.0,0.0,0.0,0.0,0.0,0.0,0.0,0.0,0.0,0.0,0.0,0.0,0.2478,0.2548,0.2659,0.2827,0.2945,0.3074,0.3202,0.3232,0.3292,0.3394,0.3251,0.3148,0.3089,0.0,0.0,0.0,0.2867,0.2752,0.0,0.0,0.0,0.2856,0.2753,0.2663,0.2594,0.245,0.2389,0.2394,0.0,0.0,0.0,0.0,0.0,0.2546,0.2275,0.2227,0.2241,0.2007,0.0,0.0,0.0,0.1839,0.1906,0.1822,0.1873,0.1972,0.2062,0.2196,0.2322,0.2412,0.2548,0.2659,0.2783,0.2846,0.2901,0.2986,0.2975,0.2965,0.2993,0.2997,0.3008,0.304,0.3016,0.301,0.3041,0.3044,0.3069,0.3107,0.3089,0.3113,0.3151,0.3149,0.3153,0.3153,0.3153,0.3153,0.3153,0.3153,0.3382,0.388,0.4908,0.6219,0.7795,0.8571,0.8999,0.9092,0.8991,0.9137,0.9498,0.9498,0.9535,0.9603,0.9603,0.9603,0.9603,0.9603,0.9603,0.9603,0.9603,0.9603,0.9603,0.0,0.0,0.0,0.0,0.0,0.0,0.0,0.0,0.0,0.0,0.0,0.0,0.0,0.0,0.0,0.0,0.2896,0.3016,0.3171,0.3158,0.3206,0.3314,0.3279,0.3263,0.3292,0.3101,0.299,0.297,0.0,0.0,0.3206,0.3206,0.3238,0.0,0.3233,0.3148,0.0,0.0,0.2743,0.2676,0.244,0.2311,0.0,0.0,0.0,0.0,0.0,0.242,0.2386,0.213,0.2052,0.2012,0.1777,0.1729,0.0,0.0,0.0,0.1719,0.1781,0.1843,0.1889,0.1965,0.206,0.2179,0.2294,0.2381,0.2489,0.2659,0.2715,0.2778,0.2838,0.2875,0.2897,0.2897,0.2897,0.2911,0.2976,0.2923,0.2912,0.2978,0.2983,0.3007,0.3068,0.3073,0.3074,0.3088,0.3099,0.3097,0.3097,0.3097,0.3097,0.3097,0.3097,0.3537,0.4456,0.5717,0.7237,0.8962,0.8824,0.8828,0.8958,0.882,0.895,0.9315,0.9384,0.9482,0.9603,0.9603,0.9603,0.9603,0.9603,0.9603,0.9603,0.9603,0.9603,0.9603,0.0,0.0,0.0,0.0,0.0,0.0,0.0,0.0,0.0,0.0,0.0,0.0,0.3077,0.3077,0.3077,0.3077,0.3084,0.3174,0.3372,0.3327,0.3321,0.3389,0.3385,0.0,0.3023,0.3012,0.297,0.0,0.0,0.0,0.3206,0.3206,0.3341,0.3569,0.3309,0.3191,0.3177,0.0,0.0,0.2687,0.2549,0.2333,0.0,0.0,0.0,0.0,0.0,0.2213,0.218,0.1983,0.1913,0.1852,0.152,0.1425,0.1438,0.0,0.0,0.0,0.1781,0.18,0.1815,0.1887,0.1965,0.203,0.2099,0.2218,0.2326,0.2406,0.253,0.2629,0.2691,0.2819,0.2897,0.2897,0.2897,0.2897,0.2901,0.2899,0.2899,0.2901,0.2901,0.2923,0.3004,0.301,0.3034,0.3097,0.3098,0.3097,0.3097,0.3097,0.3097,0.3097,0.3097,0.3513,0.4386,0.6172,0.7587,0.8619,0.8606,0.8606,0.8619,0.8606,0.8798,0.912,0.9307,0.9482,0.9603,0.9603,0.9603,0.9603,0.9603,0.9603,0.9603,0.9603,0.9603,0.9603,0.0,0.0,0.0,0.0,0.0,0.0,0.0,0.0,0.0,0.0,0.0,0.0,0.0,0.3426,0.3426,0.3426,0.3338,0.3319,0.3393,0.3295,0.3253,0.327,0.3192,0.3101,0.3001,0.3007,0.2993,0.0,0.0,0.3254,0.3325,0.3417,0.3512,0.3591,0.3409,0.3322,0.3314,0.3183,0.0,0.2739,0.2527,0.2275,0.0,0.0,0.2037,0.2041,0.2068,0.2077,0.204,0.1793,0.1707,0.169,0.1569,0.1499,0.1481,0.1541,0.1656,0.177,0.1792,0.1797,0.1802,0.1837,0.1885,0.1959,0.2022,0.2102,0.2199,0.2318,0.241,0.2495,0.2616,0.2702,0.2779,0.2779,0.2779,0.2779,0.2779,0.2812,0.2838,0.2838,0.2872,0.2919,0.2998,0.2971,0.2974,0.3033,0.3004,0.2983,0.2983,0.2983,0.2983,0.2983,0.3437,0.4369,0.5803,0.7185,0.7982,0.8215,0.8476,0.8529,0.8415,0.8533,0.872,0.893,0.9112,0.9356,0.9603,0.9603,0.9603,0.9603,0.9603,0.9603,0.9603,0.9603,0.9603,0.9603,0.0,0.0,0.0,0.0,0.0,0.0,0.0,0.0,0.0,0.0,0.0,0.0,0.0,0.0,0.36,0.36,0.352,0.347,0.347,0.3389,0.3317,0.3271,0.3187,0.3118,0.3069,0.3061,0.3068,0.0,0.0,0.0,0.0,0.3498,0.3503,0.3424,0.3333,0.3299,0.0,0.0,0.2922,0.2577,0.2356,0.2107,0.1869,0.1869,0.1869,0.1873,0.1896,0.1904,0.1866,0.1697,0.1633,0.163,0.1609,0.1575,0.1542,0.0,0.1703,0.1771,0.1792,0.1797,0.1797,0.1797,0.184,0.1878,0.192,0.199,0.2058,0.2184,0.2277,0.2361,0.2444,0.2512,0.2598,0.2679,0.2692,0.2692,0.2692,0.2749,0.2774,0.2774,0.2809,0.285,0.2888,0.2857,0.285,0.2888,0.2875,0.2866,0.2866,0.2866,0.2989,0.3227,0.4039,0.5159,0.6578,0.767,0.8134,0.7995,0.8346,0.8431,0.8296,0.8505,0.8684,0.881,0.9015,0.9267,0.9543,0.9579,0.9603,0.9603,0.9603,0.9603,0.9603,0.9603,0.9603,0.9603,0.0,0.0,0.0,0.0,0.0,0.0,0.0,0.0,0.0,0.3209,0.0,0.0,0.0,0.0,0.0,0.3602,0.3602,0.3589,0.3589,0.3589,0.3524,0.3396,0.3396,0.3334,0.3206,0.3209,0.3211,0.3211,0.3201,0.3264,0.0,0.0,0.3277,0.3088,0.3088,0.3088,0.3067,0.3021,0.2686,0.2191,0.2055,0.1849,0.1609,0.1609,0.1609,0.1615,0.1674,0.1708,0.1708,0.1708,0.1708,0.1686,0.1624,0.0,0.0,0.0,0.0,0.0,0.0,0.0,0.0,0.1797,0.1797,0.1797,0.1797,0.1854,0.191,0.1987,0.2098,0.2201,0.2193,0.2253,0.2387,0.2639,0.2681,0.2684,0.2681,0.2685,0.2688,0.2687,0.2691,0.2692,0.2692,0.2692,0.2692,0.2692,0.2768,0.2802,0.2802,0.2802,0.3158,0.392,0.4872,0.5785,0.6627,0.7544,0.7983,0.7979,0.8195,0.8288,0.8288,0.8501,0.868,0.8801,0.9015,0.9217,0.9408,0.9551,0.9603,0.9603,0.9603,0.9603,0.9603,0.9603,0.9603,0.9603,0.0,0.0,0.0,0.0,0.0,0.0,0.0,0.0,0.0,0.0,0.0,0.0,0.3544,0.358,0.3602,0.3602,0.3511,0.3461,0.3461,0.3371,0.3296,0.3256,0.3256,0.3243,0.3206,0.3293,0.3352,0.3352,0.3196,0.3154,0.3183,0.2982,0.286,0.0,0.2814,0.2673,0.2462,0.269,0.2554,0.2192,0.216,0.199,0.1747,0.1747,0.1747,0.1749,0.1766,0.1773,0.1773,0.1773,0.1773,0.1762,0.1687,0.0,0.0,0.0,0.0,0.0,0.1792,0.0,0.0,0.0,0.0,0.0,0.1797,0.1809,0.1851,0.1909,0.1998,0.2073,0.2119,0.218,0.2261,0.2329,0.2411,0.2462,0.2421,0.2545,0.261,0.2565,0.2639,0.2692,0.2692,0.2692,0.2692,0.2692,0.2707,0.2718,0.2718,0.2718,0.3359,0.4727,0.5029,0.5853,0.7234,0.7661,0.7784,0.7634,0.8098,0.8219,0.8101,0.8444,0.8615,0.8676,0.8962,0.9125,0.9213,0.9478,0.9603,0.9603,0.9603,0.9603,0.9603,0.9603,0.9603,0.9603,0.0,0.0,0.0,0.0,0.0,0.0,0.0,0.0,0.0,0.0,0.0,0.0,0.3593,0.3599,0.3599,0.3599,0.353,0.3478,0.3478,0.341,0.3371,0.3371,0.3237,0.3156,0.3156,0.3131,0.3112,0.3112,0.2994,0.2938,0.2924,0.2772,0.2621,0.2493,0.0,0.0,0.0,0.2244,0.2216,0.2032,0.2032,0.1936,0.1797,0.1797,0.1797,0.1797,0.1797,0.1812,0.1843,0.1805,0.1797,0.179,0.1755,0.1768,0.0,0.0,0.0,0.0,0.0,0.0,0.0,0.1797,0.0,0.0,0.1797,0.1797,0.1807,0.1854,0.1907,0.1975,0.2012,0.2069,0.2111,0.2111,0.2204,0.2277,0.2259,0.239,0.2458,0.2422,0.2481,0.2524,0.2524,0.2565,0.2578,0.2578,0.2625,0.2654,0.2654,0.2654,0.3401,0.5014,0.5051,0.5839,0.7484,0.7609,0.765,0.7621,0.7992,0.8158,0.8138,0.8456,0.859,0.8602,0.8861,0.9023,0.912,0.9401,0.9559,0.9603,0.9603,0.9603,0.9603,0.9603,0.9603,0.9603,0.0,0.0,0.0,0.0,0.0,0.0,0.0,0.0,0.0,0.0,0.3343,0.3463,0.3586,0.3569,0.3541,0.3541,0.3513,0.3499,0.3499,0.3499,0.3499,0.3499,0.3216,0.3061,0.3061,0.2828,0.2705,0.2705,0.2663,0.2649,0.2649,0.2607,0.2437,0.2156,0.0,0.0,0.0,0.1797,0.1797,0.1797,0.1797,0.1797,0.1797,0.1797,0.1797,0.1797,0.1797,0.1844,0.1878,0.1813,0.1797,0.1797,0.1797,0.1797,0.1797,0.1797,0.1797,0.0,0.0,0.0,0.0,0.1798,0.1807,0.0,0.18,0.1802,0.1805,0.1798,0.1851,0.1887,0.1887,0.1931,0.1983,0.1983,0.2035,0.2099,0.2165,0.2237,0.2297,0.2297,0.2285,0.2291,0.2299,0.2363,0.2391,0.2391,0.2497,0.2583,0.2591,0.2671,0.3423,0.4949,0.5082,0.5893,0.7484,0.7503,0.7585,0.7771,0.7923,0.8101,0.8268,0.8497,0.859,0.8598,0.8747,0.8926,0.9112,0.9307,0.9486,0.9603,0.9603,0.9603,0.9603,0.9603,0.9603,0.9603,0.0,0.0,0.0,0.0,0.0,0.0,0.0,0.0,0.0,0.3365,0.3474,0.3572,0.3597,0.3357,0.3202,0.3202,0.2996,0.2872,0.2872,0.2872,0.2872,0.2872,0.2816,0.2772,0.2772,0.2733,0.2705,0.2705,0.2437,0.2296,0.2296,0.2076,0.1937,0.188,0.0,0.0,0.0,0.1797,0.1797,0.1797,0.1797,0.1797,0.1797,0.1797,0.1797,0.1797,0.1797,0.1804,0.1812,0.1801,0.1797,0.1797,0.1797,0.1797,0.1797,0.1797,0.1797,0.1797,0.1797,0.1844,0.1869,0.1808,0.1882,0.0,0.1819,0.1847,0.1866,0.1807,0.1805,0.1813,0.1813,0.1823,0.1845,0.1845,0.1893,0.1957,0.2031,0.2136,0.2224,0.2224,0.2216,0.2246,0.2295,0.2308,0.2315,0.2315,0.2397,0.2456,0.2526,0.3194,0.4008,0.4965,0.5622,0.6453,0.7484,0.7503,0.7519,0.756,0.7862,0.8012,0.8081,0.8435,0.859,0.8598,0.8747,0.8926,0.9112,0.9307,0.9486,0.9603,0.9603,0.9603,0.9603,0.9603,0.9603,0.9603,0.0,0.0,0.0,0.0,0.0,0.0,0.0,0.0,0.0,0.3271,0.3187,0.3151,0.3151,0.2996,0.2898,0.0,0.2772,0.2705,0.2705,0.2705,0.2705,0.2705,0.2535,0.2451,0.2451,0.2327,0.2244,0.2244,0.209,0.2004,0.2004,0.1866,0.1797,0.1797,0.1797,0.1797,0.1797,0.1797,0.1797,0.1797,0.1797,0.1797,0.1797,0.1797,0.1797,0.1797,0.1797,0.1797,0.1801,0.1844,0.1834,0.1797,0.1797,0.1797,0.1797,0.1797,0.1797,0.1797,0.1797,0.1832,0.1854,0.1854,0.1877,0.0,0.0,0.1854,0.1854,0.1854,0.1816,0.1805,0.1848,0.1816,0.1797,0.1797,0.1822,0.1865,0.1895,0.2019,0.2095,0.2095,0.2134,0.2166,0.2196,0.2237,0.2267,0.2297,0.2324,0.2372,0.2402,0.325,0.411,0.4931,0.5758,0.661,0.7484,0.7503,0.7593,0.7748,0.7927,0.8109,0.8296,0.8505,0.859,0.8594,0.868,0.8848,0.9096,0.9092,0.9303,0.9603,0.9603,0.9603,0.9603,0.9603,0.9603,0.9603,0.2986,0.0,0.0,0.0,0.0,0.0,0.0,0.0,0.0,0.3063,0.2828,0.2705,0.2705,0.2649,0.2605,0.0,0.0,0.2523,0.2523,0.2523,0.2523,0.2523,0.227,0.2128,0.2128,0.1908,0.1797,0.1797,0.1797,0.1797,0.1797,0.1797,0.1783,0.1769,0.1783,0.1783,0.1769,0.1783,0.179,0.1758,0.1758,0.1785,0.1813,0.1813,0.1822,0.1844,0.1817,0.1807,0.1804,0.1865,0.185,0.1797,0.1797,0.1797,0.1797,0.1797,0.1797,0.18,0.1811,0.1836,0.1854,0.1888,0.1878,0.1866,0.0,0.0,0.0,0.1873,0.1843,0.1811,0.1871,0.1843,0.1793,0.1782,0.1789,0.1793,0.1781,0.1887,0.1973,0.1984,0.2028,0.2064,0.2076,0.2134,0.2193,0.2276,0.2289,0.2345,0.2496,0.3376,0.426,0.5081,0.5945,0.6754,0.7503,0.7503,0.7662,0.7963,0.8,0.8191,0.8537,0.8574,0.859,0.859,0.859,0.8773,0.9035,0.8858,0.9077,0.9502,0.9539,0.9571,0.9603,0.9603,0.9603,0.9603,0.2971,0.3092,0.0,0.0,0.0,0.0,0.0,0.0,0.0,0.2747,0.2719,0.2705,0.2705,0.2437,0.2254,0.0,0.2032,0.1895,0.1895,0.1895,0.1895,0.1895,0.1867,0.1839,0.1839,0.1811,0.1797,0.1797,0.1797,0.1797,0.1797,0.1797,0.1741,0.1628,0.1741,0.1741,0.1628,0.1755,0.1729,0.1627,0.1627,0.1728,0.1887,0.1887,0.192,0.1975,0.1906,0.1854,0.1798,0.1805,0.1802,0.1797,0.1797,0.1797,0.1797,0.1797,0.1797,0.1808,0.1873,0.1926,0.197,0.1907,0.1988,0.2024,0.1855,0.0,0.1874,0.1815,0.0,0.18,0.1805,0.0,0.0,0.1725,0.1762,0.1778,0.1725,0.1775,0.185,0.19,0.1913,0.1954,0.2008,0.201,0.2074,0.2208,0.2204,0.2531,0.3228,0.4057,0.4927,0.5839,0.6656,0.7213,0.7499,0.7503,0.7605,0.7829,0.7943,0.8122,0.8346,0.8513,0.859,0.859,0.859,0.8696,0.8826,0.8805,0.8931,0.9173,0.9352,0.9486,0.9603,0.9603,0.9603,0.9603,0.2704,0.2752,0.0,0.0,0.0,0.0,0.0,0.0,0.2465,0.2465,0.2334,0.2249,0.2292,0.2127,0.2047,0.2086,0.1938,0.186,0.186,0.1815,0.0,0.1797,0.1797,0.1797,0.1797,0.1797,0.1797,0.1797,0.1797,0.1797,0.1797,0.1727,0.1657,0.16,0.1543,0.1473,0.1431,0.1614,0.1674,0.1651,0.1622,0.1701,0.1828,0.1676,0.1692,0.18,0.1656,0.1665,0.172,0.1604,0.1614,0.169,0.169,0.174,0.1797,0.1797,0.1797,0.1802,0.184,0.1866,0.1887,0.1893,0.191,0.1913,0.187,0.1854,0.185,0.1858,0.0,0.0,0.0,0.0,0.0,0.0,0.1781,0.1788,0.1763,0.1781,0.1807,0.1844,0.1876,0.192,0.1997,0.2325,0.2411,0.2164,0.2461,0.2852,0.3255,0.4129,0.4965,0.5738,0.6709,0.7242,0.7334,0.7435,0.7646,0.7906,0.7979,0.8166,0.8476,0.8554,0.859,0.859,0.859,0.8688,0.8789,0.8714,0.884,0.9104,0.9201,0.9335,0.9482,0.9563,0.9603,0.9603,0.2322,0.0,0.0,0.0,0.0,0.0,0.0,0.2317,0.2197,0.2218,0.2041,0.1954,0.1998,0.1903,0.187,0.1913,0.182,0.1765,0.1794,0.1761,0.1722,0.1694,0.1721,0.1741,0.1741,0.1685,0.1685,0.1741,0.1685,0.1657,0.1657,0.1558,0.1501,0.1459,0.1347,0.1283,0.128,0.1465,0.156,0.1589,0.1543,0.156,0.1593,0.1499,0.1541,0.1622,0.1484,0.1507,0.1588,0.1451,0.1461,0.1539,0.1539,0.1617,0.1688,0.1688,0.1688,0.1691,0.172,0.1741,0.1782,0.1836,0.1833,0.1841,0.1867,0.1852,0.1841,0.1867,0.1852,0.0,0.0,0.0,0.1792,0.1775,0.0,0.1792,0.1775,0.1786,0.1797,0.1797,0.1988,0.2144,0.2212,0.2743,0.2941,0.2586,0.2989,0.3377,0.3701,0.4414,0.5181,0.5964,0.6739,0.7196,0.7274,0.7419,0.7663,0.7991,0.7991,0.8207,0.859,0.859,0.859,0.859,0.859,0.8659,0.8743,0.8639,0.8769,0.9027,0.908,0.9225,0.9424,0.9559,0.9603,0.9603,0.1877,0.2296,0.0,0.0,0.2437,0.2151,0.1957,0.1924,0.1932,0.2008,0.1999,0.2001,0.2002,0.1832,0.1712,0.1717,0.1537,0.1452,0.1507,0.1567,0.1546,0.1413,0.1542,0.16,0.16,0.1417,0.1417,0.16,0.1417,0.1319,0.1319,0.1319,0.1234,0.1122,0.1248,0.1257,0.1207,0.1354,0.1373,0.1305,0.1305,0.1228,0.1158,0.1476,0.1549,0.1511,0.1495,0.1455,0.1406,0.1406,0.1405,0.1404,0.1404,0.1403,0.1418,0.1418,0.1418,0.1425,0.1496,0.1602,0.1705,0.1706,0.1802,0.1878,0.1812,0.1855,0.1878,0.1811,0.1856,0.1877,0.1809,0.1798,0.1778,0.0,0.1759,0.0,0.0,0.176,0.1797,0.1797,0.2312,0.2707,0.2767,0.3268,0.3623,0.3737,0.3816,0.4207,0.5001,0.5258,0.5861,0.6914,0.6992,0.7163,0.7491,0.7499,0.7663,0.7991,0.7991,0.8207,0.859,0.859,0.859,0.859,0.859,0.859,0.8598,0.859,0.8692,0.8826,0.9027,0.9225,0.9424,0.9559,0.9603,0.9603,0.0,0.0,0.0,0.2105,0.2006,0.1928,0.1901,0.198,0.2006,0.1938,0.1933,0.1923,0.1865,0.1775,0.1698,0.17,0.1589,0.1517,0.1494,0.1479,0.1444,0.14,0.14,0.1418,0.1466,0.1364,0.1362,0.1465,0.1362,0.1305,0.1305,0.1206,0.1136,0.1094,0.1052,0.1028,0.1016,0.1194,0.1283,0.1308,0.1301,0.1217,0.1109,0.1227,0.1303,0.1359,0.1259,0.1285,0.1324,0.1226,0.126,0.1337,0.1337,0.1366,0.1406,0.1406,0.1406,0.1439,0.1592,0.1661,0.1725,0.1864,0.1895,0.1891,0.1871,0.1881,0.188,0.1809,0.1856,0.1878,0.1808,0.1797,0.0,0.0,0.0,0.1928,0.0,0.272,0.2838,0.2448,0.2571,0.286,0.3288,0.3496,0.3637,0.3726,0.3842,0.4248,0.5058,0.53,0.5827,0.6773,0.6926,0.7106,0.7291,0.7423,0.7663,0.7991,0.7991,0.8207,0.859,0.859,0.859,0.859,0.859,0.859,0.8598,0.8686,0.8767,0.8826,0.9176,0.9351,0.9424,0.9559,0.9603,0.9603,0.1797,0.1813,0.1841,0.1841,0.1859,0.1893,0.1968,0.2001,0.201,0.1944,0.1865,0.1826,0.1797,0.1691,0.163,0.1671,0.1546,0.1447,0.1389,0.137,0.1334,0.126,0.1264,0.1282,0.1321,0.124,0.1234,0.1334,0.1219,0.1157,0.1157,0.1072,0.1031,0.1028,0.0942,0.0907,0.0944,0.1067,0.1175,0.1228,0.1234,0.1176,0.1092,0.1092,0.116,0.121,0.1126,0.116,0.121,0.1126,0.1164,0.1229,0.1229,0.1262,0.129,0.129,0.129,0.1322,0.1448,0.1562,0.1643,0.1724,0.1791,0.1823,0.1823,0.1854,0.1839,0.1783,0.1859,0.1896,0.1753,0.177,0.1866,0.0,0.0,0.0,0.0,0.3361,0.353,0.3361,0.3333,0.3486,0.3876,0.4098,0.4219,0.4268,0.4481,0.4844,0.5362,0.5616,0.6086,0.6777,0.6931,0.7106,0.7299,0.7427,0.7663,0.7991,0.7991,0.8207,0.859,0.859,0.859,0.859,0.859,0.859,0.8598,0.8686,0.8804,0.8942,0.9197,0.9364,0.949,0.9559,0.9603,0.9603,0.1791,0.1837,0.1875,0.1875,0.1937,0.2012,0.2069,0.1965,0.1917,0.1974,0.1819,0.1713,0.1779,0.161,0.1518,0.1585,0.1348,0.1195,0.1189,0.1248,0.1198,0.1009,0.1127,0.1188,0.1188,0.1065,0.1065,0.1191,0.1005,0.09,0.09,0.0901,0.0903,0.09,0.09,0.0948,0.1001,0.1001,0.1033,0.1092,0.1092,0.1092,0.1092,0.1092,0.1092,0.1092,0.1092,0.1092,0.1092,0.1092,0.1092,0.1092,0.1092,0.1092,0.1092,0.1092,0.1092,0.1109,0.1109,0.1302,0.1469,0.1343,0.1533,0.1729,0.1698,0.18,0.1868,0.1748,0.1925,0.2017,0.1746,0.1809,0.2079,0.0,0.0,0.0,0.3527,0.3652,0.3893,0.4442,0.4522,0.4546,0.4546,0.4977,0.527,0.5297,0.5641,0.5873,0.5903,0.6233,0.6591,0.6997,0.7014,0.7171,0.7499,0.7511,0.7671,0.7991,0.7999,0.8215,0.859,0.859,0.859,0.859,0.859,0.859,0.859,0.8611,0.8814,0.91,0.9116,0.9332,0.9603,0.9603,0.9603,0.9603,0.1731,0.1666,0.1605,0.1605,0.1743,0.1804,0.1673,0.1704,0.1737,0.171,0.1657,0.1611,0.1592,0.1483,0.1409,0.1381,0.1322,0.1241,0.1133,0.1135,0.1109,0.1008,0.0979,0.1028,0.1121,0.1,0.0962,0.1054,0.1007,0.0977,0.0976,0.0969,0.0969,0.0977,0.0977,0.0982,0.1001,0.1001,0.1033,0.1092,0.1092,0.1092,0.1092,0.1092,0.1092,0.1092,0.1092,0.1092,0.1092,0.1092,0.1092,0.1092,0.1092,0.1092,0.1092,0.1092,0.1092,0.1126,0.1227,0.1304,0.1381,0.1498,0.1953,0.2227,0.1671,0.2415,0.301,0.2287,0.2824,0.3312,0.2994,0.3128,0.3306,0.3363,0.3752,0.3932,0.3641,0.4336,0.481,0.4666,0.4909,0.5091,0.5091,0.4853,0.4867,0.527,0.5254,0.5427,0.5873,0.6363,0.6734,0.7001,0.7104,0.7261,0.7499,0.7638,0.7817,0.7995,0.8154,0.8362,0.859,0.859,0.859,0.859,0.859,0.859,0.8611,0.8875,0.9015,0.9125,0.9364,0.9522,0.9603,0.9603,0.9603,0.9603,0.1629,0.1593,0.1566,0.1464,0.1597,0.1676,0.1602,0.1604,0.1613,0.1596,0.1522,0.1456,0.1416,0.1396,0.1386,0.1344,0.1326,0.1267,0.1187,0.1164,0.1113,0.1054,0.1003,0.1002,0.1057,0.1004,0.1002,0.1052,0.1006,0.0992,0.1008,0.0994,0.0995,0.0992,0.0992,0.1008,0.1052,0.1052,0.1061,0.1094,0.1107,0.1095,0.0,0.1128,0.115,0.115,0.115,0.1132,0.1092,0.1092,0.1092,0.1095,0.1108,0.1095,0.1098,0.1128,0.115,0.1217,0.1596,0.1761,0.1893,0.2223,0.2652,0.2883,0.2474,0.3013,0.3489,0.3049,0.3457,0.3846,0.3652,0.3789,0.3966,0.4065,0.4583,0.4829,0.4401,0.4894,0.5223,0.4985,0.5235,0.5396,0.5305,0.5032,0.4977,0.527,0.536,0.5548,0.5888,0.6412,0.6783,0.7001,0.7304,0.7524,0.7621,0.7882,0.8061,0.8134,0.8239,0.8411,0.859,0.859,0.859,0.859,0.859,0.8631,0.8694,0.8893,0.9068,0.9262,0.9494,0.9603,0.9603,0.9603,0.9603,0.9603,0.15,0.1551,0.1576,0.141,0.1478,0.1591,0.1657,0.1571,0.1518,0.1586,0.1429,0.1316,0.1325,0.1361,0.1402,0.141,0.1339,0.1294,0.1305,0.1244,0.1185,0.1101,0.1094,0.1081,0.1007,0.1059,0.1088,0.1092,0.1035,0.1007,0.1006,0.1012,0.1014,0.1007,0.1007,0.1039,0.1099,0.1099,0.1101,0.1107,0.1117,0.1109,0.1112,0.1174,0.1203,0.1203,0.1203,0.1168,0.1121,0.1121,0.1121,0.1109,0.1119,0.1109,0.1132,0.1177,0.1203,0.1323,0.1911,0.2197,0.2448,0.2967,0.3305,0.3505,0.3492,0.3641,0.3785,0.3858,0.4018,0.4156,0.4133,0.4241,0.4451,0.4797,0.5293,0.5581,0.5404,0.5363,0.5355,0.5379,0.5486,0.0,0.5359,0.5333,0.5333,0.5333,0.5683,0.5915,0.5936,0.6453,0.6815,0.7001,0.7494,0.7788,0.7833,0.8118,0.8276,0.8346,0.8346,0.8431,0.859,0.859,0.859,0.859,0.8615,0.8682,0.8801,0.885,0.9088,0.9433,0.9563,0.9603,0.9603,0.9603,0.9603,0.9603,0.1302,0.1268,0.1279,0.1241,0.1298,0.1365,0.1451,0.144,0.1431,0.1513,0.1495,0.1461,0.1468,0.1432,0.1402,0.141,0.1339,0.1294,0.1305,0.1284,0.1222,0.1099,0.1106,0.109,0.1085,0.1034,0.1052,0.1092,0.1088,0.1085,0.1085,0.1079,0.108,0.1085,0.1085,0.1085,0.1096,0.1096,0.1127,0.1187,0.1174,0.1176,0.1177,0.1201,0.1203,0.1203,0.1203,0.1196,0.1187,0.1187,0.1187,0.1187,0.1175,0.1176,0.1178,0.1201,0.1203,0.1219,0.1341,0.1393,0.1608,0.2354,0.3031,0.3495,0.3435,0.4353,0.5033,0.4359,0.4922,0.5519,0.5409,0.5491,0.5615,0.5678,0.5779,0.5827,0.5799,0.5646,0.561,0.5778,0.5535,0.5404,0.5541,0.5553,0.5553,0.5553,0.5766,0.5964,0.6138,0.6649,0.6955,0.7006,0.7367,0.769,0.7967,0.8028,0.8215,0.8541,0.8541,0.8558,0.859,0.859,0.859,0.8598,0.8714,0.8769,0.8822,0.916,0.9413,0.9559,0.9591,0.9603,0.9603,0.9603,0.9603,0.9603,0.1276,0.1261,0.1272,0.1302,0.1357,0.1416,0.1497,0.1533,0.1536,0.151,0.1467,0.144,0.1455,0.1454,0.1443,0.1457,0.1382,0.1342,0.1349,0.1311,0.125,0.1152,0.1124,0.1099,0.1099,0.107,0.1069,0.1099,0.11,0.1092,0.1092,0.1092,0.1092,0.1093,0.1092,0.1108,0.1104,0.1138,0.1171,0.1204,0.1202,0.1208,0.121,0.1246,0.1251,0.1251,0.1251,0.1251,0.1246,0.1214,0.1203,0.1206,0.1203,0.1208,0.1211,0.1247,0.1251,0.1323,0.1678,0.2079,0.2571,0.3356,0.4122,0.4683,0.4658,0.5201,0.5619,0.5292,0.5645,0.6011,0.6049,0.6113,0.6132,0.6069,0.6053,0.602,0.5915,0.5811,0.575,0.5746,0.5662,0.561,0.5598,0.5697,0.5713,0.5602,0.5783,0.5996,0.6183,0.6711,0.7006,0.7006,0.7589,0.7939,0.7991,0.8271,0.8475,0.859,0.859,0.859,0.859,0.859,0.8639,0.8702,0.8761,0.8926,0.914,0.9388,0.9547,0.9603,0.9603,0.9603,0.9603,0.9603,0.9603,0.9603,0.134,0.1344,0.1358,0.1433,0.148,0.1546,0.1601,0.1647,0.1643,0.1546,0.1483,0.1441,0.1441,0.1474,0.1504,0.1504,0.1431,0.1397,0.1391,0.134,0.1279,0.1223,0.1151,0.112,0.1113,0.1124,0.1124,0.1113,0.11,0.1099,0.1092,0.1099,0.1106,0.1113,0.112,0.1117,0.1124,0.1184,0.1217,0.1224,0.1212,0.1221,0.1224,0.1287,0.1296,0.1296,0.1296,0.1296,0.1289,0.1239,0.1222,0.1227,0.1214,0.1221,0.1226,0.1289,0.1296,0.1448,0.2145,0.28,0.3504,0.4454,0.5164,0.5669,0.5803,0.585,0.59,0.607,0.6129,0.6217,0.6418,0.6428,0.6371,0.6261,0.6237,0.6188,0.6033,0.5981,0.5903,0.5742,0.5838,0.5831,0.5685,0.5803,0.5858,0.5734,0.5875,0.6049,0.6224,0.6731,0.7006,0.7006,0.7731,0.8101,0.8073,0.8433,0.8641,0.8643,0.8643,0.8643,0.8643,0.8684,0.8755,0.8858,0.8917,0.9116,0.9449,0.9543,0.9603,0.9603,0.9603,0.9603,0.9603,0.9603,0.9603,0.9603,0.1487,0.1488,0.1496,0.1577,0.1588,0.1602,0.1608,0.1618,0.1617,0.1581,0.1578,0.1583,0.1583,0.1535,0.1504,0.1504,0.1451,0.1397,0.1392,0.1337,0.1293,0.1295,0.1221,0.119,0.1199,0.1196,0.1196,0.1198,0.1132,0.1102,0.1093,0.1104,0.1132,0.1194,0.1197,0.1196,0.1184,0.1206,0.1243,0.1288,0.1291,0.1292,0.1293,0.1295,0.1296,0.1296,0.1296,0.1296,0.1295,0.129,0.1288,0.1288,0.1291,0.1292,0.1293,0.1295,0.1296,0.1472,0.227,0.254,0.2966,0.4566,0.5029,0.5229,0.585,0.5991,0.6003,0.609,0.6239,0.644,0.6638,0.6513,0.6395,0.6379,0.6375,0.6371,0.6355,0.6241,0.6163,0.6146,0.6004,0.5895,0.5879,0.5891,0.596,0.6134,0.6158,0.6233,0.6367,0.6784,0.7006,0.7006,0.7365,0.7804,0.826,0.8146,0.8307,0.8773,0.8773,0.8773,0.8777,0.897,0.9056,0.908,0.9262,0.9441,0.9579,0.9595,0.9603,0.9603,0.9603,0.9603,0.9603,0.9603,0.9603,0.9603,0.1511,0.1494,0.1517,0.159,0.1608,0.1613,0.1662,0.167,0.1637,0.1594,0.1607,0.1598,0.1598,0.1585,0.1551,0.151,0.148,0.145,0.1397,0.1331,0.1308,0.1306,0.1239,0.1206,0.1194,0.1158,0.1157,0.1194,0.1182,0.116,0.1165,0.116,0.1173,0.1203,0.1204,0.12,0.1194,0.125,0.1265,0.1296,0.1296,0.1296,0.1296,0.1296,0.1296,0.1296,0.1296,0.1296,0.1296,0.1296,0.1296,0.1296,0.1296,0.1296,0.1296,0.1296,0.1649,0.21,0.2413,0.3232,0.4166,0.4827,0.5395,0.5851,0.6125,0.6188,0.6182,0.6209,0.6284,0.6337,0.6333,0.6337,0.6287,0.6121,0.6275,0.637,0.6296,0.6306,0.6286,0.6204,0.6134,0.6073,0.6073,0.6073,0.6253,0.665,0.6375,0.6306,0.657,0.6853,0.7041,0.711,0.7561,0.7906,0.8122,0.8352,0.8583,0.8801,0.8934,0.8986,0.8991,0.9064,0.9176,0.9286,0.9441,0.9559,0.9603,0.9603,0.9603,0.9603,0.9603,0.9603,0.9603,0.9603,0.9603,0.962,0.1568,0.1566,0.1582,0.1634,0.1618,0.1638,0.1682,0.168,0.1641,0.1594,0.1592,0.1592,0.1592,0.1598,0.1573,0.1542,0.1512,0.1481,0.1428,0.1371,0.1326,0.1296,0.1245,0.1227,0.1193,0.1179,0.1178,0.1193,0.1209,0.1193,0.1203,0.1203,0.1217,0.1226,0.1238,0.123,0.124,0.1281,0.129,0.1291,0.13,0.1304,0.1303,0.1294,0.129,0.1309,0.13,0.1296,0.1296,0.1296,0.1296,0.1296,0.1296,0.1296,0.1355,0.1591,0.206,0.2607,0.3095,0.4107,0.5062,0.5318,0.5847,0.63,0.63,0.63,0.6327,0.6376,0.6338,0.6288,0.6253,0.6278,0.6263,0.6122,0.6302,0.6458,0.6434,0.6463,0.6469,0.6441,0.6388,0.6355,0.6355,0.6404,0.6572,0.6886,0.6621,0.6555,0.6834,0.6982,0.7108,0.7202,0.7691,0.7988,0.8093,0.8528,0.8796,0.8882,0.9088,0.9197,0.9197,0.923,0.9319,0.9466,0.9571,0.9603,0.9603,0.9603,0.9603,0.9603,0.9603,0.9603,0.9603,0.9603,0.9636,0.9721,0.1681,0.1686,0.1695,0.1698,0.1706,0.1688,0.1688,0.1637,0.1592,0.1592,0.1592,0.1592,0.1592,0.1591,0.1604,0.1598,0.1543,0.1489,0.1505,0.1445,0.1377,0.1306,0.1297,0.1273,0.1194,0.126,0.1261,0.1193,0.1192,0.1196,0.1203,0.1203,0.1234,0.13,0.129,0.1293,0.1301,0.1302,0.1302,0.1305,0.1293,0.1305,0.1302,0.1293,0.1302,0.1298,0.1307,0.1296,0.1296,0.1296,0.1296,0.1296,0.1296,0.1296,0.1453,0.2256,0.2491,0.2862,0.4516,0.4985,0.5198,0.6064,0.63,0.63,0.63,0.63,0.6354,0.656,0.6428,0.6355,0.6563,0.643,0.6355,0.6555,0.6595,0.6684,0.6948,0.6819,0.6774,0.6959,0.6811,0.6688,0.6688,0.6878,0.691,0.6712,0.6886,0.7043,0.7189,0.7202,0.7206,0.7206,0.7597,0.7951,0.8284,0.8497,0.8769,0.9096,0.9295,0.94,0.9404,0.9539,0.9599,0.9599,0.9603,0.9603,0.9603,0.9603,0.9603,0.9603,0.9603,0.9603,0.9603,0.9603,0.9734,0.9909,0.1634,0.1674,0.1684,0.1647,0.1637,0.1631,0.1631,0.1623,0.1592,0.1592,0.1592,0.1592,0.1592,0.1592,0.1571,0.1545,0.1508,0.1481,0.1431,0.1412,0.1386,0.1377,0.1329,0.1294,0.1274,0.1283,0.1291,0.1262,0.1262,0.1277,0.1267,0.1269,0.1283,0.1292,0.1305,0.1292,0.1304,0.1304,0.1292,0.1292,0.1302,0.1305,0.1305,0.1296,0.1292,0.1308,0.1299,0.1308,0.1305,0.1304,0.1296,0.1394,0.1943,0.2119,0.2294,0.3132,0.3776,0.4321,0.4849,0.5434,0.5944,0.6222,0.63,0.63,0.63,0.63,0.6319,0.6374,0.6447,0.6487,0.6417,0.6574,0.6652,0.6486,0.6655,0.6799,0.6797,0.6854,0.6856,0.6734,0.6677,0.6628,0.6628,0.6692,0.6871,0.722,0.7175,0.7145,0.7206,0.7206,0.7319,0.7601,0.7833,0.813,0.8497,0.8798,0.9067,0.9299,0.9453,0.9543,0.9543,0.9575,0.9603,0.9603,0.9603,0.9603,0.9603,0.9603,0.9603,0.9603,0.9603,0.9676,0.9803,0.9803,0.9946,1.0117,0.1596,0.1633,0.1639,0.1595,0.1592,0.1592,0.1592,0.1592,0.1592,0.1592,0.1592,0.1592,0.1592,0.1592,0.1572,0.1547,0.1509,0.1482,0.1433,0.1424,0.1401,0.1391,0.1355,0.132,0.1306,0.1309,0.13,0.1296,0.13,0.1306,0.1295,0.1294,0.1299,0.1292,0.1298,0.1312,0.1337,0.1335,0.1343,0.1343,0.1333,0.1338,0.1337,0.1347,0.1343,0.1339,0.1309,0.1292,0.13,0.1301,0.1504,0.1903,0.2723,0.3231,0.3604,0.4097,0.4611,0.5062,0.5395,0.5886,0.63,0.63,0.63,0.63,0.63,0.63,0.63,0.63,0.6451,0.6531,0.6337,0.6626,0.6798,0.6522,0.6719,0.6866,0.6784,0.6821,0.6842,0.6817,0.6766,0.6746,0.6822,0.6895,0.7068,0.7355,0.7411,0.7399,0.7307,0.7387,0.7548,0.7792,0.8012,0.8292,0.868,0.895,0.9218,0.9482,0.9547,0.9603,0.9603,0.9603,0.9603,0.9603,0.9603,0.9603,0.9603,0.9603,0.9603,0.9607,0.9672,0.9791,0.9917,0.9991,1.0133,1.0282,0.1592,0.1592,0.1592,0.1592,0.1592,0.1592,0.1592,0.1592,0.1592,0.1592,0.1592,0.1592,0.1592,0.1592,0.1605,0.1599,0.1545,0.1515,0.1506,0.1431,0.1402,0.1395,0.1393,0.1374,0.1308,0.1301,0.1302,0.1303,0.13,0.1292,0.1306,0.1308,0.1302,0.1305,0.1302,0.1341,0.139,0.1392,0.1393,0.1395,0.1402,0.1391,0.141,0.1403,0.1393,0.1389,0.1339,0.1353,0.141,0.1408,0.1948,0.2777,0.3636,0.4527,0.5213,0.5121,0.5093,0.5302,0.61,0.6313,0.6313,0.6313,0.6306,0.63,0.63,0.6306,0.6313,0.6303,0.6458,0.6558,0.6358,0.6641,0.6845,0.6656,0.6768,0.6903,0.6903,0.6738,0.6757,0.7142,0.7017,0.6976,0.7189,0.7372,0.7423,0.7254,0.7569,0.7711,0.7548,0.7727,0.7825,0.782,0.8142,0.8483,0.8814,0.9023,0.9287,0.9603,0.9603,0.9603,0.9603,0.9603,0.9603,0.9603,0.9603,0.9603,0.9603,0.9616,0.962,0.9636,0.9835,0.9938,0.997,1.0141,1.0298,1.0426,0.1622,0.1592,0.1592,0.1592,0.1592,0.1592,0.1592,0.1592,0.1592,0.1592,0.1592,0.1592,0.1592,0.1592,0.1605,0.1599,0.1589,0.1562,0.1507,0.1474,0.1456,0.1404,0.1402,0.1403,0.138,0.1372,0.1341,0.1306,0.1299,0.1302,0.1296,0.1359,0.134,0.1307,0.1344,0.1377,0.1391,0.1392,0.1402,0.1403,0.141,0.1391,0.139,0.1405,0.1402,0.1398,0.1391,0.1847,0.2451,0.2451,0.305,0.3942,0.482,0.5251,0.5501,0.5878,0.6136,0.6322,0.6434,0.6463,0.6463,0.6463,0.6378,0.63,0.63,0.6385,0.6429,0.6323,0.6545,0.6706,0.6565,0.6733,0.6884,0.6845,0.6865,0.6903,0.6903,0.685,0.6862,0.6957,0.6927,0.6981,0.7179,0.7234,0.7374,0.7646,0.7553,0.7596,0.7862,0.8022,0.8066,0.7963,0.833,0.8696,0.9031,0.9229,0.9429,0.9603,0.9603,0.9603,0.9603,0.9603,0.9603,0.9603,0.9603,0.9603,0.9616,0.977,0.9823,0.9843,1.0052,1.018,1.0284,1.0328,1.0481,1.0631,0.1595,0.1592,0.1592,0.1592,0.1592,0.1592,0.1592,0.1592,0.1592,0.1592,0.1592,0.1592,0.1592,0.1592,0.161,0.1594,0.1604,0.1576,0.1504,0.1511,0.1473,0.1457,0.142,0.1399,0.1391,0.1403,0.1381,0.1344,0.1344,0.1338,0.1346,0.1383,0.1382,0.1347,0.1378,0.1391,0.139,0.1406,0.1391,0.1391,0.1391,0.1391,0.1391,0.1391,0.1681,0.2081,0.2079,0.2667,0.3437,0.3439,0.4036,0.4881,0.5358,0.5796,0.6185,0.6408,0.6597,0.6681,0.662,0.6597,0.6597,0.6597,0.6539,0.6481,0.6481,0.6542,0.6576,0.6498,0.6707,0.6836,0.6671,0.6835,0.6937,0.6741,0.6742,0.6733,0.6641,0.6618,0.6724,0.6969,0.6996,0.7148,0.7521,0.7573,0.7613,0.7749,0.7673,0.7714,0.795,0.82,0.831,0.8276,0.8643,0.8965,0.9238,0.9417,0.9531,0.9603,0.9603,0.9644,0.9746,0.9746,0.9791,0.9872,0.9872,0.9872,0.988,0.9999,1.0035,1.0056,1.0213,1.0347,1.0417,1.0494,1.0611,1.0692,0.1618,0.1617,0.1592,0.1617,0.1617,0.1592,0.1592,0.1592,0.1592,0.1592,0.1592,0.1592,0.1592,0.1592,0.1592,0.1592,0.1593,0.1566,0.1511,0.1508,0.1514,0.1504,0.1456,0.1406,0.1397,0.14,0.1391,0.1391,0.1391,0.14,0.1397,0.1397,0.1397,0.1397,0.1397,0.1389,0.1391,0.1391,0.1391,0.1391,0.1391,0.1391,0.1413,0.1569,0.2152,0.2913,0.3068,0.367,0.4433,0.4433,0.5022,0.5748,0.5748,0.6296,0.6914,0.6803,0.6766,0.6763,0.6742,0.6736,0.6729,0.6705,0.6702,0.6702,0.6702,0.6719,0.6729,0.6705,0.6861,0.693,0.6743,0.6861,0.6902,0.6585,0.654,0.6497,0.635,0.6353,0.6554,0.704,0.7117,0.7357,0.7933,0.7949,0.7869,0.7762,0.7816,0.7912,0.8021,0.8346,0.8568,0.8712,0.9001,0.9242,0.9417,0.9551,0.9603,0.9603,0.9603,0.9692,0.9909,0.9909,1.0011,1.0186,1.0186,1.0186,1.019,1.0219,1.0231,1.0247,1.0404,1.0446,1.0462,1.0639,1.0692,1.0692,0.1674,0.1642,0.1617,0.1667,0.1642,0.1592,0.1592,0.1592,0.1592,0.1592,0.1592,0.1592,0.1592,0.1592,0.1592,0.1592,0.1588,0.1597,0.1591,0.1585,0.1558,0.1506,0.1499,0.1459,0.1406,0.141,0.1391,0.1391,0.1391,0.141,0.1406,0.1406,0.1406,0.1406,0.1406,0.1408,0.1391,0.1391,0.1391,0.1391,0.1391,0.1391,0.1502,0.2353,0.2755,0.3001,0.3801,0.4681,0.5468,0.5468,0.6075,0.6849,0.6849,0.6953,0.7058,0.7034,0.7028,0.7022,0.6904,0.6874,0.684,0.6732,0.6702,0.6702,0.6702,0.6779,0.6837,0.6725,0.6825,0.6872,0.6722,0.6637,0.6616,0.6665,0.6497,0.6379,0.6463,0.6623,0.6813,0.7071,0.7241,0.7498,0.7876,0.771,0.7677,0.7942,0.7825,0.7985,0.8536,0.8573,0.8787,0.9258,0.9335,0.9425,0.9559,0.9587,0.9603,0.9603,0.9603,0.9692,0.9909,0.9909,1.0011,1.0186,1.0186,1.0186,1.0202,1.0327,1.0365,1.0385,1.0586,1.0651,1.0655,1.068,1.0692,1.0692,0.1696,0.1642,0.1602,0.1648,0.1617,0.1592,0.1592,0.1603,0.1598,0.159,0.1603,0.1598,0.159,0.1592,0.1592,0.1592,0.1592,0.1611,0.1597,0.1605,0.1576,0.1507,0.1489,0.1466,0.1391,0.1391,0.1391,0.1391,0.1391,0.1391,0.1391,0.1391,0.1391,0.1391,0.1391,0.1391,0.1391,0.1391,0.1391,0.1458,0.1995,0.2219,0.2307,0.3288,0.3957,0.4472,0.4892,0.565,0.6451,0.6451,0.6741,0.7095,0.7095,0.7095,0.7095,0.7095,0.7095,0.7082,0.7018,0.7001,0.698,0.6935,0.6918,0.6918,0.6918,0.6972,0.6999,0.6931,0.6972,0.6999,0.6928,0.6817,0.6766,0.6891,0.6688,0.6569,0.6698,0.6733,0.6852,0.7161,0.7359,0.7591,0.797,0.7971,0.7925,0.7944,0.7859,0.8043,0.8606,0.8621,0.8873,0.9498,0.9502,0.9543,0.9603,0.9603,0.9603,0.9603,0.9721,0.986,1.0064,1.0136,1.0278,1.0475,1.0475,1.0475,1.0479,1.0538,1.0547,1.0582,1.0664,1.0692,1.0692,1.0692,1.0692,1.0692,0.1718,0.1679,0.1617,0.1624,0.1617,0.1592,0.1592,0.1597,0.159,0.1588,0.1596,0.1591,0.1589,0.1592,0.1592,0.1592,0.1592,0.1592,0.1592,0.1595,0.1568,0.1514,0.15,0.147,0.1424,0.1416,0.1391,0.1391,0.1391,0.1391,0.1391,0.1391,0.1391,0.1391,0.1391,0.1391,0.1391,0.1391,0.1391,0.148,0.2488,0.2889,0.3023,0.4178,0.507,0.5719,0.5941,0.6498,0.7095,0.7095,0.7095,0.7095,0.7095,0.7095,0.7095,0.7095,0.7095,0.7095,0.7095,0.7095,0.7095,0.7095,0.7095,0.7095,0.7095,0.7095,0.7095,0.7095,0.7095,0.7095,0.7095,0.7007,0.697,0.7078,0.6928,0.6823,0.6938,0.6927,0.7048,0.7361,0.7514,0.7742,0.8087,0.8162,0.8104,0.793,0.7933,0.8129,0.8614,0.8646,0.8946,0.9575,0.9603,0.9603,0.9603,0.9603,0.9624,0.9664,0.9819,1.0027,1.0255,1.0345,1.0503,1.0692,1.0692,1.0692,1.0692,1.0692,1.0692,1.0692,1.0692,1.0692,1.0692,1.0692,1.0692,1.0692,0.1768,0.1747,0.1698,0.1693,0.1642,0.1592,0.1592,0.159,0.1589,0.1591,0.159,0.1589,0.1591,0.1592,0.1592,0.1592,0.1592,0.1592,0.1592,0.159,0.16,0.1594,0.1535,0.1503,0.1501,0.1427,0.1391,0.1391,0.1391,0.1391,0.1391,0.1391,0.1391,0.1391,0.1391,0.1391,0.1391,0.1391,0.1391,0.148,0.2488,0.2889,0.309,0.4917,0.563,0.5808,0.6675,0.7051,0.7095,0.7095,0.7095,0.7095,0.7095,0.7095,0.7095,0.7095,0.7095,0.7095,0.7095,0.7095,0.7095,0.7095,0.7095,0.7095,0.7095,0.7095,0.7095,0.7095,0.7095,0.7095,0.7095,0.7088,0.7085,0.7095,0.7078,0.7068,0.7078,0.7391,0.7636,0.7669,0.7791,0.7951,0.8182,0.7987,0.7876,0.7997,0.7983,0.823,0.8757,0.8782,0.904,0.9579,0.9603,0.9603,0.9603,0.9603,0.968,0.9889,0.9905,1.0071,1.0389,1.0401,1.0503,1.0692,1.0692,1.0692,1.0692,1.0692,1.0692,1.0692,1.0692,1.0692,1.0692,1.0692,1.0692,1.0692,0.1808,0.1619,0.1517,0.1681,0.1516,0.1415,0.1566,0.1592,0.1592,0.1592,0.16,0.1596,0.159,0.1592,0.1592,0.1592,0.1592,0.1592,0.1592,0.1592,0.1603,0.1598,0.1537,0.1504,0.1504,0.1429,0.1391,0.1391,0.1391,0.1391,0.1391,0.1391,0.1391,0.1391,0.1391,0.1391,0.1436,0.2062,0.2331,0.2464,0.4004,0.4627,0.4783,0.6074,0.6564,0.6609,0.6962,0.7095,0.7095,0.7095,0.7095,0.7095,0.7095,0.7095,0.7095,0.7095,0.7095,0.7095,0.7095,0.7095,0.7095,0.7095,0.7095,0.7095,0.7095,0.7095,0.7144,0.7261,0.7285,0.7312,0.7384,0.7401,0.7432,0.7519,0.7459,0.7432,0.7519,0.7599,0.7648,0.7648,0.7756,0.7873,0.7956,0.7923,0.7952,0.7985,0.7988,0.8233,0.8775,0.9126,0.9377,0.9603,0.973,0.9734,0.9603,0.9734,0.9819,0.9913,1.0115,1.0272,1.0413,1.0519,1.0631,1.0692,1.0692,1.0692,1.0692,1.0692,1.0692,1.0692,1.0692,1.0692,1.0692,1.0692,1.0692,1.0692,0.1655,0.1402,0.1271,0.1529,0.1359,0.1288,0.1566,0.1592,0.1592,0.1592,0.1623,0.1619,0.1614,0.1617,0.1617,0.1592,0.1617,0.1617,0.1592,0.1592,0.1607,0.1611,0.156,0.1529,0.1495,0.1451,0.1432,0.1391,0.1422,0.1422,0.1391,0.1391,0.1391,0.1391,0.1391,0.1569,0.1905,0.2598,0.3068,0.3468,0.5072,0.5697,0.5808,0.6741,0.7095,0.7095,0.7095,0.7095,0.7095,0.7095,0.7095,0.7095,0.7095,0.7095,0.7095,0.7095,0.7151,0.7181,0.7109,0.7154,0.7178,0.7109,0.7095,0.7109,0.7181,0.7192,0.7235,0.7433,0.7467,0.7498,0.758,0.7638,0.7682,0.7736,0.774,0.7753,0.7804,0.777,0.7716,0.7716,0.78,0.7858,0.7858,0.7952,0.7988,0.7988,0.7988,0.8258,0.8849,0.9331,0.9584,0.9619,0.9756,0.976,0.9644,0.9861,1.0027,1.0059,1.0288,1.0409,1.0413,1.0611,1.0664,1.0615,1.0668,1.0692,1.0692,1.0692,1.0692,1.0692,1.0692,1.0692,1.0692,1.0692,1.0692,1.0692,0.129,0.1093,0.0981,0.1262,0.1246,0.1288,0.1566,0.1592,0.1592,0.1592,0.1667,0.1668,0.1618,0.1668,0.1667,0.1617,0.1667,0.1667,0.1592,0.1592,0.1592,0.1592,0.1588,0.1558,0.1503,0.1502,0.1473,0.1391,0.1466,0.1466,0.1391,0.1413,0.1413,0.1413,0.1413,0.1973,0.2911,0.2913,0.3468,0.4401,0.5339,0.5719,0.5808,0.6741,0.7095,0.7095,0.7095,0.7095,0.7095,0.7095,0.7095,0.7095,0.7095,0.7095,0.7095,0.7098,0.7251,0.7359,0.7161,0.7255,0.7359,0.7158,0.7098,0.7161,0.7359,0.7396,0.744,0.757,0.76,0.76,0.7604,0.7719,0.7767,0.7628,0.7824,0.7962,0.781,0.7918,0.7988,0.7988,0.7988,0.7988,0.7988,0.7988,0.7988,0.7988,0.7992,0.8331,0.9071,0.9358,0.9563,0.9686,0.9694,0.9694,0.9694,1.0034,1.028,1.0409,1.0409,1.0409,1.0413,1.0611,1.0595,1.0417,1.0615,1.0692,1.0688,1.0692,1.0692,1.0692,1.0692,1.0692,1.0692,1.0692,1.0692,1.0692,0.1009,0.0757,0.0701,0.1206,0.1086,0.1061,0.1541,0.1592,0.1592,0.1592,0.1667,0.1683,0.1595,0.1667,0.1667,0.1617,0.1667,0.1667,0.1592,0.1592,0.1592,0.1592,0.1588,0.1592,0.1583,0.1513,0.1494,0.1475,0.1484,0.1497,0.149,0.2153,0.2455,0.2488,0.3132,0.3599,0.3935,0.4583,0.5028,0.5361,0.6296,0.6675,0.6719,0.6985,0.7095,0.7095,0.7095,0.7095,0.7095,0.7095,0.7095,0.7095,0.7095,0.7095,0.7119,0.7272,0.7359,0.741,0.7444,0.7495,0.7495,0.7339,0.7302,0.7343,0.7495,0.7533,0.7573,0.7719,0.7746,0.778,0.7864,0.7918,0.7932,0.7891,0.7956,0.7975,0.7952,0.7986,0.7988,0.7988,0.7988,0.7988,0.7988,0.7988,0.7988,0.7988,0.8312,0.8675,0.9075,0.9267,0.938,0.9429,0.975,0.9918,0.9918,1.0191,1.0353,1.0409,1.0409,1.0409,1.0409,1.0462,1.0412,1.0288,1.0562,1.0623,1.0494,1.0643,1.0692,1.0692,1.0692,1.0692,1.0692,1.0692,1.0801,1.0915,0.0869,0.0617,0.0589,0.1206,0.1113,0.1111,0.1541,0.1592,0.1592,0.1592,0.1667,0.1674,0.165,0.1693,0.1718,0.1642,0.1642,0.1642,0.1592,0.1592,0.1592,0.1592,0.1599,0.1608,0.1596,0.1565,0.1526,0.1502,0.1538,0.1742,0.2151,0.2711,0.3167,0.3556,0.4119,0.4548,0.4892,0.5453,0.5919,0.6296,0.6874,0.7095,0.7095,0.7095,0.7154,0.7208,0.7208,0.7249,0.73,0.73,0.73,0.73,0.73,0.73,0.7317,0.7434,0.7525,0.7553,0.759,0.7641,0.7662,0.7567,0.7525,0.7525,0.7648,0.7682,0.7726,0.7847,0.7875,0.7905,0.7996,0.7988,0.7988,0.7988,0.7988,0.7988,0.7988,0.7988,0.7988,0.7988,0.7988,0.7988,0.7988,0.7988,0.804,0.8101,0.8528,0.8873,0.9138,0.9185,0.9269,0.9335,0.9552,0.9758,0.9931,1.0138,1.0298,1.0409,1.0409,1.0332,1.0191,1.0268,1.0266,1.0206,1.0465,1.057,1.0519,1.0647,1.0692,1.0692,1.0692,1.0692,1.0692,1.0692,1.0837,1.0996,0.0785,0.0617,0.0588,0.1196,0.124,0.1288,0.1566,0.1592,0.1592,0.1592,0.1667,0.1688,0.1698,0.1751,0.1756,0.1694,0.1642,0.1592,0.1592,0.1592,0.1592,0.1592,0.1592,0.1654,0.1748,0.1653,0.1614,0.1653,0.1708,0.2263,0.3265,0.3334,0.3841,0.4646,0.4738,0.5186,0.5847,0.5847,0.633,0.7095,0.7095,0.7095,0.7098,0.7112,0.7248,0.7396,0.741,0.7505,0.76,0.76,0.76,0.76,0.76,0.76,0.76,0.7614,0.7709,0.7787,0.7672,0.7733,0.7807,0.7807,0.7736,0.7675,0.7776,0.7807,0.7847,0.7986,0.7988,0.7988,0.7988,0.7988,0.7988,0.7988,0.7988,0.7988,0.7988,0.8027,0.803,0.7992,0.8027,0.8037,0.8037,0.8047,0.8133,0.8313,0.8682,0.8968,0.9187,0.9124,0.9171,0.9348,0.9291,0.9419,0.9785,1.0004,1.0196,1.0434,1.0434,1.0239,0.9942,1.0141,1.0211,1.0174,1.0336,1.0511,1.0672,1.0704,1.0708,1.0692,1.0712,1.0716,1.0716,1.0716,1.087,1.1045,0.0449,0.0449,0.0579,0.1201,0.1277,0.1364,0.1642,0.1642,0.1592,0.1592,0.1667,0.1688,0.1615,0.1689,0.1692,0.1625,0.1617,0.1592,0.1592,0.1592,0.1592,0.1592,0.1592,0.1991,0.2831,0.204,0.2011,0.2837,0.285,0.3394,0.4443,0.5195,0.5647,0.587,0.6605,0.6973,0.7024,0.7024,0.7049,0.7095,0.7095,0.7095,0.7109,0.7275,0.7365,0.741,0.7529,0.757,0.76,0.76,0.76,0.76,0.76,0.76,0.7621,0.7733,0.7787,0.7807,0.7895,0.7942,0.7966,0.7966,0.7942,0.7925,0.7959,0.7966,0.7973,0.7982,0.7988,0.7988,0.7988,0.7988,0.7988,0.7988,0.7988,0.7988,0.7988,0.8143,0.8174,0.803,0.8147,0.8247,0.8247,0.8319,0.8457,0.8604,0.8697,0.8863,0.9106,0.9012,0.8958,0.902,0.9453,0.9724,0.9789,1.0437,1.0722,1.0635,1.0635,1.0448,1.0137,1.0459,1.0373,0.9995,1.0436,1.0582,1.0486,1.0821,1.0854,1.0708,1.0878,1.0939,1.0939,1.0939,1.1139,1.1407,0.0561,0.0645,0.0832,0.1445,0.1515,0.1551,0.1676,0.1667,0.1642,0.1592,0.1667,0.1692,0.165,0.1683,0.1685,0.1597,0.1592,0.1592,0.1592,0.1592,0.1592,0.1592,0.2095,0.2622,0.3198,0.3148,0.3398,0.3974,0.3974,0.4503,0.5571,0.6068,0.6544,0.6974,0.7481,0.7617,0.7505,0.7505,0.7434,0.7337,0.7337,0.7337,0.7344,0.7451,0.7546,0.759,0.7672,0.7746,0.7783,0.7783,0.7783,0.7783,0.7783,0.7783,0.78,0.7875,0.7895,0.7912,0.7993,0.7988,0.7988,0.7988,0.7988,0.7988,0.7988,0.7988,0.7988,0.7988,0.7988,0.7988,0.7988,0.7988,0.7988,0.7988,0.8077,0.815,0.815,0.8279,0.8366,0.8262,0.8319,0.8396,0.8396,0.8506,0.8613,0.8692,0.877,0.8903,0.9137,0.9081,0.916,0.9373,0.9581,0.9881,1.0273,1.0626,1.0852,1.0944,1.0863,1.0707,1.0447,1.0521,1.0509,1.0439,1.0607,1.0737,1.0798,1.1013,1.1033,1.0956,1.1049,1.109,1.109,1.109,1.1265,1.1524,0.0841,0.0981,0.1149,0.1711,0.1767,0.1706,0.1714,0.1707,0.1667,0.1617,0.1667,0.1693,0.1693,0.1693,0.1743,0.187,0.1718,0.1768,0.212,0.1969,0.1944,0.2145,0.2998,0.3549,0.3751,0.4626,0.5074,0.5074,0.5074,0.5629,0.6661,0.6661,0.7078,0.7824,0.7824,0.777,0.7638,0.7638,0.7624,0.76,0.76,0.76,0.7604,0.7628,0.7709,0.7814,0.7817,0.7908,0.7988,0.7988,0.7988,0.7988,0.7988,0.7988,0.7988,0.7988,0.7988,0.7988,0.7988,0.7988,0.7988,0.7988,0.7988,0.7988,0.7988,0.7988,0.7988,0.7988,0.7988,0.8023,0.8047,0.8054,0.8064,0.8084,0.8221,0.8332,0.8332,0.8457,0.8539,0.8512,0.8532,0.8536,0.8509,0.8645,0.8737,0.8713,0.8845,0.9028,0.9204,0.9234,0.9449,0.9896,0.977,1.0074,1.0792,1.0772,1.0935,1.124,1.1159,1.1004,1.0737,1.0628,1.0745,1.0992,1.0838,1.0952,1.1195,1.1228,1.1219,1.1195,1.1228,1.124,1.1273,1.1276,1.1415,1.1569,0.1121,0.1234,0.1374,0.1739,0.1795,0.1789,0.1774,0.1736,0.1693,0.1693,0.1693,0.1693,0.1693,0.1693,0.2072,0.2983,0.2173,0.2397,0.4257,0.3501,0.3399,0.4325,0.4499,0.5027,0.5959,0.6109,0.6184,0.6184,0.6184,0.6736,0.7789,0.7789,0.7854,0.7983,0.7983,0.7902,0.7784,0.7784,0.7712,0.76,0.76,0.76,0.7614,0.7736,0.7794,0.7804,0.7935,0.7996,0.7988,0.7988,0.7988,0.7988,0.7988,0.7988,0.7988,0.7988,0.7988,0.7988,0.7988,0.7988,0.7988,0.7988,0.7988,0.7988,0.7988,0.7988,0.7988,0.7988,0.7988,0.8054,0.8214,0.8264,0.8304,0.8401,0.8464,0.8481,0.8481,0.8584,0.8628,0.8526,0.8601,0.8628,0.8522,0.8713,0.8825,0.872,0.8995,0.9162,0.9207,0.9305,0.9534,0.9899,1.0109,1.0394,1.0792,1.1183,1.141,1.1464,1.1631,1.144,1.0968,1.1224,1.1216,1.1004,1.1098,1.1151,1.1207,1.1395,1.1366,1.1207,1.1399,1.1459,1.1484,1.1642,1.1745,1.1774,0.1206,0.129,0.1402,0.1739,0.1795,0.1795,0.1795,0.1778,0.1731,0.1696,0.1695,0.169,0.169,0.2226,0.2774,0.3249,0.3348,0.379,0.4728,0.435,0.4298,0.4774,0.5377,0.5907,0.6387,0.6989,0.7288,0.7288,0.7288,0.7537,0.7988,0.7988,0.7988,0.7988,0.7988,0.7976,0.7915,0.7915,0.7878,0.782,0.782,0.782,0.7827,0.7891,0.7915,0.7922,0.7989,0.7988,0.7988,0.7988,0.7988,0.7988,0.7988,0.7988,0.7988,0.7988,0.7988,0.7988,0.7988,0.7988,0.7988,0.7988,0.7988,0.8037,0.815,0.817,0.817,0.817,0.8231,0.8306,0.8403,0.8413,0.8437,0.8498,0.8554,0.8611,0.8611,0.8716,0.8784,0.872,0.8869,0.8961,0.889,0.9055,0.9157,0.9089,0.9237,0.9345,0.9434,0.9648,0.9986,1.0395,1.0695,1.1021,1.1355,1.1554,1.1654,1.1654,1.177,1.168,1.1452,1.1476,1.1472,1.1448,1.139,1.1435,1.1537,1.1622,1.1606,1.1541,1.1622,1.1654,1.1692,1.1778,1.1806,1.1806]},{"header":{"parameterUnit":"m.s-1","parameterCategory":1,"la1":30.6,"la2":28.766,"lo1":-90.7593,"lo2":-88.6598,"dy":0.0162,"dx":0.0183,"nx":116,"ny":114,"refTime":"2023-09-21T00:00:00:Z","depth":0,"parameterNumber":3,"parameterNumberName":"V-component_of_WINDS"},"data":[0.0,0.0,0.0,0.0,0.0,0.0,0.0,0.0,0.0,0.0,0.0,0.0,0.0,0.0,0.0,0.0,0.0,0.0,0.0,0.0,0.0,0.0,0.0,0.0,0.0,0.0,0.0,0.0,0.0,0.0,0.0,0.0,0.0,0.0,0.0,0.0,0.0,0.0,0.0,0.0,0.0,0.0,0.0,0.0,0.0,0.0,0.0,0.0,0.0,0.0,0.0,0.0,0.0,0.0,0.0,0.0,0.0,0.0,0.0,0.0,0.0,0.0,0.0,0.0,0.0,0.0,0.0,0.0,0.0,0.0,0.0,0.0,0.0,0.0,0.0,0.0,0.0,0.0,0.0,0.0,0.0,0.0,0.0,0.0,0.0,0.0,0.0,0.0,0.0,0.0,0.0,0.0,0.0,0.0,0.0,0.0,0.0,0.0,0.0,0.0,0.0,0.0,0.0,0.0,0.0,0.0,0.0,0.0,0.0,0.0,0.0,0.0,0.0,0.0,0.0,0.0,0.0,0.0,0.0,0.0,0.0,0.0,0.0,0.0,0.0,0.0,0.0,0.0,0.0,0.0,0.0,0.0,0.0,0.0,0.0,0.0,0.0,0.0,0.0,0.0,0.0,0.0,0.0,0.0,0.0,0.0,0.0,0.0,0.0,0.0,0.0,0.0,0.0,0.0,0.0,0.0,0.0,0.0,0.0,0.0,0.0,0.0,0.0,0.0,0.0,0.0,0.0,0.0,0.0,0.0,0.0,0.0,0.0,0.0,0.0,0.0,0.0,0.0,0.0,0.0,0.0,0.0,0.0,0.0,0.0,0.0,0.0,0.0,0.0,0.0,0.0,0.0,0.0,0.0,0.0,0.0,0.0,0.0,0.0,0.0,0.0,0.0,0.0,0.0,0.0,0.0,0.0,0.0,0.0,0.0,0.0,0.0,0.0,0.0,0.0,0.0,0.0,0.0,0.0,0.0,0.0,0.0,0.0,0.0,0.0,0.0,0.0,0.0,0.0,0.0,0.0,0.0,0.0,0.0,0.0,0.0,0.0,0.0,0.0,0.0,0.0,0.0,0.0,0.0,0.0,0.0,0.0,0.0,0.0,0.0,0.0,0.0,0.0,0.0,0.0,0.0,0.0,0.0,0.0,0.0,0.0,0.0,0.0,0.0,0.0,0.0,0.0,0.0,0.0,0.0,0.0,0.0,0.0,0.0,0.0,0.0,0.0,0.0,0.0,0.0,0.0,0.0,0.0,0.0,0.0,0.0,0.0,0.0,0.0,0.0,0.0,0.0,0.0,0.0,0.0,0.0,0.0,0.0,0.0,0.0,0.0,0.0,0.0,0.0,0.0,0.0,0.0,0.0,0.0,0.0,0.0,0.0,0.0,0.0,0.0,0.0,0.0,0.0,0.0,0.0,0.0,0.0,0.0,0.0,0.0,0.0,0.0,0.0,0.0,0.0,0.0,0.0,0.0,0.0,0.0,0.0,0.0,0.0,0.0,0.0,0.0,0.0,0.0,0.0,0.0,0.0,0.0,0.0,0.0,0.0,0.0,0.0,0.0,0.0,0.0,0.0,0.0,0.0,0.0,0.0,0.0,0.0,0.0,0.0,0.0,0.0,0.0,0.0,0.0,0.0,0.0,0.0,0.0,0.0,0.0,0.0,0.0,0.0,0.0,0.0,0.0,0.0,0.0,0.0,0.0,0.0,0.0,0.0,0.0,0.0,0.0,0.0,0.0,0.0,0.0,0.0,0.0,0.0,0.0,0.0,0.0,0.0,0.0,0.0,0.0,0.0,0.0,0.0,0.0,0.0,0.0,0.0,0.0,0.0,0.0,0.0,0.0,0.0,0.0,0.0,0.0,0.0,0.0,0.0,0.0,0.0,0.0,0.0,0.0,0.0,0.0,0.0,0.0,0.0,0.0,0.0,0.0,0.0,0.0,0.0,0.0,0.0,0.0,0.0,0.0,0.0,0.0,0.0,0.0,0.0,0.0,0.0,0.0,0.0,0.0,0.0,0.0,0.0,0.0,0.0,0.0,0.0,0.0,0.0,0.0,0.0,0.0,0.0,0.0,0.0,0.0,0.0,0.0,0.0,0.0,0.0,0.0,0.0,0.0,0.0,0.0,0.0,0.0,0.0,0.0,0.0,0.0,0.0,0.0,0.0,0.0,0.0,0.0,0.0,0.0,0.0,0.0,0.0,0.0,0.0,0.0,0.0,0.0,0.0,0.0,0.0,0.0,0.0,0.0,0.0,0.0,0.0,0.0,0.0,0.0,0.0,0.0,0.0,0.0,0.0,0.0,0.0,0.0,0.0,0.0,0.0,0.0,0.0,0.0,0.0,0.0,0.0,0.0,0.0,0.0,0.0,0.0,0.0,0.0,0.0,0.0,0.0,0.0,0.0,0.0,0.0,0.0,0.0,0.0,0.0,0.0,0.0,0.0,0.0,0.0,0.0,0.0,0.0,0.0,0.0,0.0,0.0,0.0,0.0,0.0,0.0,0.0,0.0,0.0,0.0,0.0,0.0,0.0,0.0,0.0,0.0,0.0,0.0,0.0,0.0,0.0,0.0,0.0,0.0,0.0,0.0,0.0,0.0,0.0,0.0,0.0,0.0,0.0,0.0,0.0,0.0,0.0,0.0,0.0,0.0,0.0,0.0,0.0,0.0,0.0,0.0,0.0,0.0,0.0,0.0,0.0,0.0,0.0,0.0,0.0,0.0,0.0,0.0,0.0,0.0,0.0,0.0,0.0,0.0,0.0,0.0,0.0,0.0,0.0,0.0,0.0,0.0,0.0,0.0,0.0,0.0,0.0,0.0,0.0,0.0,0.0,0.0,0.0,0.0,0.0,0.0,0.0,0.0,0.0,0.0,0.0,0.0,0.0,0.0,0.0,0.0,0.0,0.0,0.0,0.0,0.0,0.0,0.0,0.0,0.0,0.0,0.0,0.0,0.0,0.0,0.0,0.0,0.0,0.0,0.0,0.0,0.0,0.0,0.0,0.0,0.0,0.0,0.0,0.0,0.0,0.0,0.0,0.0,0.0,0.0,0.0,0.0,0.0,0.0,0.0,0.0,0.0,0.0,0.0,0.0,0.0,0.0,0.0,0.0,0.0,0.0,0.0,0.0,0.0,0.0,0.0,0.0,0.0,0.0,0.0,0.0,0.0,0.0,0.0,0.0,0.0,0.0,0.0,0.0,0.0,0.0,0.0,0.0,0.0,0.0,0.0,0.0,0.0,0.0,0.0,0.0,0.0,0.0,0.0,0.0,0.0,0.0,0.0,0.0,0.0,0.0,0.0,0.0,0.0,0.0,0.0,0.0,0.0,0.0,0.0,0.0,0.0,0.0,0.0,0.0,0.0,0.0,0.0,0.0,0.0,0.0,0.0,0.0,0.0,0.0,0.0,0.0,0.0,0.0,0.0,0.0,0.0,0.0,0.0,0.0,0.0,0.0,0.0,0.0,0.0,0.0,0.0,0.0,0.0,0.0,0.0,0.0,0.0,0.0,0.0,0.0,0.0,0.0,0.0,0.0,0.0,0.0,0.0,0.0,0.0,0.0,0.0,0.0,0.0,0.0,0.0,0.0,0.0,0.0,0.0,0.0,0.0,0.0,0.0,0.0,0.0,0.0,0.0,0.0,0.0,0.0,0.0,0.0,0.0,0.0,0.0,0.0,0.0,0.0,0.0,0.0,0.0,0.0,0.0,0.0,0.0,0.0,0.0,0.0,0.0,0.0,0.0,0.0,0.0,0.0,0.0,0.0,0.0,0.0,0.0,0.0,0.0,0.0,0.0,0.0,0.0,0.0,0.0,0.0,0.0,0.0,0.0,0.0,0.0,0.0,0.0,0.0,0.0,0.0,0.0,0.0,0.0,0.0,0.0,0.0,0.0,0.0,0.0,0.0,0.0,0.0,0.0,0.0,0.0,0.0,0.0,0.0,0.0,0.0,0.0,0.0,0.0,0.0,0.0,0.0,0.0,0.0,0.0,0.0,0.0,0.0,0.0,0.0,0.0,0.0,0.0,0.0,0.0,0.0,0.0,0.0,0.0,0.0,0.0,0.0,0.0,0.0,0.0,0.0,0.0,0.0,0.0,0.0,0.0,0.0,0.0,0.0,0.0,0.0,0.0,0.0,0.0,0.0,0.0,0.0,0.0,0.0,0.0,0.0,0.0,0.0,0.0,0.0,0.0,0.0,0.0,0.0,0.0,0.0,0.0,0.0,0.0,0.0,0.0,0.0,0.0,0.0,0.0,0.0,0.0,0.0,0.0,0.0,0.0,0.0,0.0,0.0,0.0,0.0,0.0,0.0,0.0,0.0,0.0,0.0,0.0,0.0,0.0,0.0,0.0,0.0,0.0,0.0,0.0,0.0,0.0,0.0,0.0,0.0,0.0,0.0,0.0,0.0,0.0,0.0,0.0,0.0,0.0,0.0,0.0,0.0,0.0,0.0,0.0,0.0,0.0,0.0,0.0,0.0,0.0,0.0,0.0,0.0,0.0,0.0,0.0,0.0,0.0,0.0,0.0,0.0,0.0,0.0,0.0,0.0,0.0,0.0,0.0,0.0,0.0,0.0,0.0,0.0,0.0,0.0,0.0,0.0,0.0,0.0,0.0,0.0,0.0,0.0,0.0,0.0,0.0,0.0,0.0,0.0,0.0,0.0,0.0,0.0,0.0,0.0,0.0,0.0,0.0,0.0,0.0,0.0,0.0,0.0,0.0,0.0,0.0,0.0,0.0,0.0,0.0,0.0,0.0,0.0,0.0,0.0,0.0,0.0,0.0,0.0,0.0,0.0,0.0,0.0,0.0,0.0,0.0,0.0,0.0,0.0,0.0,0.0,0.0,0.0,0.0,0.0,0.0,0.0,0.0,0.0,0.0,0.0,0.0,0.0,0.0,0.0,0.0,0.0,0.0,0.0,0.0,0.0,0.0,0.0,0.0,0.0,0.0,0.0,0.0,0.0,0.0,0.0,0.0,0.0,0.0,0.0,0.0,0.0,0.0,0.0,0.0,0.0,0.0,0.0,0.0,0.0,0.0,0.0,0.0,0.0,0.0,0.0,0.0,0.0,0.0,0.0,0.0,0.0,0.0,0.0,0.0,0.0,0.0,0.0,0.0,0.0,0.0,0.0,0.0,0.0,0.0,0.0,0.0,0.0,0.0,0.0,0.0,0.0,0.0,0.0,0.0,0.0,0.0,0.0,0.0,0.0,0.0,0.0,0.0,0.0,0.0,0.0,0.0,0.0,0.0,0.0,0.0,0.0,0.0,0.0,0.0,0.0,0.0,0.0,0.0,0.0,0.0,0.0,0.0,0.0,0.0,0.0,0.0,0.0,0.0,0.0,0.0,0.0,0.0,0.0,0.0,0.0,0.0,0.0,0.0,0.0,0.0,0.0,0.0,0.0,0.0,0.0,0.0,0.0,0.0,0.0,0.0,0.0,0.0,0.0,0.0,0.0,0.0,0.0,0.0,0.0,0.0,0.0,0.0,0.0,0.0,0.0,0.0,0.0,0.0,0.0,0.0,0.0,0.0,0.0,0.0,0.0,0.0,0.0,0.0,0.0,0.0,0.0,0.0,0.0,0.0,0.0,0.0,0.0,0.0,0.0,0.0,0.0,0.0,0.0,0.0,0.0,0.0,0.0,0.0,0.0,0.0,0.0,0.0,0.0,0.0,0.0,0.0,0.0,0.0,0.0,0.0,0.0,0.0,0.0,0.0,0.0,0.0,0.0,0.0,0.0,0.0,0.0,0.0,0.0,0.0,0.0,0.0,0.0,0.0,0.0,0.0,0.0,0.0,0.0,0.0,0.0,0.0,0.0,0.0,0.0,0.0,0.0,0.0,0.0,0.0,0.0,0.0,0.0,0.0,0.0,0.0,0.0,0.0,0.0,0.0,0.0,0.0,0.0,0.0,0.0,0.0,0.0,0.0,0.0,0.0,0.0,0.0,0.0,0.0,0.0,0.0,0.0,0.0,0.0,0.0,0.0,0.0,0.0,0.0,0.0,0.0,0.0,0.0,0.0,0.0,0.0,0.0,0.0,0.0,0.0,0.0,0.0,0.0,0.0,0.0,0.0,0.0,0.0,0.0,0.0,1.8474,1.8587,0.0,0.0,0.0,0.0,0.0,0.0,0.0,0.0,0.0,0.0,0.0,0.0,0.0,0.0,0.0,0.0,0.0,0.0,0.0,0.0,0.0,0.0,0.0,0.0,0.0,0.0,0.0,0.0,0.0,0.0,0.0,0.0,0.0,0.0,0.0,0.0,0.0,0.0,1.9785,2.0247,2.1123,2.0695,2.0527,2.0611,0.0,0.0,0.0,0.0,0.0,0.0,0.0,0.0,0.0,0.0,0.0,0.0,0.0,0.0,0.0,0.0,0.0,0.0,0.0,0.0,0.0,0.0,0.0,0.0,0.0,0.0,0.0,0.0,0.0,0.0,0.0,0.0,0.0,0.0,0.0,0.0,0.0,0.0,0.0,0.0,0.0,0.0,0.0,0.0,0.0,0.0,0.0,0.0,0.0,0.0,0.0,0.0,0.0,0.0,0.0,0.0,0.0,0.0,0.0,0.0,0.0,0.0,0.0,0.0,0.0,0.0,0.0,0.0,0.0,0.0,2.109,2.029,0.0,0.0,0.0,0.0,0.0,0.0,0.0,0.0,0.0,0.0,0.0,0.0,0.0,0.0,0.0,0.0,0.0,0.0,0.0,0.0,0.0,0.0,0.0,1.4508,1.4576,1.4661,1.4692,1.4729,0.0,0.0,0.0,0.0,0.0,0.0,0.0,1.8733,1.9241,1.939,2.0229,2.1093,2.201,2.2162,2.2342,2.2627,2.3853,0.0,0.0,0.0,0.0,0.0,0.0,0.0,0.0,0.0,0.0,0.0,0.0,0.0,0.0,0.0,0.0,0.0,0.0,0.0,0.0,0.0,0.0,0.0,0.0,0.0,0.0,0.0,0.0,0.0,0.0,0.0,0.0,0.0,0.0,0.0,0.0,0.0,0.0,0.0,0.0,0.0,0.0,0.0,0.0,0.0,0.0,0.0,0.0,0.0,0.0,0.0,0.0,0.0,0.0,0.0,0.0,0.0,0.0,0.0,0.0,0.0,0.0,0.0,2.4817,2.5739,2.6349,2.696,2.752,2.781,2.4431,2.2899,2.277,2.2306,0.0,0.0,0.0,0.0,0.0,0.0,0.0,0.0,0.0,0.0,0.0,0.0,0.0,0.0,0.0,0.0,0.0,0.0,0.0,0.0,0.0,1.4323,1.4398,1.4519,1.4632,1.4691,1.4719,0.0,0.0,0.0,0.0,0.0,1.8649,1.9445,1.9952,2.0168,2.1085,2.1981,2.2855,2.3613,2.4404,2.5175,2.464,2.4884,2.566,0.0,0.0,0.0,0.0,0.0,0.0,0.0,0.0,0.0,0.0,0.0,0.0,0.0,0.0,0.0,0.0,0.0,0.0,0.0,0.0,0.0,0.0,0.0,0.0,0.0,0.0,0.0,0.0,0.0,0.0,0.0,0.0,0.0,0.0,0.0,0.0,0.0,0.0,0.0,0.0,0.0,2.173,2.1897,0.0,0.0,0.0,0.0,0.0,0.0,0.0,0.0,0.0,0.0,0.0,0.0,0.0,2.3882,2.5041,2.6346,2.7002,2.7029,2.7633,2.799,2.8072,2.8171,2.857,2.9144,2.8616,0.0,2.5104,2.4466,0.0,0.0,0.0,0.0,0.0,0.0,0.0,0.0,0.0,0.0,0.0,0.0,0.0,0.0,0.0,0.0,0.0,0.0,0.0,0.0,0.0,1.4862,1.5146,1.5695,1.6236,1.6405,1.6074,1.6866,0.0,0.0,0.0,1.8801,1.9465,1.9855,2.0393,2.108,2.1492,2.2645,2.4467,2.4849,2.5778,2.7085,2.6718,2.6498,2.6389,2.5815,0.0,0.0,0.0,0.0,0.0,0.0,0.0,0.0,0.0,0.0,0.0,0.0,0.0,0.0,0.0,0.0,0.0,0.0,0.0,0.0,0.0,0.0,0.0,0.0,0.0,0.0,0.0,0.0,0.0,0.0,0.0,0.0,0.0,0.0,0.0,0.0,0.0,0.0,0.0,2.2109,2.2415,2.2314,2.231,2.2181,0.0,0.0,0.0,0.0,0.0,0.0,0.0,0.0,0.0,2.5831,2.6712,2.7444,2.8019,2.9149,2.9909,3.0302,3.1783,3.2723,3.3127,3.3127,3.3284,3.3525,3.3084,3.1775,2.9812,2.7625,2.5757,2.42,0.0,0.0,0.0,0.0,2.4264,2.5326,0.0,0.0,0.0,0.0,0.0,0.0,0.0,0.0,0.0,0.0,0.0,0.0,1.5459,1.5946,1.6484,1.7174,1.7893,1.8009,1.7328,1.7945,1.8366,1.8474,1.8661,1.9154,1.9964,2.0275,2.1024,2.2265,2.2532,2.3896,2.6204,2.6215,2.7034,2.851,2.828,2.7851,2.7257,2.6326,2.5567,2.4925,0.0,0.0,0.0,0.0,0.0,0.0,0.0,0.0,0.0,0.0,0.0,0.0,0.0,0.0,0.0,0.0,0.0,0.0,0.0,0.0,0.0,0.0,0.0,0.0,0.0,0.0,0.0,0.0,0.0,0.0,0.0,0.0,0.0,0.0,0.0,0.0,0.0,2.3025,2.321,2.2597,2.3219,2.3424,0.0,0.0,0.0,0.0,0.0,0.0,2.601,2.7476,2.8694,2.9573,3.0595,3.1315,3.1689,3.262,3.3362,3.3922,3.5626,3.6723,3.7257,3.7257,3.7257,3.7223,3.6621,3.5736,3.4449,3.0861,2.8524,2.7105,2.6264,2.6009,2.6106,2.6106,2.6906,2.7992,0.0,0.0,0.0,0.0,0.0,0.0,0.0,0.0,0.0,0.0,0.0,1.5337,1.6322,1.7631,1.8517,1.8672,1.8974,1.8743,1.7833,1.8166,1.8404,1.8391,1.9133,1.9666,1.9896,2.0847,2.2146,2.3799,2.4808,2.618,2.7886,2.7871,2.845,2.9392,2.8509,2.812,2.8086,2.7216,2.6813,2.663,2.4882,0.0,0.0,0.0,0.0,0.0,0.0,0.0,0.0,0.0,0.0,0.0,0.0,0.0,0.0,0.0,0.0,0.0,0.0,0.0,0.0,0.0,0.0,0.0,0.0,0.0,0.0,0.0,0.0,0.0,0.0,0.0,0.0,0.0,0.0,0.0,0.0,0.0,0.0,2.3061,2.4802,0.0,0.0,0.0,0.0,2.6897,2.7708,2.8534,2.9413,3.0254,3.1377,3.2816,3.4272,3.5691,3.7088,3.7854,3.8247,3.827,3.8402,3.8477,3.8512,3.8512,3.8512,3.8512,3.8477,3.8408,3.8013,3.3826,3.1222,2.9799,2.8674,2.8468,2.8793,2.8793,2.9294,2.9854,0.0,0.0,0.0,0.0,0.0,0.0,0.0,0.0,1.3752,1.3881,1.4968,1.6242,1.763,1.9204,2.0351,2.0879,2.1137,2.0748,1.9543,1.9158,1.9054,1.9237,1.9506,2.0233,2.1478,2.1438,2.2525,2.479,2.5262,2.6935,2.9668,2.9668,3.0467,3.1877,3.1587,3.1146,3.0473,2.7969,2.6898,2.679,2.5547,2.5013,0.0,0.0,0.0,0.0,0.0,0.0,0.0,0.0,0.0,0.0,0.0,0.0,0.0,0.0,0.0,0.0,0.0,0.0,0.0,0.0,0.0,0.0,0.0,0.0,0.0,0.0,0.0,0.0,0.0,0.0,0.0,0.0,0.0,0.0,0.0,0.0,0.0,2.6118,2.8107,0.0,2.8123,2.8327,2.8975,3.0023,3.0841,3.1865,3.3164,3.45,3.5695,3.6737,3.7744,3.8502,3.9047,3.9533,3.9767,3.9757,4.0246,4.0472,4.0455,3.9971,3.9754,3.9737,3.9254,3.9045,3.8929,3.7433,3.5755,3.4066,3.3171,3.2929,3.3003,3.2519,3.3231,3.4279,0.0,0.0,0.0,0.0,0.0,0.0,0.0,0.0,1.361,1.3758,1.5263,1.6999,1.8745,2.0753,2.223,2.2859,2.2799,2.2137,2.0693,1.976,1.9365,1.956,1.9927,2.0844,2.2331,2.2504,2.3722,2.6085,2.6786,2.8446,3.101,3.132,3.2233,3.3635,3.3349,3.3106,3.2686,2.9824,2.8301,2.7708,2.6475,2.61,2.618,0.0,0.0,0.0,0.0,0.0,0.0,0.0,0.0,0.0,0.0,0.0,0.0,0.0,0.0,0.0,0.0,0.0,0.0,0.0,0.0,0.0,0.0,0.0,0.0,0.0,0.0,0.0,0.0,0.0,0.0,0.0,0.0,0.0,0.0,2.7391,2.898,2.9248,3.1329,3.2497,3.1854,3.2103,3.2739,3.3751,3.4574,3.5537,3.672,3.8058,3.9031,3.9565,4.0307,4.0707,4.0707,4.0931,4.1033,4.1061,4.1584,4.1852,4.1835,4.1644,4.1513,4.1453,4.0968,4.0742,4.07,4.0418,3.9552,3.8261,3.6918,3.6516,3.6586,3.6105,3.6651,3.7475,0.0,0.0,0.0,0.0,0.0,0.0,0.0,1.345,1.3508,1.3532,1.5477,1.7607,1.9649,2.2286,2.4075,2.4456,2.3786,2.2634,2.104,1.9763,1.9155,1.9305,2.0418,2.1478,2.2395,2.4092,2.5862,2.7679,2.9462,3.086,3.1908,3.2759,3.366,3.4551,3.3635,3.3773,3.4604,3.2897,3.1256,2.9671,2.7749,2.7427,2.7904,0.0,0.0,0.0,0.0,0.0,0.0,0.0,0.0,0.0,0.0,0.0,0.0,0.0,0.0,0.0,0.0,0.0,0.0,0.0,0.0,0.0,0.0,0.0,0.0,0.0,0.0,0.0,0.0,0.0,0.0,0.0,0.0,0.0,2.7447,2.9594,3.1488,3.23,3.4392,3.5538,3.494,3.6173,3.7337,3.8061,3.8839,3.9491,3.998,4.0737,4.1147,4.1147,4.1915,4.2308,4.2308,4.2308,4.2308,4.2308,4.2435,4.2493,4.2511,4.3394,4.3707,4.3557,4.3614,4.358,4.3401,4.2654,4.2315,4.2065,3.9652,3.8979,3.9392,3.9374,3.9329,3.9143,0.0,0.0,0.0,0.0,0.0,0.0,0.0,1.3252,1.3514,1.4335,1.6367,1.8684,2.1129,2.3072,2.4234,2.4342,2.2693,2.1022,1.9498,1.7635,1.7461,1.9438,2.0988,2.2772,2.4859,2.6049,2.7572,2.948,3.0676,3.2085,3.3695,3.3927,3.483,3.6228,3.6011,3.6431,3.7222,3.6199,3.5513,3.4745,3.0492,2.8546,2.8048,0.0,0.0,0.0,0.0,0.0,0.0,0.0,0.0,0.0,0.0,0.0,0.0,0.0,0.0,0.0,0.0,0.0,0.0,0.0,0.0,0.0,0.0,0.0,0.0,0.0,0.0,0.0,0.0,0.0,0.0,0.0,2.9114,3.0488,3.0296,3.2987,3.5429,3.6631,3.8489,3.9527,3.9169,3.9478,4.0046,4.0839,4.1103,4.1576,4.2385,4.2318,4.2329,4.2473,4.2462,4.2463,4.2463,4.2498,4.2498,4.2463,4.2483,4.2463,4.2374,4.3217,4.3234,4.2713,4.3846,4.3675,4.2662,4.3019,4.2822,4.2223,4.1543,4.1363,4.1403,4.0824,4.0245,3.9713,0.0,0.0,0.0,0.0,0.0,0.0,0.0,1.3199,1.3494,1.4577,1.6324,1.838,2.0774,2.2316,2.308,2.2851,2.1379,1.9815,1.8277,1.7491,1.8122,2.0426,2.2207,2.4169,2.631,2.7288,2.8692,3.0579,3.1488,3.2912,3.4841,3.5188,3.6296,3.7972,3.7648,3.7996,3.8788,3.8026,3.7723,3.7449,3.41,3.201,3.0709,2.9042,2.805,2.7484,2.7113,2.6499,2.5718,2.485,0.0,0.0,0.0,0.0,0.0,0.0,0.0,0.0,0.0,0.0,0.0,0.0,0.0,0.0,0.0,0.0,0.0,0.0,0.0,0.0,0.0,0.0,0.0,0.0,3.2201,3.4111,3.5046,3.6571,3.827,4.0085,4.1127,4.1819,4.21,4.2037,4.2197,4.2715,4.276,4.2969,4.3461,4.323,4.3132,4.3247,4.306,4.2892,4.2747,4.2787,4.2728,4.2546,4.2596,4.2568,4.2536,4.3366,4.3473,4.302,4.396,4.3803,4.2931,4.3082,4.2849,4.2419,0.0,0.0,0.0,0.0,4.1092,4.0382,0.0,0.0,0.0,0.0,0.0,0.0,0.0,1.3195,1.3485,1.4473,1.5807,1.7407,1.9356,2.0656,2.1184,2.0714,1.9847,1.8665,1.7155,1.8404,1.9963,2.1709,2.377,2.5581,2.7102,2.8143,2.9546,3.1371,3.2174,3.3629,3.5699,3.6393,3.7726,3.9462,3.8682,3.8853,3.9699,3.8979,3.8717,3.8702,3.7906,3.6382,3.4352,3.1987,3.0851,3.0442,2.9707,2.8398,2.6908,2.6014,0.0,0.0,0.0,0.0,0.0,0.0,0.0,0.0,0.0,0.0,0.0,0.0,0.0,0.0,0.0,0.0,0.0,0.0,0.0,0.0,0.0,0.0,0.0,0.0,3.5553,3.7956,4.0334,4.0074,4.0476,4.2667,4.2733,4.2952,4.3938,4.382,4.3736,4.3871,4.3878,4.3826,4.3722,4.3674,0.0,0.0,0.0,4.3487,4.3177,4.3159,4.2986,4.2679,4.2885,4.2922,4.281,4.3804,4.4075,4.3774,4.4019,4.3941,4.3616,4.2987,4.2681,4.2589,4.2399,4.2338,4.2338,4.2336,4.1861,4.1147,0.0,0.0,0.0,0.0,0.0,0.0,0.0,1.3286,1.3586,1.4486,1.601,1.7431,1.8615,1.9524,2.0027,1.9924,1.8051,1.6523,1.566,1.7863,1.9943,2.1644,2.48,2.6986,2.795,2.9466,3.1163,3.3044,3.337,3.4834,3.7337,3.7006,3.7809,3.9481,3.9327,3.9745,4.0565,4.0464,4.0458,4.0449,3.9638,3.7458,3.4545,3.3298,3.1945,3.0693,3.0372,3.005,2.9593,2.8678,2.7767,2.674,2.5107,2.3994,0.0,0.0,0.0,0.0,0.0,0.0,0.0,0.0,0.0,0.0,0.0,0.0,0.0,0.0,0.0,0.0,0.0,0.0,0.0,3.6543,3.8488,4.0315,4.2099,4.2742,4.3225,4.3708,4.3724,4.3845,4.4214,4.4192,4.4222,4.435,4.4357,4.4407,4.4481,4.414,4.4009,4.4162,4.3901,4.3719,4.3673,4.3447,4.3275,4.3178,4.3853,0.0,4.2703,4.4438,4.4372,4.2917,4.424,4.4068,4.2879,4.3354,4.3185,4.2599,4.256,4.254,4.254,4.2486,4.2356,4.2185,0.0,0.0,0.0,0.0,0.0,0.0,0.0,1.335,1.3595,1.4389,1.5356,1.6288,1.7155,1.7667,1.7787,1.7384,1.6277,1.578,1.6217,1.8444,2.0849,2.3288,2.5675,2.7525,2.8763,3.0059,3.1547,3.3299,3.3965,3.5669,3.8301,3.8123,3.8778,4.0092,4.013,4.039,4.0803,4.0863,4.0941,4.0977,4.0605,3.9191,3.7168,3.5812,3.4485,3.3223,3.2258,3.1032,2.9823,2.9311,2.8279,2.7116,2.6653,2.5609,2.4528,0.0,0.0,0.0,0.0,0.0,0.0,0.0,0.0,0.0,0.0,0.0,0.0,0.0,0.0,3.2286,3.3581,0.0,3.8365,4.0428,4.2158,4.3489,4.4168,4.4653,4.4703,4.4073,4.4082,4.4184,4.4285,4.4358,4.4466,4.4585,4.4599,4.4659,4.4783,4.457,4.451,4.4602,4.4448,4.4263,4.4091,4.3963,4.3802,4.36,4.4004,4.3867,4.3284,4.4257,4.4069,4.305,4.3858,4.3653,4.2783,4.318,4.3108,4.2747,4.2747,4.2689,4.2599,4.2558,4.2556,4.2484,0.0,0.0,0.0,0.0,0.0,0.0,0.0,1.3409,1.3548,1.4153,1.4568,1.5007,1.5523,1.5797,1.5616,1.4851,1.5106,1.5883,1.7298,1.9547,2.2113,2.5022,2.6598,2.8026,2.9365,3.0233,3.1464,3.3071,3.4215,3.6138,3.8785,3.9036,3.9711,4.071,4.0755,4.0787,4.0803,4.0859,4.0915,4.0997,4.1041,4.0609,3.9687,3.7967,3.6723,3.5698,3.3921,3.1598,2.9332,2.9257,2.8063,2.6739,2.7459,2.6693,2.5502,2.522,2.464,0.0,0.0,0.0,0.0,0.0,0.0,0.0,0.0,2.9455,3.0799,3.2487,3.4462,3.6349,3.7843,4.0333,4.2636,4.4088,4.5316,4.602,4.5772,4.5695,4.5262,4.4225,4.4237,4.4351,4.438,4.4487,4.4592,4.4738,4.4751,4.4796,4.4889,4.4895,4.4895,4.4895,4.4895,4.4777,4.4498,4.4436,4.4263,4.4004,4.4172,4.4133,4.3904,4.4141,4.3974,4.349,4.3431,4.3258,4.3004,4.3004,4.2967,4.2901,4.2958,4.2854,4.2668,4.2649,4.2639,4.2539,0.0,0.0,0.0,0.0,0.0,0.0,0.0,0.0,1.3505,1.359,1.4306,1.4628,1.4181,1.4634,1.4705,1.4081,1.5447,1.6715,1.7598,2.0822,2.3493,2.5281,2.7783,2.9216,2.9402,3.0206,3.139,3.3007,3.4083,3.6024,3.8718,3.8915,3.9658,4.0787,4.0739,4.0742,4.0797,4.0812,4.0848,4.0913,4.0976,4.053,3.9632,3.7949,3.6754,3.5751,3.3957,3.1643,2.9452,2.9336,2.813,2.6704,2.6799,2.6653,2.6305,2.5517,2.5213,2.5252,2.5831,2.5932,2.6231,2.7785,2.8373,2.951,0.0,3.4191,3.4832,3.6506,3.8774,4.0729,4.1648,4.3855,4.5834,4.6746,4.6449,4.6045,4.5908,4.5214,4.4677,4.448,4.4454,4.4517,4.4646,4.4672,4.4719,4.4864,4.487,4.4877,4.4895,4.4895,4.4895,4.4895,4.4895,4.4883,4.4833,4.4557,4.4376,4.436,4.5125,4.4935,4.3931,4.5013,4.4894,4.3826,4.3523,4.338,4.3345,4.3345,4.3169,4.2929,4.3231,4.3151,4.2862,4.2812,4.2774,4.2746,0.0,0.0,0.0,0.0,0.0,0.0,0.0,0.0,0.0,1.3383,1.3847,1.4061,1.3815,1.4075,1.4172,1.3927,1.5484,1.7012,1.826,2.1269,2.392,2.6021,2.7722,2.8881,2.9383,3.0641,3.1868,3.2996,3.4663,3.6303,3.7898,3.8286,3.9028,3.9986,4.0008,4.0298,4.0797,4.0797,4.0867,4.0929,4.0432,3.9775,3.8863,3.6621,3.4647,3.2867,3.1601,2.9782,0.0,2.7333,2.6609,2.6039,2.655,2.6303,2.5863,2.6009,2.5704,2.5466,2.6266,2.7497,2.8743,2.9479,3.1447,3.3774,3.6024,3.7619,3.9072,4.0704,4.2359,4.3791,4.4633,4.5755,4.6689,4.7004,4.7202,4.707,4.6353,4.5982,4.533,4.4165,4.4027,4.4203,4.4649,4.4764,4.4833,4.4908,4.4895,4.4895,4.4895,4.4895,4.4895,4.4895,4.4895,4.4895,4.4895,4.4764,4.4694,4.4694,4.5053,4.4975,4.4496,4.5,4.4843,4.4176,4.3841,4.3689,4.3689,4.3689,4.3607,4.3491,4.3423,4.331,4.316,4.2947,4.2861,4.2843,0.0,0.0,0.0,0.0,0.0,0.0,0.0,0.0,0.0,0.0,1.3552,1.3659,1.3698,1.3815,1.3896,1.3896,1.5288,1.6755,1.8128,2.0803,2.3322,2.5564,2.7015,2.817,2.903,3.0641,3.1762,3.2368,3.432,3.561,3.6276,3.7178,3.7963,3.8635,3.8987,3.9492,4.0078,4.0078,4.0157,4.0185,3.9323,3.8392,3.7225,3.4629,3.205,2.9744,2.9115,2.7579,2.5758,2.5124,2.4829,2.4848,2.5485,2.5369,2.5156,2.6018,2.6155,2.6195,2.7063,2.8984,3.0981,3.1904,3.4723,3.7673,3.9174,4.1017,4.2805,4.4222,4.5298,4.6046,4.6227,4.6781,4.7163,4.6946,4.7439,4.7542,4.6699,4.6234,4.5421,4.3931,4.3534,4.3675,4.4361,4.4512,4.4668,4.4876,4.4895,4.4895,4.4895,4.4895,4.4895,4.4895,4.4895,4.4895,4.4895,4.4895,4.4895,4.4895,4.4895,4.4895,4.4895,4.4895,4.477,4.453,4.4184,4.4042,4.4042,4.4042,4.3989,4.3889,4.3719,4.3565,4.3371,4.3142,4.2985,4.2892,0.0,0.0,0.0,0.0,0.0,0.0,0.0,0.0,0.0,0.0,0.0,0.0,0.0,1.3815,1.3896,1.3896,1.4783,1.5746,1.6693,1.9226,2.1465,2.3227,2.5634,2.7315,2.8114,2.9787,3.0682,3.0762,3.2393,3.3339,3.3658,3.5508,3.6461,3.6738,3.7778,3.8246,3.8273,3.8273,3.8321,3.8309,3.7491,3.6185,3.445,3.1951,2.9394,2.7106,2.7087,2.5405,2.3213,2.3189,2.313,2.3077,2.3097,2.3634,2.4382,2.5191,2.6564,2.8008,2.8819,3.0314,3.2445,3.5696,3.7869,4.0065,4.335,4.4812,4.5712,4.6626,4.7457,4.7519,4.5928,4.6966,4.7807,4.7024,4.6917,4.69,4.6788,4.5395,4.4253,4.3927,4.3141,4.2914,4.3656,4.3733,4.4061,4.4838,4.4895,4.4895,4.4895,4.4895,4.4895,4.4895,4.4895,4.4895,4.4895,4.4895,4.4895,4.4895,4.4895,4.4895,4.4895,4.4895,4.4889,4.487,4.4525,4.4376,4.4376,4.4376,4.4198,4.3935,4.4249,4.3971,4.3406,4.3397,4.3178,4.2892,0.0,0.0,0.0,0.0,0.0,0.0,0.0,0.0,0.0,0.0,0.0,0.0,0.0,0.0,0.0,0.0,1.4834,1.5792,1.6635,1.9232,2.0993,2.1588,2.4505,2.5982,2.5722,2.7836,2.8956,2.8971,3.0316,3.1031,3.1139,3.2037,3.3102,3.429,3.4654,3.5458,3.65,3.5916,3.5728,3.5619,3.3681,3.2259,3.0993,2.8437,2.6211,2.4394,0.0,2.304,2.2215,2.1648,2.2138,2.3004,2.3004,2.3588,2.4533,2.5863,2.7424,2.9124,3.1086,3.3276,3.583,3.9235,4.1354,4.3359,4.6182,4.7048,4.7182,4.6947,4.5774,4.4432,4.3297,4.3106,4.3226,4.3531,4.4542,4.5495,4.6066,4.5574,4.4934,4.4307,4.379,4.3569,4.3819,4.3758,4.4023,4.4838,4.4895,4.4895,4.4895,4.4895,4.4895,4.4895,4.4895,4.4895,4.4895,4.4895,4.4895,4.4895,4.4895,4.4895,4.4895,4.4895,4.4895,4.4889,4.4783,4.4726,4.4726,4.4726,4.4668,4.455,4.4443,4.4263,4.4009,4.3565,4.3328,4.3204,0.0,0.0,0.0,0.0,0.0,0.0,0.0,0.0,0.0,0.0,0.0,0.0,0.0,0.0,0.0,0.0,0.0,1.5174,1.5727,1.7734,1.9184,1.9819,2.2471,2.3985,2.4022,2.5866,2.6804,2.6819,2.7299,2.7721,2.8059,2.841,2.9335,3.0725,3.1107,3.1894,3.2907,3.2359,3.1819,3.1217,2.9893,2.8531,2.7089,2.5409,2.3925,0.0,2.1756,2.144,2.1356,2.0789,2.1695,2.2986,2.2693,2.3818,2.5422,2.6409,2.8497,3.1045,3.3577,3.635,3.9196,4.1985,4.397,4.5663,4.7293,4.7432,4.6898,4.5772,4.3987,4.2105,4.0346,3.9598,3.962,4.0817,4.194,4.3308,4.5126,4.5024,4.4689,4.4426,4.3935,4.3689,4.3878,4.3816,4.41,4.4844,4.4895,4.5047,4.535,4.5066,4.5047,4.535,4.5066,4.4895,4.4895,4.4895,4.4895,4.4895,4.4895,4.4895,4.4895,4.4895,4.4895,4.4895,4.4895,4.4895,4.4895,4.4895,4.4895,4.4877,4.4668,4.4505,4.4327,4.3775,4.3498,4.3354,0.0,0.0,0.0,0.0,0.0,0.0,0.0,0.0,0.0,0.0,0.0,0.0,0.0,0.0,0.0,0.0,0.0,0.0,1.4114,1.5005,1.6232,1.7853,1.973,2.1421,2.2924,2.3873,2.4368,2.4373,2.3621,2.3693,2.4583,2.486,2.5436,2.6321,2.7351,2.7836,2.7875,2.7821,2.6934,2.5598,2.6264,2.5135,2.3023,2.298,2.2498,2.1737,2.0897,2.0622,2.0677,2.0673,2.1803,2.3111,2.2447,2.4434,2.7033,2.7084,2.9991,3.3746,3.6285,3.9388,4.2331,4.4008,4.5643,4.6851,4.6889,4.6124,4.493,4.3246,4.2113,4.0411,3.7135,3.6617,3.7263,3.9049,3.9445,4.0733,4.4188,4.3998,4.3751,4.4465,4.3848,4.3564,4.4062,4.4102,4.435,4.4994,4.5002,4.535,4.6228,4.5483,4.5407,4.6247,4.5464,4.5009,4.4971,4.4971,4.4933,4.4895,4.4952,4.4933,4.4895,4.4895,4.4895,4.4895,4.4895,4.4895,4.4895,4.4895,4.4895,4.4895,4.4895,4.4707,4.4376,4.4035,4.3713,4.3406,0.0,0.0,0.0,0.0,0.0,0.0,0.0,0.0,0.0,0.0,0.0,0.0,0.0,0.0,0.0,0.0,0.0,0.0,1.4316,1.5245,1.5738,1.5568,1.8345,1.9787,1.9542,2.1573,2.2659,2.2703,2.2614,2.2672,2.2913,2.319,2.3787,2.4635,2.5003,2.553,2.6095,2.5497,2.5011,2.4531,2.3495,2.2701,2.2065,2.1416,2.1073,2.0895,2.0681,2.1011,2.1574,2.1573,2.3113,2.5239,2.6315,2.7626,2.9258,3.1707,3.4057,3.6521,3.9654,4.2043,4.4085,4.5812,4.6086,4.6105,4.6755,4.4757,4.2294,4.0608,3.8106,3.5547,3.3397,3.406,3.5727,3.8121,4.0092,4.2309,4.5104,4.5861,4.6199,4.6386,4.6707,4.6888,4.688,4.6824,4.6877,4.7054,4.6317,4.6228,4.7043,4.6891,4.6866,4.71,4.6891,4.6468,4.5868,4.5868,4.5539,4.4914,4.5558,4.552,4.4895,4.4895,4.4895,4.4895,4.4895,4.4895,4.4895,4.4895,4.4895,4.4895,4.4895,4.4852,4.47,4.4117,4.3993,4.4054,0.0,0.0,0.0,0.0,0.0,0.0,0.0,0.0,0.0,0.0,0.0,0.0,0.0,0.0,0.0,0.0,0.0,0.0,0.0,1.4905,1.5372,1.5698,1.7173,1.808,1.8299,1.9654,2.0039,1.9379,2.0187,2.0443,2.0162,2.0696,2.1442,2.2344,2.2402,2.2753,2.3229,2.2772,2.2151,0.0,0.0,2.0741,2.0126,2.0381,2.0546,2.0601,2.0601,2.1381,2.2668,2.419,2.5652,2.7207,2.9279,3.1001,3.2754,3.5282,3.7488,3.9569,4.1767,4.3867,4.559,4.6228,4.5988,4.534,4.4316,4.2039,3.9349,3.6539,3.4465,3.2521,3.0464,3.1182,3.2956,3.5546,3.7803,4.0387,4.3676,4.52,4.6297,4.7051,4.7502,4.7855,4.8107,4.8093,4.8182,4.8476,4.744,4.7168,4.8099,4.77,4.7618,4.7998,4.7637,4.7201,4.674,4.674,4.6487,4.5994,4.6152,4.5944,4.5464,4.5066,4.4895,4.4895,4.4895,4.4895,4.4895,4.4895,4.4895,4.4895,4.4895,4.4895,4.4884,4.4744,4.4567,4.4376,0.0,0.0,0.0,0.0,0.0,0.0,0.0,0.0,0.0,0.0,0.0,0.0,0.0,0.0,0.0,0.0,0.0,0.0,0.0,0.0,1.5138,1.6648,1.6296,1.6774,1.83,1.8315,1.7628,1.6246,1.7597,1.7881,1.7257,1.8126,1.8949,1.9704,1.9835,2.0015,2.0231,2.0229,1.9341,1.8114,1.974,1.9464,1.8241,0.0,2.0546,2.0621,2.0737,2.1712,2.3468,2.6962,2.8345,2.9116,3.184,3.4339,3.6573,3.8299,4.0401,4.2359,4.32,4.5066,4.6546,4.5731,4.531,4.4241,4.0927,3.8718,3.6211,3.2193,3.1284,3.0514,2.8251,2.8724,3.0308,3.2856,3.4737,3.7351,4.1583,4.3572,4.5247,4.6991,4.7407,4.7802,4.8489,4.8667,4.8996,4.9571,4.8557,4.8319,4.9257,4.8403,4.8213,4.8948,4.8137,4.765,4.7574,4.758,4.7523,4.7384,4.6815,4.6474,4.6323,4.5464,4.5122,4.5236,4.5122,4.5066,4.5085,4.5198,4.516,4.5085,4.5198,4.5236,4.5281,4.5692,4.5345,4.4693,0.0,0.0,0.0,0.0,0.0,0.0,0.0,0.0,0.0,0.0,1.4319,0.0,0.0,0.0,0.0,0.0,0.0,0.0,0.0,0.0,0.0,1.5176,1.6321,1.743,1.8447,1.8407,1.8267,1.8045,1.7626,1.7039,1.6349,1.7261,1.747,1.7095,1.7866,1.8628,1.9321,1.9333,1.9146,1.895,1.9998,1.9837,1.9081,2.0108,0.0,0.0,2.1415,2.1862,2.2623,2.608,2.8616,3.1074,3.5112,3.7118,3.8568,4.1585,4.2718,4.3311,4.4846,4.5577,4.5693,4.4843,4.3574,4.1828,3.9131,3.6151,3.3131,3.024,2.9101,2.8285,2.7149,2.8816,3.1217,3.3753,3.5588,3.8199,4.2473,4.3959,4.5243,4.6984,4.8467,4.9362,4.9398,5.0085,5.0593,5.0704,5.0371,5.0204,5.0324,5.0059,4.9851,4.979,4.9049,4.8606,4.849,4.8523,4.8175,4.7403,4.7991,4.7896,4.7157,4.6361,4.6342,4.6923,4.6266,4.5975,4.6038,4.6695,4.6563,4.6038,4.6721,4.6961,4.6929,4.6758,4.6355,4.5855,0.0,0.0,0.0,0.0,0.0,0.0,0.0,0.0,0.0,1.46,1.4611,1.4581,0.0,0.0,0.0,0.0,0.0,0.0,0.0,0.0,0.0,0.0,0.0,0.0,1.6565,1.7012,1.6865,1.6047,0.0,1.7418,1.6229,1.7562,1.7779,1.7088,1.7074,1.7334,1.7797,1.78,1.7794,1.7903,1.9245,1.9548,1.929,0.0,0.0,0.0,0.0,2.1899,2.2427,2.5845,2.8108,3.0329,3.503,3.7986,4.0189,4.264,4.3576,4.411,4.5399,4.5734,4.5386,4.4106,4.2486,4.0207,3.6322,3.3521,3.0898,2.7848,2.7275,2.7065,2.6221,2.8178,3.0329,3.1548,3.3538,3.6417,4.0716,4.2063,4.3932,4.7508,4.8705,4.9562,5.0392,5.0892,5.1158,5.1154,5.1064,5.0924,5.0723,5.0439,5.024,5.0101,4.9727,4.9486,4.9422,4.9455,4.9226,4.8744,4.8744,4.8504,4.8047,4.7213,4.7043,4.7384,4.6986,4.6809,4.6853,4.7251,4.7176,4.6866,4.7251,4.7403,4.744,4.7724,4.7405,4.6872,0.0,0.0,0.0,0.0,0.0,0.0,0.0,1.4786,1.5056,1.508,1.5076,1.5024,1.4856,1.4711,1.4571,0.0,0.0,0.0,0.0,0.0,0.0,0.0,0.0,0.0,0.0,0.0,0.0,1.4062,1.6516,0.0,0.0,0.0,0.0,0.0,1.6199,1.605,1.6303,1.6143,1.6162,0.0,0.0,1.8669,0.0,0.0,0.0,0.0,0.0,2.1627,2.2095,2.5142,2.6742,2.8218,3.2546,3.6633,4.0125,4.1757,4.3014,4.4064,4.5,4.5333,4.5086,4.3587,4.1494,3.8611,3.4051,3.143,2.9105,2.6035,2.5964,2.6243,2.5621,2.7426,2.9072,2.9265,3.1446,3.4538,3.8647,4.012,4.2609,4.7478,4.8424,4.9307,5.0868,5.1183,5.13,5.13,5.1263,5.1144,5.0877,5.0558,5.0358,5.0277,5.0236,5.0169,5.0101,5.0114,5.0089,4.9986,4.9359,4.9036,4.8946,4.8073,4.7789,4.7953,4.777,4.7687,4.7687,4.7858,4.7839,4.7706,4.7877,4.7934,4.8028,4.8692,4.8408,4.7782,0.0,0.0,0.0,0.0,0.0,0.0,0.0,1.4918,1.5917,1.5975,1.598,1.5972,1.5955,1.5254,1.4483,0.0,0.0,0.0,0.0,0.0,0.0,0.0,0.0,0.0,0.0,0.0,0.0,1.4897,1.4475,0.0,0.0,0.0,0.0,0.0,0.0,1.4669,1.538,1.4643,0.0,0.0,0.0,0.0,0.0,0.0,0.0,0.0,0.0,2.071,2.1003,2.2838,2.4047,2.5119,2.7167,3.1701,3.6602,3.827,4.0358,4.2316,4.3197,4.4012,4.4402,4.352,4.024,3.6518,3.3732,3.0576,2.7688,2.5792,2.5512,2.5584,2.5509,2.6944,2.8378,2.9169,3.1446,3.4325,3.7828,3.9749,4.2144,4.581,4.7707,4.9073,5.003,5.0833,5.13,5.13,5.1198,5.1108,5.1068,5.104,5.0844,5.0486,5.0541,5.0416,5.0108,5.017,5.0139,5.0005,4.9929,4.9891,4.9846,4.899,4.9009,4.9726,4.8927,4.8585,4.8635,4.9374,4.9242,4.8654,4.9374,4.9665,4.9677,4.9753,4.9279,4.8597,0.0,0.0,0.0,0.0,0.0,0.0,0.0,1.4552,1.5284,1.531,1.5313,1.5313,1.5313,1.5008,1.4668,0.0,0.0,0.0,0.0,0.0,0.0,0.0,0.0,0.0,0.0,0.0,1.3269,1.3611,1.3814,0.0,0.0,0.0,0.0,0.0,0.0,1.3477,1.3737,1.2882,0.0,0.0,0.0,0.0,0.0,0.0,0.0,0.0,0.0,0.0,2.0691,2.1374,2.2174,2.3012,2.3716,2.6187,2.9651,3.3972,3.7344,3.9979,4.139,4.2723,4.3273,4.148,3.8589,3.5372,3.2307,2.9314,2.688,2.5692,2.5484,2.5509,2.5509,2.6437,2.7503,2.8378,2.9362,3.14,3.5354,3.6544,3.8872,4.3901,4.6089,4.7934,4.9818,5.0794,5.13,5.13,5.1248,5.1225,5.1225,5.1036,5.084,5.0686,5.0625,5.0546,5.0391,5.0312,5.02,5.0114,5.0089,5.0063,5.0044,4.9656,4.9675,4.9986,4.9637,4.9452,4.945,4.9772,4.9722,4.945,4.9772,4.9905,4.9905,4.9905,4.9696,4.9362,0.0,0.0,0.0,0.0,0.0,0.0,1.3323,1.4367,1.5179,1.5179,1.5179,1.5186,1.5182,1.4975,1.4838,1.4857,0.0,0.0,0.0,0.0,0.0,0.0,0.0,0.0,0.0,0.0,1.2078,1.2343,1.2961,1.3838,0.0,0.0,1.4922,1.4892,0.0,0.0,0.0,0.0,0.0,0.0,0.0,0.0,0.0,0.0,0.0,0.0,0.0,0.0,0.0,0.0,0.0,2.1529,2.1529,2.2414,2.4514,2.9784,3.3691,3.6737,3.8746,4.0481,4.1296,3.955,3.6809,3.3847,3.1197,2.8391,2.6184,2.5625,2.5509,2.5509,2.5509,2.6165,2.6996,2.7855,2.8436,3.0091,3.3875,3.4898,3.7224,4.249,4.4489,4.6546,4.9372,5.0657,5.13,5.13,5.13,5.13,5.13,5.1086,5.0929,5.0884,5.0739,5.0634,5.0592,5.0402,5.0273,5.0194,5.0158,5.0133,5.0133,5.0063,5.0037,5.0031,5.0011,4.9978,4.9932,4.9918,4.9899,4.9932,4.9918,4.9905,4.9905,4.9905,4.976,4.945,0.0,0.0,0.0,0.0,0.0,0.0,0.0,1.4452,1.6095,1.6095,1.6095,1.6096,1.609,1.5376,1.493,1.4982,0.0,0.0,0.0,0.0,0.0,0.0,0.0,0.0,0.0,0.0,1.0587,1.1504,1.1523,1.2381,1.4018,1.4018,1.4042,1.411,0.0,0.0,0.0,0.0,0.0,0.0,0.0,0.0,0.0,0.0,0.0,0.0,0.0,0.0,0.0,0.0,0.0,0.0,0.0,2.1164,2.2497,2.5945,2.9299,3.2441,3.5057,3.698,3.8251,3.8215,3.5002,3.162,3.0791,2.7965,2.5509,2.5509,2.5509,2.5509,2.5509,2.6165,2.6996,2.7855,2.9459,3.147,3.4046,3.5945,3.8354,4.1796,4.3055,4.4986,4.8475,5.0326,5.13,5.13,5.13,5.13,5.13,5.1298,5.1236,5.1105,5.0891,5.0728,5.0592,5.0402,5.0273,5.0194,5.0194,5.0194,5.0207,5.0133,5.0101,5.0095,5.0037,5.0005,4.9979,4.9932,4.9945,4.9998,4.9932,4.9905,4.9905,4.9905,4.94,4.8717,0.0,0.0,0.0,0.0,0.0,0.0,0.0,1.4539,1.5418,1.543,1.5411,1.5424,1.542,1.5195,1.5065,1.5133,0.0,0.0,0.0,0.0,0.0,0.0,0.0,0.0,0.0,0.0,1.0605,1.1493,1.1493,1.2662,1.4884,1.4338,1.4694,1.5734,1.3989,1.3234,0.0,0.0,0.0,0.0,0.0,0.0,1.7177,0.0,0.0,0.0,0.0,0.0,0.0,0.0,0.0,0.0,0.0,0.0,0.0,2.285,2.5739,2.8801,3.0798,3.2551,3.3687,3.3148,3.1545,2.9863,2.9014,2.7097,2.5509,2.5509,2.5509,2.5509,2.5509,2.57,2.6534,2.8569,2.9343,3.0612,3.3219,3.5614,3.8153,4.104,4.5272,4.8649,5.0346,5.0989,5.13,5.13,5.13,5.13,5.13,5.13,5.1286,5.1239,5.0946,5.0789,5.0732,5.0445,5.029,5.0273,5.0212,5.0218,5.0273,5.0207,5.0176,5.0151,5.0101,5.0044,5.0005,4.9985,4.994,4.9926,4.9965,4.9945,4.9836,4.9279,4.8926,4.8547,0.0,0.0,0.0,0.0,0.0,0.0,0.0,1.4569,1.5098,1.5106,1.5092,1.5106,1.5092,1.483,1.4814,1.5207,0.0,0.0,0.0,0.0,0.0,0.0,0.0,0.0,0.0,1.0191,1.0797,1.1989,1.1658,1.2963,1.5768,1.4931,1.5115,1.6087,1.4825,1.4026,0.0,0.0,0.0,0.0,0.0,0.0,1.6338,0.0,0.0,0.0,0.0,0.0,0.0,0.0,0.0,0.0,0.0,0.0,0.0,0.0,2.2958,2.4862,2.7239,2.9089,3.0172,2.9338,2.8973,2.8492,2.7312,2.6246,2.5509,2.5509,2.5509,2.5509,2.5509,2.5758,2.6573,2.8492,2.9362,3.0599,3.2874,3.545,3.8319,4.1581,4.6456,4.9761,5.0307,5.093,5.13,5.13,5.13,5.13,5.13,5.13,5.13,5.13,5.1057,5.0873,5.0798,5.0543,5.0374,5.0302,5.0261,5.0267,5.0296,5.0261,5.0218,5.0207,5.0133,5.0095,0.0,5.0024,4.9998,4.9985,4.9998,4.9965,4.9836,4.937,4.8775,4.8054,0.0,0.0,0.0,0.0,0.0,0.0,0.0,0.0,0.0,0.0,1.5064,1.5025,1.5031,1.4313,1.4179,0.0,0.0,0.0,0.0,0.0,0.0,0.0,0.0,0.0,0.0,1.0257,1.1158,1.2898,1.2081,1.3427,1.6758,1.5823,1.5507,1.5707,1.6329,1.5211,0.0,0.0,0.0,0.0,0.0,0.0,0.0,0.0,0.0,0.0,0.0,0.0,0.0,0.0,0.0,0.0,0.0,0.0,0.0,0.0,0.0,0.0,0.0,2.6325,2.7372,2.6629,2.7078,2.7333,2.5838,2.5509,0.0,2.5509,2.5509,2.5548,2.5664,2.6242,2.7035,2.8105,2.9672,3.1393,3.3132,3.5845,3.9208,4.338,4.6897,4.8943,4.8884,5.0346,5.13,5.13,5.13,5.13,5.13,5.13,5.13,5.13,5.1174,5.1011,5.0798,5.0657,5.0485,5.0302,5.0302,5.0302,5.0302,5.0302,5.0273,5.0194,5.0139,5.0145,5.0188,5.0076,5.005,5.0095,5.0037,4.9972,4.9906,4.9833,4.8789,4.739,0.0,0.0,0.0,0.0,0.0,0.0,0.0,0.0,0.0,0.0,1.4664,1.4286,1.4325,1.3574,1.3149,0.0,0.0,0.0,0.0,0.0,0.0,0.0,0.0,0.0,0.0,1.0857,1.2049,1.3796,1.3594,1.5238,1.8554,1.7071,1.7054,1.8229,1.6481,1.498,1.3803,0.0,0.0,0.0,0.0,0.0,0.0,0.0,0.0,0.0,2.0535,2.0594,0.0,0.0,0.0,0.0,0.0,0.0,0.0,0.0,2.0477,2.0484,2.1365,0.0,2.3273,2.3695,2.4447,2.5163,0.0,2.5509,2.5509,2.5509,2.5509,2.5896,2.7176,2.7017,2.7613,3.0441,3.1811,3.311,3.4877,3.9665,4.387,4.6309,4.9021,5.0443,4.9781,5.0677,5.13,5.13,5.13,5.13,5.13,5.13,5.13,5.13,5.128,5.1103,5.0798,5.0513,5.0359,5.0302,5.0302,5.0302,5.0302,5.0302,5.0296,5.0278,5.0213,5.0194,5.0194,5.0163,5.0139,5.0095,5.0082,5.0037,4.9814,4.8555,4.7802,4.7239,0.0,0.0,0.0,0.0,0.0,0.0,0.0,0.0,0.0,0.0,0.0,0.0,0.0,0.0,0.0,0.0,0.0,0.0,0.0,0.0,0.0,0.0,0.0,0.0,1.0789,1.1262,1.2746,1.5298,1.4894,1.6653,2.0361,1.8643,1.8549,1.9685,1.7129,1.5504,1.4679,1.4269,1.3898,0.0,1.3956,0.0,0.0,0.0,0.0,0.0,1.9851,2.0261,0.0,2.0564,2.0505,2.0452,0.0,0.0,0.0,0.0,2.0321,2.0354,2.0399,2.1314,2.2267,2.2325,2.3579,2.4815,2.489,2.5219,2.5509,2.5509,2.5509,2.5896,2.7174,2.7365,2.8319,3.1313,3.2568,3.4307,3.7664,4.1655,4.5202,4.7792,4.9644,5.0677,5.0599,5.1028,5.13,5.13,5.093,5.0872,5.1281,5.0579,5.0502,5.1281,5.0849,5.0664,5.0798,5.0619,5.0441,5.0302,5.0302,5.0302,5.0302,5.0302,5.0302,5.0296,5.0237,5.0231,5.023,5.0206,5.0188,5.0151,5.0151,4.9867,4.9347,4.8497,4.7643,4.6771,0.0,0.0,0.0,0.0,0.0,0.0,0.0,0.0,0.0,0.0,0.0,0.0,0.0,0.0,0.0,0.0,0.0,0.0,0.0,0.0,0.0,0.0,0.0,1.068,1.1501,1.1776,1.3474,1.6695,1.6228,1.7986,2.1772,2.0171,1.9745,2.0214,1.7924,1.6416,1.5538,1.4679,1.3898,1.3333,1.4015,0.0,0.0,0.0,0.0,0.0,0.0,0.0,0.0,2.0528,2.0456,2.0392,2.0408,0.0,0.0,0.0,0.0,0.0,2.0556,2.172,2.2749,2.2054,2.3617,2.5142,2.4544,2.4967,2.5509,2.5509,2.5509,2.578,2.6734,2.7654,2.9099,3.1615,3.3223,3.5955,4.1056,4.3175,4.5337,4.8436,4.9625,5.0385,5.0872,5.1028,5.1047,5.093,5.0229,5.0131,5.0872,4.9566,4.9449,5.0872,5.0092,4.9895,5.0411,5.0654,5.06,5.0302,5.0302,5.0302,5.0302,5.0302,5.0302,5.0296,5.0249,5.0255,5.0296,5.0249,5.0225,5.0206,5.006,4.953,4.8802,4.8653,4.7627,4.6295,0.0,0.0,0.0,0.0,0.0,0.0,0.0,0.0,0.0,0.0,0.0,0.0,0.0,0.0,0.0,0.0,0.0,0.0,0.0,0.0,0.0,0.0,1.0309,1.0702,1.1562,1.2967,1.4685,1.6699,1.8043,1.9797,2.1867,2.0853,2.0051,1.9424,1.8291,1.7314,1.6435,1.5577,1.5129,1.5031,1.5148,0.0,0.0,0.0,0.0,0.0,0.0,0.0,0.0,2.0505,2.0461,2.0403,2.0409,0.0,0.0,0.0,0.0,0.0,2.1298,2.2188,2.2865,2.2749,2.3559,2.4563,2.5161,2.5393,2.5509,2.5509,2.5509,2.5983,2.7584,2.8558,2.9963,3.256,3.6159,4.0183,4.4699,4.6234,4.7365,4.8651,5.0151,5.0599,4.9313,4.98,4.9917,4.9235,4.906,4.904,4.9177,4.8943,4.8923,4.9177,4.9029,4.8875,4.8685,4.9984,5.0512,5.0302,5.0302,5.0302,5.0302,5.0302,5.0302,5.0302,5.029,5.029,5.0302,5.029,5.0284,5.0208,4.9481,4.9053,4.8712,4.7318,4.658,4.62,0.0,0.0,0.0,0.0,0.0,0.0,0.0,0.0,0.0,0.0,0.0,0.0,0.0,0.0,0.0,0.0,0.0,0.0,0.0,0.0,0.0,1.0989,1.1008,1.1615,1.2927,1.4174,1.5891,1.8099,1.8915,2.0182,2.1899,2.149,2.0592,1.9265,1.8388,1.7529,1.6649,1.5772,1.5402,1.5402,0.0,0.0,0.0,0.0,0.0,0.0,0.0,0.0,0.0,0.0,2.0423,2.0392,2.0367,0.0,0.0,0.0,0.0,0.0,2.0888,2.1935,2.2902,2.2902,2.3906,2.5014,2.5404,2.5506,2.5777,2.6703,2.6897,2.7425,2.9148,3.0519,3.2433,3.5558,3.9243,4.2427,4.4452,4.5524,4.6587,4.7932,4.8787,4.9138,4.8826,4.9138,4.9196,4.8826,4.836,4.8302,4.8768,4.7912,4.7834,4.8768,4.8341,4.8154,4.8295,4.901,4.9457,4.9658,5.0092,5.0302,5.0302,5.0302,5.0302,5.0302,5.0302,5.0302,5.0302,5.0302,5.0034,4.9614,4.9203,4.8464,4.7458,4.621,4.573,4.5653,0.0,0.0,0.0,0.0,0.0,0.0,0.0,0.0,0.0,0.0,0.0,0.0,0.0,0.0,0.0,0.0,0.0,0.0,0.0,0.0,1.0696,1.1556,1.181,1.2688,1.4366,1.505,1.669,1.9304,1.9499,2.0377,2.188,2.1899,2.0963,1.9265,1.8388,1.7529,1.6649,1.5772,1.5402,1.5402,0.0,0.0,0.0,0.0,0.0,0.0,0.0,0.0,0.0,0.0,0.0,0.0,0.0,0.0,0.0,2.04,2.0537,2.0693,2.0693,2.1933,2.3192,2.3192,2.435,2.5619,2.6014,2.6276,2.6918,2.8649,2.902,2.9406,3.0682,3.2516,3.4973,3.852,4.156,4.3734,4.4416,4.5085,4.6081,4.762,4.7795,4.799,4.8458,4.8497,4.8419,4.8204,4.7561,4.7483,4.8165,4.6938,4.6801,4.8146,4.7542,4.7388,4.7768,4.7923,4.8369,4.9104,4.971,5.0111,5.0283,5.0092,5.013,5.0283,5.0092,5.013,5.0302,5.0302,4.9824,4.9085,4.8875,4.7739,4.6148,4.5451,4.5203,4.5219,0.0,0.0,0.0,0.0,0.0,0.0,0.0,0.0,0.0,0.0,0.0,0.0,0.0,0.0,0.0,0.0,0.0,0.0,0.0,0.0,1.0696,1.1556,1.2376,1.3587,1.5265,1.5363,1.669,1.9304,2.0105,2.0944,2.1802,2.186,2.0963,1.9265,1.8388,1.7529,1.6649,1.5772,1.5402,1.5402,1.5404,0.0,0.0,0.0,0.0,0.0,0.0,0.0,0.0,0.0,0.0,0.0,0.0,0.0,2.04,2.04,2.0966,2.1611,2.1611,2.2826,2.4118,2.4118,2.4813,2.5911,2.7533,2.8537,2.9619,3.1365,3.1721,3.1757,3.1879,3.3928,3.6761,4.026,4.2325,4.4378,4.6874,4.7269,4.7659,4.8594,4.8709,4.8419,4.7678,4.7581,4.7269,4.6451,4.6334,4.6314,4.6373,4.6275,4.6256,4.6373,4.6334,4.6253,4.6163,4.679,4.7763,4.9104,4.9161,4.9582,5.0264,4.9524,4.9601,5.0264,4.9505,4.962,5.0302,5.0302,4.9824,4.9028,4.822,4.6877,4.5368,4.5257,4.523,4.5297,0.0,0.0,0.0,0.0,0.0,0.0,0.0,0.0,0.0,0.0,0.0,0.0,0.0,0.0,0.0,0.0,0.0,0.0,0.0,0.0,1.0627,1.1505,1.2366,1.3909,1.6154,1.6218,1.7216,1.9304,2.0163,2.0769,2.1042,2.0514,1.9636,1.8446,1.7587,1.6709,1.587,1.554,1.5403,1.5402,1.5398,1.5392,0.0,0.0,0.0,0.0,0.0,0.0,0.0,0.0,1.9325,1.9641,2.0225,2.04,2.04,2.04,2.0634,2.1004,2.1551,2.2554,2.3568,2.4085,2.526,2.6618,2.782,2.8778,3.0053,3.2336,3.4077,3.5675,3.7307,3.7982,3.9243,4.2141,4.3605,4.4915,4.6468,4.6685,4.6801,4.7133,4.7172,4.7055,4.6724,4.6685,4.6548,4.6217,4.6197,4.6197,4.6197,4.6197,4.6197,4.6197,4.6197,4.6074,4.5828,4.606,4.663,4.7494,4.8028,4.8443,4.8749,4.8424,4.8462,4.8768,4.9008,4.9276,4.9543,4.9543,4.906,4.8162,4.6787,4.5856,4.5302,4.5275,4.5286,4.5302,0.0,0.0,0.0,0.0,0.0,0.0,0.0,0.0,0.0,0.0,0.0,0.0,0.0,0.0,0.0,0.0,0.0,0.0,1.0274,1.0227,1.0591,1.1469,1.2328,1.3894,1.6244,1.6562,1.7699,1.9714,2.03,2.0594,2.0594,1.9988,1.9109,1.7978,1.7373,1.6476,1.5403,1.5402,1.54,1.5398,1.5407,1.5396,0.0,0.0,0.0,0.0,0.0,0.0,0.0,0.0,1.8865,1.9241,2.0129,2.04,2.04,2.04,2.0796,2.1291,2.1607,2.2729,2.3864,2.4161,2.574,2.7578,2.9,3.0427,3.2185,3.4817,3.6724,3.8475,4.0296,4.0153,4.0513,4.282,4.415,4.5205,4.6081,4.6197,4.6197,4.6197,4.6197,4.6197,4.6197,4.6197,4.6197,4.6197,4.6197,4.6197,4.6197,4.6197,4.6197,4.6197,4.6197,4.6072,4.5796,4.5731,4.5857,4.6179,4.6743,4.7297,4.7788,4.7526,4.7545,4.7813,4.8143,4.8435,4.8697,4.8697,4.8181,4.7259,4.5856,4.5302,4.5302,4.5302,4.5302,4.5302,0.0,0.0,0.0,0.0,0.0,0.0,0.0,0.0,0.0,0.0,0.0,0.0,0.0,0.0,0.0,0.0,0.0,0.0,1.0195,1.0195,1.0587,1.1451,1.2321,1.3621,1.5363,1.6275,1.8001,2.0594,2.0594,2.0594,2.0594,2.0594,1.9676,1.8017,1.8,1.7044,1.5404,1.5414,1.5409,1.5407,1.5391,1.5399,1.5391,0.0,0.0,0.0,0.0,0.0,0.0,0.0,1.8373,1.9241,2.0129,2.04,2.04,2.04,2.163,2.2801,2.1932,2.356,2.5292,2.4511,2.6246,2.8809,3.142,3.402,3.6638,3.9273,3.9761,3.9748,3.9838,3.9799,4.0314,4.2037,4.376,4.5205,4.6081,4.6197,4.6197,4.6197,4.6197,4.6197,4.6197,4.6197,4.6197,4.6197,4.6197,4.6197,4.6197,4.6197,4.6197,4.6197,4.6197,4.6138,4.5999,4.5796,4.5627,4.5509,4.5366,4.6175,4.7755,4.6877,4.6953,4.7736,4.6877,4.6991,4.7788,4.7788,4.7278,4.6405,4.5607,4.5302,4.5302,4.5302,4.5302,4.5302,0.0,0.0,0.0,0.0,0.0,0.0,0.0,0.0,0.0,0.0,0.0,0.0,0.0,0.0,0.0,0.0,0.0,0.0,1.0195,1.02,1.0327,1.0564,1.1959,1.3557,1.5299,1.7941,1.9439,1.9695,2.03,2.0594,2.0594,1.9968,1.9404,1.8898,1.8222,1.7321,1.6313,1.6251,1.5929,1.5404,1.5342,1.5325,1.5331,0.0,0.0,0.0,0.0,0.0,0.0,0.0,0.0,0.0,2.0129,2.04,2.04,2.04,2.1204,2.2164,2.2511,2.361,2.488,2.5821,2.8042,3.0517,3.2463,3.3981,3.6249,4.0656,4.1549,4.1917,4.3156,4.2875,4.2813,4.3955,4.4561,4.5205,4.6081,4.6197,4.6197,4.6197,4.6197,4.6197,4.6197,4.6197,4.6197,4.6197,4.6197,4.6197,4.6197,4.6197,4.6197,4.6197,4.6197,4.6069,4.5793,4.5727,4.5587,4.5361,4.5314,4.5569,4.6023,4.5774,4.5799,4.6061,4.6366,4.6648,4.6896,4.6896,4.6405,4.5627,4.5397,4.5302,4.5302,4.5302,4.5302,4.5302,0.0,0.0,0.0,0.0,0.0,0.0,0.0,0.0,0.0,0.0,0.0,0.0,0.0,0.0,0.0,0.0,0.0,0.0,0.0,1.0165,1.0155,1.0155,1.1781,1.3824,1.6244,1.8983,2.0172,1.9745,2.0284,2.0563,2.0545,2.0046,1.9618,1.9225,1.8337,1.7665,1.7131,1.6384,1.6195,1.6367,1.5969,1.5813,1.5823,0.0,0.0,0.0,0.0,0.0,0.0,0.0,0.0,0.0,2.0129,2.04,2.0461,2.0807,2.1537,2.2401,2.3283,2.4145,2.5139,2.6494,2.9079,3.1995,3.4739,3.6568,3.8832,4.2997,4.3291,4.3233,4.4639,4.4189,4.3895,4.4756,4.5186,4.5593,4.6139,4.6197,4.6197,4.6197,4.6197,4.6197,4.6197,4.6197,4.6197,4.6197,4.6197,4.6197,4.6197,4.6197,4.6197,4.6197,4.6197,4.6036,4.571,4.5783,4.565,4.5302,4.5351,4.5346,4.5302,4.5302,4.5302,4.5321,4.5812,4.6023,4.6023,4.6023,4.5741,4.5302,4.5302,4.5302,4.5302,4.5302,4.5302,4.5302,0.0,0.0,0.0,0.0,0.0,0.0,0.0,0.0,0.0,0.0,0.0,0.0,0.0,0.0,0.0,0.0,0.0,0.0,0.0,0.0,1.0172,1.0327,1.2083,1.4561,1.7837,1.953,2.0386,2.0386,2.046,2.0502,2.0506,2.0551,2.0144,1.9291,1.8553,1.8109,1.7797,1.6203,1.6345,1.7599,1.6807,1.6482,1.6484,1.6484,0.0,0.0,0.0,0.0,0.0,0.0,0.0,0.0,2.0149,2.0458,2.0661,2.1476,2.2365,2.3287,2.4084,2.4987,2.5948,2.6902,2.9832,3.3564,3.7774,4.0583,4.2979,4.536,4.4715,4.3973,4.4853,4.4306,4.3992,4.4872,4.5671,4.6197,4.6197,4.6197,4.6197,4.6197,4.6197,4.6197,4.6197,4.6197,4.6197,4.6197,4.6197,4.6197,4.6197,4.6197,4.6197,4.6197,4.6197,4.6041,4.5731,4.5908,4.5772,4.5314,4.5447,4.5428,4.5302,4.5302,4.5302,4.5302,4.5302,4.5302,4.5302,4.5302,4.5302,4.5302,4.5302,4.5302,4.5302,4.5302,4.5302,4.5302,0.0,0.0,0.0,0.0,0.0,0.0,0.0,0.0,0.0,0.0,0.0,0.0,0.0,0.0,0.0,0.0,0.0,0.0,0.0,0.0,1.0713,1.2084,1.443,1.6631,1.871,1.9778,2.0324,2.0324,2.0433,2.0505,2.0506,2.0519,2.0407,2.0212,1.9971,1.9146,1.786,1.7439,1.6722,1.5839,1.5661,1.5583,1.5576,1.5576,1.5461,0.0,0.0,0.0,0.0,0.0,0.0,0.0,2.0342,2.0869,2.1461,2.1633,2.2809,2.4059,2.4259,2.5446,2.6998,2.854,3.2533,3.6857,3.986,4.146,4.2452,4.3018,4.3936,4.4892,4.5769,4.5204,4.4911,4.5788,4.6081,4.6197,4.6197,4.6197,4.6197,4.6197,4.6197,4.6197,4.6197,4.6197,4.6197,4.6197,4.6197,4.6197,4.6197,4.6197,4.6197,4.6197,4.6197,4.6111,4.5944,4.5989,4.5822,4.5451,4.5496,4.5428,4.5302,4.5302,4.5302,4.5302,4.5302,4.5302,4.5302,4.5302,4.5302,4.5302,4.5302,4.5302,4.5302,4.5302,4.5302,4.5302,0.0,0.0,0.0,0.0,0.0,0.0,0.0,0.0,0.0,0.0,0.0,0.0,0.0,0.0,0.0,0.0,0.0,0.0,0.0,0.0,0.0,1.3812,1.5562,1.7276,1.8955,1.9842,2.0306,2.0306,2.0393,2.0447,2.0462,2.0878,2.0848,2.0453,2.0411,1.9913,1.9017,1.7766,1.7172,1.708,1.6664,1.6493,1.654,1.6965,1.6868,1.6502,1.6502,0.0,0.0,0.0,0.0,0.0,0.0,0.0,2.1781,2.2233,2.3284,2.4408,2.4859,2.5632,2.7042,3.0005,3.3375,3.6746,3.9784,4.1128,4.1828,4.2218,4.3349,4.4423,4.4871,4.4579,4.4423,4.4871,4.4968,4.5105,4.5515,4.5222,4.5105,4.5535,4.5574,4.5574,4.5574,4.5964,4.6197,4.6197,4.6197,4.6197,4.6197,4.6197,4.6197,4.6197,4.6197,4.614,4.6002,4.5999,4.5835,4.5494,4.5494,4.5428,4.5302,4.5302,4.5302,4.5302,4.5302,4.5302,4.5302,4.5302,4.5302,4.5302,4.5302,4.5302,4.5302,4.5302,4.5302,4.5302,0.0,0.0,0.0,0.0,0.0,0.0,0.0,0.0,0.0,0.0,0.0,0.0,0.0,0.0,0.0,0.0,0.0,0.0,0.0,0.0,0.0,1.5559,1.6466,1.7643,1.919,1.9932,2.0305,2.0309,2.0365,2.0455,2.0616,2.1206,2.1179,2.0613,2.0467,2.0319,2.0034,1.7931,1.7757,1.8817,1.8084,1.7794,1.7871,1.8605,1.8431,1.7794,1.7794,1.8353,1.9108,1.9096,0.0,0.0,0.0,0.0,2.1872,2.2813,2.3661,2.4502,2.5459,2.5913,2.7063,3.0902,3.324,3.5384,3.8422,4.0037,4.107,4.1731,4.2666,4.3426,4.3562,4.3484,4.3426,4.3582,4.3601,4.3856,4.4561,4.4051,4.3875,4.46,4.4678,4.4736,4.4894,4.5554,4.6042,4.6197,4.6197,4.6197,4.6197,4.6197,4.6197,4.6197,4.6197,4.6068,4.5816,4.5796,4.5557,4.5094,4.5053,4.4973,4.4862,4.4862,4.5034,4.5302,4.5302,4.5302,4.5302,4.5302,4.5302,4.5302,4.5302,4.5302,4.5302,4.5302,4.5302,4.5302,0.0,0.0,0.0,0.0,0.0,0.0,0.0,0.0,0.0,0.0,0.0,0.0,0.0,0.0,0.0,0.0,0.0,0.0,1.3515,0.0,0.0,1.7334,1.8201,1.9113,2.0107,2.0244,2.0293,2.0292,2.0305,0.0,0.0,0.0,0.0,2.1499,2.0731,1.9985,1.9241,1.8914,1.845,1.7968,1.7852,1.7794,1.7813,1.7929,0.0,1.7794,1.7794,1.8353,1.9093,1.9104,1.9674,0.0,0.0,0.0,2.1872,2.2816,2.3678,2.4497,2.5459,2.6769,2.8366,3.0451,3.2791,3.4916,3.6142,3.8266,3.9998,4.0115,4.1382,4.2705,4.3465,4.2978,4.2724,4.3484,4.3601,4.364,4.3757,4.3679,4.364,4.3757,4.3776,4.407,4.4834,4.5011,4.5399,4.6139,4.6197,4.6197,4.6197,4.6197,4.6197,4.6197,4.6197,4.5824,4.5053,4.4921,4.4403,4.3499,4.3269,4.3148,4.3138,4.3138,4.3926,4.5302,4.5302,4.5302,4.5302,4.5302,4.5302,4.5302,4.5302,4.5302,4.5302,4.5302,4.5302,4.5302,0.0,0.0,0.0,0.0,0.0,0.0,0.0,0.0,0.0,0.0,0.0,0.0,0.0,0.0,0.0,1.41,1.4544,1.5179,1.5982,1.6755,1.7545,1.8395,1.8806,1.941,2.0284,2.0308,2.0304,2.0293,0.0,0.0,0.0,2.1962,2.2016,0.0,0.0,0.0,2.0485,1.9514,1.8875,1.853,1.853,1.8538,1.8577,0.0,0.0,0.0,0.0,0.0,1.9837,1.987,2.0131,2.0464,2.0488,0.0,0.0,0.0,2.3698,2.4555,2.5462,2.6575,2.7762,2.9028,3.0918,3.2946,3.476,3.6434,3.8032,3.9492,4.0388,4.1167,4.2042,4.1887,4.175,4.214,4.2198,4.2354,4.2802,4.2471,4.2374,4.2822,4.2861,4.3211,4.409,4.4169,4.452,4.5418,4.5027,4.4733,4.4733,4.4733,4.4733,4.4733,4.4733,4.452,4.4068,4.3926,4.3562,4.2971,4.2364,4.2335,4.2775,4.2297,4.2985,4.4565,4.4565,4.4857,4.5302,4.5302,4.5302,4.5302,4.5302,4.5302,4.5302,4.5302,4.5302,4.5302,0.0,0.0,0.0,0.0,0.0,0.0,0.0,0.0,0.0,0.0,0.0,0.0,0.0,0.0,0.0,0.0,1.6426,1.7159,1.7984,1.8026,1.8414,1.9288,1.9333,1.9633,2.0281,2.0292,2.0308,2.0331,0.0,0.0,2.2902,2.2902,2.3134,0.0,2.3095,2.2575,0.0,0.0,1.9752,1.9741,1.9516,1.9433,0.0,0.0,0.0,0.0,0.0,2.0738,2.0742,2.0809,2.0837,2.0782,2.0568,2.0944,0.0,0.0,0.0,2.4588,2.5465,2.6146,2.6808,2.7665,2.9009,3.0684,3.281,3.4312,3.5871,3.8032,3.8831,3.9414,4.0271,4.0797,4.1109,4.1109,4.1109,4.1304,4.1906,4.1479,4.1323,4.1926,4.2003,4.2335,4.3192,4.327,4.3622,4.4502,4.3973,4.3601,4.3601,4.3601,4.3601,4.3601,4.3601,4.343,4.3071,4.2705,4.2394,4.2163,4.1514,4.1533,4.2144,4.1495,4.2106,4.3706,4.3911,4.4489,4.5302,4.5302,4.5302,4.5302,4.5302,4.5302,4.5302,4.5302,4.5302,4.5302,0.0,0.0,0.0,0.0,0.0,0.0,0.0,0.0,0.0,0.0,0.0,0.0,1.7564,1.7564,1.7564,1.7564,1.7603,1.8003,1.8881,1.8929,1.9326,2.0186,2.0227,0.0,2.0303,2.0305,2.0331,0.0,0.0,0.0,2.2902,2.2902,2.377,2.5296,2.3637,2.2884,2.2787,0.0,0.0,2.1493,2.0664,2.0375,0.0,0.0,0.0,0.0,0.0,2.1625,2.1648,2.1706,2.1732,2.1581,2.0765,2.0537,2.0731,0.0,0.0,0.0,2.5465,2.5738,2.5952,2.6769,2.7665,2.858,2.9554,3.1719,3.3787,3.4682,3.6181,3.7603,3.848,3.9998,4.1109,4.1109,4.1109,4.1109,4.1167,4.1128,4.1128,4.1167,4.1167,4.1479,4.2296,4.2374,4.2724,4.3601,4.362,4.3601,4.3601,4.3601,4.3601,4.3601,4.3601,4.3138,4.2175,4.1141,4.0566,4.0439,4.0382,4.0382,4.0439,4.0382,4.128,4.2908,4.3668,4.4489,4.5302,4.5302,4.5302,4.5302,4.5302,4.5302,4.5302,4.5302,4.5302,4.5302,0.0,0.0,0.0,0.0,0.0,0.0,0.0,0.0,0.0,0.0,0.0,0.0,0.0,1.9367,1.9367,1.9367,1.9363,1.9505,1.9809,1.9826,1.9971,2.0285,2.0297,2.0292,2.0307,2.0898,2.1216,0.0,0.0,2.3151,2.3753,2.4312,2.489,2.5451,2.4254,2.3733,2.3675,2.2826,0.0,2.251,2.2181,2.211,0.0,0.0,2.2172,2.2211,2.2503,2.26,2.2603,2.2624,2.2631,2.2574,2.2269,2.1784,2.1512,2.2388,2.3868,2.5309,2.5621,2.5699,2.5777,2.6068,2.675,2.7587,2.8463,2.9828,3.1447,3.3416,3.4741,3.5968,3.7409,3.8636,3.9433,3.9433,3.9433,3.9433,3.9433,3.9901,4.0271,4.0271,4.0758,4.1421,4.2218,4.1828,4.1867,4.2705,4.2296,4.2003,4.2003,4.2003,4.2003,4.2003,4.1361,4.0507,3.9419,3.9488,3.9235,3.8648,3.9771,4.0019,3.9484,4.0038,4.0917,4.2011,4.287,4.4017,4.5302,4.5302,4.5302,4.5302,4.5302,4.5302,4.5302,4.5302,4.5302,4.5302,0.0,0.0,0.0,0.0,0.0,0.0,0.0,0.0,0.0,0.0,0.0,0.0,0.0,0.0,2.1161,2.1161,2.1174,2.1163,2.1163,2.1176,2.1167,2.1175,2.1168,2.1178,2.1165,2.1778,2.2093,0.0,0.0,0.0,0.0,2.4793,2.5227,2.5474,2.4895,2.4643,0.0,0.0,2.3373,2.3413,2.3142,2.3068,2.3108,2.3108,2.3108,2.3147,2.3439,2.3536,2.3539,2.3533,2.3537,2.3498,2.3186,2.2699,2.2408,0.0,2.4355,2.5329,2.5621,2.5699,2.5699,2.5699,2.6107,2.6653,2.7237,2.8015,2.9205,3.1232,3.2557,3.3765,3.5228,3.6202,3.7155,3.8305,3.85,3.85,3.85,3.9005,3.9355,3.9355,3.9862,4.0446,4.0973,4.0544,4.0446,4.0973,4.0797,4.0661,4.0661,4.0661,4.0515,4.0163,3.9462,3.87,3.791,3.8342,3.8266,3.7716,3.9159,3.9561,3.903,3.9904,4.0745,4.1557,4.2412,4.3596,4.4895,4.5187,4.5302,4.5302,4.5302,4.5302,4.5302,4.5302,4.5302,4.5302,0.0,0.0,0.0,0.0,0.0,0.0,0.0,0.0,0.0,2.0334,0.0,0.0,0.0,0.0,0.0,2.2902,2.2902,2.2904,2.2904,2.2904,2.2894,2.2894,2.2894,2.2903,2.2902,2.2921,2.294,2.294,2.2961,2.3406,0.0,0.0,2.4686,2.5497,2.5497,2.5497,2.5441,2.46,2.4285,2.4276,2.3484,2.3168,2.3186,2.3186,2.3186,2.3284,2.4122,2.4432,2.4432,2.4432,2.4432,2.4297,2.3401,0.0,0.0,0.0,0.0,0.0,0.0,0.0,0.0,2.5699,2.5699,2.5699,2.5699,2.6302,2.7101,2.7976,2.9535,3.0996,3.1858,3.2735,3.4409,3.774,3.8344,3.8383,3.8344,3.8402,3.8441,3.8422,3.848,3.85,3.85,3.85,3.85,3.85,3.9277,3.9765,3.9765,3.9765,3.9307,3.8296,3.8127,3.8,3.7822,3.771,3.7659,3.764,3.8553,3.8992,3.8992,3.9885,4.0726,4.1519,4.2412,4.3247,4.4025,4.4934,4.5302,4.5302,4.5302,4.5302,4.5302,4.5302,4.5302,4.5302,0.0,0.0,0.0,0.0,0.0,0.0,0.0,0.0,0.0,0.0,0.0,0.0,2.2535,2.2767,2.2902,2.2902,2.2896,2.2904,2.2904,2.2898,2.2909,2.2895,2.2895,2.2896,2.2902,2.3521,2.3848,2.3848,2.448,2.4899,2.5131,2.5195,2.5347,0.0,2.5568,2.5564,2.5565,2.5326,2.5223,2.5217,2.5004,2.494,2.4978,2.4978,2.4978,2.5017,2.5251,2.5348,2.5348,2.5348,2.5348,2.5192,2.4316,0.0,0.0,0.0,0.0,0.0,2.5621,0.0,0.0,0.0,0.0,0.0,2.5699,2.5874,2.6263,2.7081,2.8132,2.9184,3.0062,3.0939,3.1834,3.2788,3.4486,3.5481,3.4897,3.6395,3.7331,3.6688,3.774,3.85,3.85,3.85,3.85,3.85,3.8714,3.887,3.887,3.887,3.8388,3.7319,3.726,3.6823,3.5959,3.653,3.6523,3.5916,3.7994,3.8667,3.8113,3.9618,4.042,4.0707,4.2163,4.2928,4.3228,4.4709,4.5302,4.5302,4.5302,4.5302,4.5302,4.5302,4.5302,4.5302,0.0,0.0,0.0,0.0,0.0,0.0,0.0,0.0,0.0,0.0,0.0,0.0,2.3951,2.3989,2.3989,2.3989,2.398,2.3987,2.3987,2.3977,2.3983,2.3983,2.3982,2.3973,2.3973,2.4508,2.4786,2.4786,2.5292,2.5535,2.5536,2.5573,2.5608,2.5601,0.0,0.0,0.0,2.5644,2.5647,2.5642,2.5642,2.5669,2.5699,2.5699,2.5699,2.5699,2.5699,2.5913,2.6146,2.5816,2.5699,2.5601,2.5095,2.529,0.0,0.0,0.0,0.0,0.0,0.0,0.0,2.5699,0.0,0.0,2.5699,2.5699,2.5835,2.6302,2.7062,2.7801,2.8327,2.9126,2.973,2.973,3.127,3.2557,3.2813,3.4448,3.5423,3.4916,3.5754,3.6377,3.6377,3.6688,3.6863,3.6863,3.7545,3.7954,3.7954,3.7954,3.7463,3.6394,3.637,3.5974,3.5209,3.5702,3.5893,3.5759,3.7597,3.8381,3.8285,3.9675,4.0306,4.0363,4.1686,4.245,4.2908,4.4227,4.4972,4.5302,4.5302,4.5302,4.5302,4.5302,4.5302,4.5302,0.0,0.0,0.0,0.0,0.0,0.0,0.0,0.0,0.0,0.0,2.379,2.4641,2.5412,2.5494,2.5497,2.5497,2.5501,2.5503,2.5503,2.5503,2.5503,2.5503,2.5501,2.5501,2.5501,2.5567,2.56,2.56,2.5604,2.5605,2.5605,2.561,2.5607,2.5612,0.0,0.0,0.0,2.5699,2.5699,2.5699,2.5699,2.5699,2.5699,2.5699,2.5699,2.5699,2.5699,2.6166,2.6653,2.5933,2.5699,2.5699,2.5699,2.5699,2.5699,2.5699,2.5699,0.0,0.0,0.0,0.0,2.5718,2.5835,0.0,2.5738,2.5777,2.5816,2.5718,2.6263,2.6769,2.6769,2.7393,2.7918,2.7918,2.8658,2.9789,3.1449,3.2501,3.3104,3.3104,3.3203,3.3281,3.3397,3.4059,3.4468,3.4468,3.5988,3.6941,3.7058,3.7033,3.6598,3.5635,3.5596,3.5451,3.5209,3.5205,3.5587,3.6366,3.7273,3.8113,3.8897,3.9866,4.0306,4.0344,4.1151,4.1991,4.287,4.3668,4.4508,4.5302,4.5302,4.5302,4.5302,4.5302,4.5302,4.5302,0.0,0.0,0.0,0.0,0.0,0.0,0.0,0.0,0.0,2.3944,2.4718,2.5316,2.549,2.5503,2.5503,2.5503,2.5548,2.5581,2.5581,2.5581,2.5581,2.5581,2.5588,2.5573,2.5573,2.5597,2.56,2.56,2.5607,2.56,2.56,2.5658,2.5689,2.5673,0.0,0.0,0.0,2.5699,2.5699,2.5699,2.5699,2.5699,2.5699,2.5699,2.5699,2.5699,2.5699,2.5796,2.5913,2.5757,2.5699,2.5699,2.5699,2.5699,2.5699,2.5699,2.5699,2.5699,2.5699,2.6166,2.6516,2.5855,2.6711,0.0,2.6011,2.6204,2.6477,2.5835,2.5816,2.5933,2.5933,2.6069,2.6185,2.6185,2.6867,2.7763,2.8815,3.0315,3.1308,3.1308,3.1935,3.2638,3.3339,3.3534,3.3631,3.3631,3.4546,3.5403,3.6123,3.605,3.587,3.5612,3.5495,3.5353,3.5209,3.5205,3.5282,3.5473,3.6986,3.7793,3.8018,3.958,4.0306,4.0344,4.1151,4.1991,4.287,4.3668,4.4508,4.5302,4.5302,4.5302,4.5302,4.5302,4.5302,4.5302,0.0,0.0,0.0,0.0,0.0,0.0,0.0,0.0,0.0,2.4844,2.5269,2.5549,2.5549,2.5548,2.5559,0.0,2.5573,2.56,2.56,2.56,2.56,2.56,2.5597,2.5606,2.5606,2.5637,2.5644,2.5644,2.5657,2.5644,2.5644,2.5674,2.5699,2.5699,2.5699,2.5699,2.5699,2.5699,2.5699,2.5699,2.5699,2.5699,2.5699,2.5699,2.5699,2.5699,2.5699,2.5699,2.5757,2.6166,2.6029,2.5699,2.5699,2.5699,2.5699,2.5699,2.5699,2.5699,2.5699,2.599,2.6302,2.6302,2.6633,0.0,0.0,2.6302,2.6302,2.6302,2.5972,2.5816,2.6224,2.5972,2.5699,2.5699,2.605,2.6458,2.6886,2.8424,2.9496,2.9496,3.0276,3.0979,3.1408,3.2247,3.293,3.3378,3.3768,3.4195,3.4624,3.4947,3.5053,3.4947,3.5236,3.5344,3.5209,3.5205,3.5626,3.6451,3.7292,3.8151,3.903,3.9904,4.0306,4.0325,4.0726,4.1628,4.2794,4.2775,4.3768,4.5302,4.5302,4.5302,4.5302,4.5302,4.5302,4.5302,2.1591,0.0,0.0,0.0,0.0,0.0,0.0,0.0,0.0,2.552,2.5567,2.56,2.56,2.5605,2.559,0.0,0.0,2.5618,2.5618,2.5618,2.5618,2.5618,2.5622,2.5615,2.5615,2.5671,2.5699,2.5699,2.5699,2.5699,2.5699,2.5699,2.57,2.5701,2.57,2.57,2.5701,2.57,2.5797,2.5956,2.5956,2.5935,2.5933,2.5933,2.605,2.6166,2.5991,2.5835,2.5796,2.6458,2.6243,2.5699,2.5699,2.5699,2.5699,2.5699,2.5699,2.5738,2.5894,2.6049,2.6302,2.6789,2.6653,2.6477,0.0,0.0,0.0,2.6575,2.6146,2.5894,2.6555,2.6146,2.564,2.5485,2.5582,2.564,2.5465,2.6769,2.7782,2.7937,2.8561,2.9067,2.9223,3.0511,3.1858,3.3066,3.2987,3.3022,3.3344,3.3895,3.4228,3.4254,3.4828,3.5158,3.5205,3.5205,3.595,3.7464,3.7636,3.8534,4.0057,4.0229,4.0306,4.0306,4.0306,4.1165,4.2507,4.1786,4.2818,4.4824,4.4996,4.5149,4.5302,4.5302,4.5302,4.5302,2.183,2.2267,0.0,0.0,0.0,0.0,0.0,0.0,0.0,2.5595,2.5598,2.56,2.56,2.5607,2.5604,0.0,2.5642,2.5692,2.5692,2.5692,2.5692,2.5692,2.5694,2.5696,2.5696,2.5698,2.5699,2.5699,2.5699,2.5699,2.5699,2.5699,2.5703,2.5691,2.5703,2.5703,2.5691,2.5702,2.6154,2.6845,2.6845,2.6819,2.6769,2.6769,2.7237,2.7801,2.7042,2.6302,2.5718,2.5816,2.5777,2.5699,2.5699,2.5699,2.5699,2.5699,2.5699,2.5855,2.6575,2.7334,2.7743,2.7062,2.7996,2.8502,2.6321,0.0,2.6594,2.5952,0.0,2.5738,2.5816,0.0,0.0,2.4666,2.5192,2.5426,2.4666,2.5387,2.6243,2.6964,2.714,2.7509,2.8269,2.8523,2.9654,3.2072,3.1525,3.1716,3.3144,3.319,3.3467,3.4093,3.4142,3.4488,3.5186,3.5205,3.5683,3.6634,3.7368,3.8209,3.9159,3.9943,4.0306,4.0306,4.0306,4.0802,4.1633,4.1538,4.213,4.3157,4.3878,4.4628,4.5302,4.5302,4.5302,4.5302,2.3281,2.3472,0.0,0.0,0.0,0.0,0.0,0.0,2.635,2.635,2.6342,2.6545,2.7051,2.6653,2.6562,2.7068,2.6668,2.6399,2.6399,2.5952,0.0,2.5699,2.5699,2.5699,2.5699,2.5699,2.5699,2.5699,2.5699,2.5699,2.5699,2.5704,2.5708,2.5692,2.5696,2.57,2.5702,2.5692,2.6197,2.7,2.7002,2.7565,2.8359,2.7899,2.7917,2.8165,2.7822,2.7469,2.7153,2.7199,2.6866,2.645,2.645,2.6114,2.5699,2.5699,2.5699,2.5777,2.6107,2.6477,2.6769,2.6867,2.7101,2.714,2.6536,2.6302,2.6243,2.636,0.0,0.0,0.0,0.0,0.0,0.0,2.5465,2.5563,2.5212,2.5465,2.5835,2.6166,2.6614,2.7237,2.8113,2.8166,2.8825,3.047,3.0212,3.0492,3.163,3.204,3.2375,3.2644,3.3535,3.4163,3.4503,3.498,3.5874,3.7196,3.754,3.8419,3.9771,4.0134,4.0306,4.0306,4.0306,4.0764,4.1461,4.0998,4.159,4.2832,4.3171,4.3801,4.4609,4.5111,4.5302,4.5302,2.4676,0.0,0.0,0.0,0.0,0.0,0.0,2.6481,2.6981,2.7234,2.7267,2.7509,2.8132,2.7649,2.7612,2.8471,2.7772,2.7385,2.7598,2.6641,2.6056,2.6058,2.5822,2.5703,2.5703,2.5707,2.5707,2.5703,2.5707,2.5708,2.5708,2.5695,2.5698,2.5701,2.5707,2.5827,2.6062,2.6053,2.6693,2.7708,2.7711,2.8571,2.9782,2.9219,2.8806,2.8567,2.8614,2.8456,2.8237,2.8283,2.7872,2.7359,2.7359,2.6924,2.6411,2.6411,2.6411,2.6469,2.6683,2.6564,2.6522,2.7106,2.6636,2.6127,2.6497,2.6282,2.6127,2.6497,2.6282,0.0,0.0,0.0,2.5621,2.5387,0.0,2.5621,2.5387,2.5543,2.5699,2.5699,2.6175,2.6868,2.7724,2.7539,2.7833,2.9006,2.9046,2.9357,3.0145,3.0917,3.1491,3.1888,3.303,3.3853,3.4315,3.4904,3.605,3.7697,3.7697,3.861,4.0306,4.0306,4.0306,4.0306,4.0306,4.063,4.1132,4.0535,4.1146,4.2469,4.2717,4.3286,4.4102,4.4972,4.5302,4.5302,2.5634,2.56,0.0,0.0,2.5607,2.5887,2.6725,2.6884,2.7197,2.8053,2.8152,2.8171,2.8191,2.8183,2.8503,2.9383,2.8728,2.8596,2.9375,2.7866,2.6967,2.6955,2.6146,2.5692,2.5692,2.5703,2.5703,2.5692,2.5703,2.5708,2.5708,2.5708,2.5693,2.5698,2.5692,2.6161,2.6965,2.6958,2.7955,2.9522,2.9522,3.0014,3.0759,3.0726,3.0195,2.9453,2.9454,2.8967,2.8305,2.8305,2.8285,2.8266,2.8266,2.8246,2.8226,2.8226,2.8226,2.8382,2.9161,2.8764,2.8132,2.8151,2.75,2.6653,2.5913,2.6321,2.6653,2.5894,2.6341,2.6633,2.5874,2.5718,2.5426,0.0,2.5153,0.0,0.0,2.5173,2.5699,2.5699,2.5619,2.5894,2.6752,2.6026,2.6196,2.7915,2.8042,2.8361,2.9105,2.9912,3.1053,3.2615,3.2718,3.352,3.5148,3.5186,3.605,3.7697,3.7697,3.861,4.0306,4.0306,4.0306,4.0306,4.0306,4.0306,4.0344,4.0306,4.0783,4.1633,4.2469,4.3286,4.4102,4.4972,4.5302,4.5302,0.0,0.0,0.0,2.5675,2.5664,2.5944,2.6768,2.7879,2.915,3.0583,3.0779,3.1445,3.317,3.2843,3.2397,3.2103,3.1307,3.0216,2.8809,2.7636,2.6993,2.6995,2.6173,2.6231,2.7402,2.6293,2.598,2.6561,2.598,2.5709,2.5709,2.5694,2.5698,2.5699,2.5701,2.6171,2.6993,2.7005,2.7978,2.958,3.0167,3.0562,3.08,3.0796,3.0617,3.036,3.0364,3.0187,2.9951,2.9955,2.9602,2.9169,2.9169,2.8757,2.8305,2.8305,2.8305,2.8342,2.8588,2.8428,2.8209,2.82,2.7532,2.6828,2.6555,2.6692,2.6672,2.5874,2.6341,2.6653,2.5855,2.5699,0.0,0.0,0.0,2.5572,0.0,2.5343,2.5526,2.5567,2.5535,2.5602,2.5846,2.5583,2.5878,2.7049,2.7664,2.8316,2.9055,2.9865,3.0781,3.1866,3.2413,3.3253,3.4392,3.4923,3.605,3.7697,3.7697,3.861,4.0306,4.0306,4.0306,4.0306,4.0306,4.0306,4.0344,4.0864,4.1246,4.1633,4.3056,4.3758,4.4102,4.4972,4.5302,4.5302,2.5699,2.5933,2.6127,2.6127,2.638,2.6867,2.7704,2.9307,3.0931,3.2363,3.2838,3.3779,3.5775,3.5213,3.4727,3.4784,3.3715,3.2331,3.0672,2.9187,2.8093,2.7491,2.6923,2.7001,2.782,2.7042,2.6905,2.7468,2.6593,2.6166,2.6166,2.5857,2.5878,2.6152,2.6155,2.6821,2.7914,2.7929,2.8706,3.0014,3.0561,3.0798,3.0801,3.0801,3.0798,3.0796,3.08,3.0798,3.0796,3.08,3.0466,3.0033,3.0033,2.9641,2.919,2.919,2.919,2.9189,2.9144,2.8903,2.8664,2.8698,2.8029,2.7361,2.7361,2.7594,2.7595,2.6757,2.7006,2.7121,2.6309,2.5916,2.5674,0.0,0.0,0.0,0.0,2.5423,2.542,2.5423,2.5427,2.5406,2.537,2.5335,2.5552,2.6118,2.7231,2.8101,2.8583,2.9668,3.0771,3.1885,3.2432,3.3253,3.443,3.4942,3.605,3.7697,3.7697,3.861,4.0306,4.0306,4.0306,4.0306,4.0306,4.0306,4.0344,4.0864,4.1418,4.2068,4.3152,4.3935,4.4527,4.5092,4.5302,4.5302,2.5817,2.6479,2.7025,2.7025,2.7706,2.8542,2.9361,3.1012,3.2502,3.3477,3.4346,3.5251,3.6206,3.5549,3.5651,3.7232,3.5814,3.4765,3.4589,3.2202,3.0074,2.8439,2.8278,2.7904,2.7201,2.787,2.8281,2.8354,2.7482,2.7055,2.7055,2.6215,2.6273,2.7055,2.7055,2.8011,2.9592,2.9592,3.006,3.0801,3.0801,3.0801,3.0801,3.0801,3.0801,3.0801,3.0801,3.0801,3.0801,3.0801,3.0801,3.0801,3.0801,3.0801,3.0801,3.0801,3.0801,3.08,3.08,3.0206,2.9573,2.9638,2.8944,2.8267,2.8269,2.8909,2.9237,2.8325,2.8196,2.7974,2.7092,2.6285,2.5697,0.0,0.0,0.0,2.5401,2.5383,2.5387,2.5356,2.5322,2.5298,2.5298,2.5237,2.5197,2.5191,2.6755,2.7705,2.7698,2.9325,3.1006,3.2657,3.2734,3.3559,3.5186,3.5244,3.6088,3.7697,3.7736,3.8648,4.0306,4.0306,4.0306,4.0306,4.0306,4.0306,4.0306,4.0401,4.1356,4.2813,4.2889,4.3902,4.5302,4.5302,4.5302,4.5302,2.7563,2.8252,2.8822,2.8822,2.901,2.9241,2.9464,3.1536,3.3842,3.6014,3.7014,3.8345,4.0516,3.9972,3.9135,3.8334,3.7262,3.5525,3.2949,3.1522,3.0331,2.9319,2.803,2.8126,2.9784,2.8185,2.7972,2.9278,2.8381,2.7971,2.7952,2.7737,2.7756,2.7971,2.7971,2.8577,2.9592,2.9592,3.006,3.0801,3.0801,3.0801,3.0801,3.0801,3.0801,3.0801,3.0801,3.0801,3.0801,3.0801,3.0801,3.0801,3.0801,3.0801,3.0801,3.0801,3.0801,3.08,3.0796,3.0636,3.0476,3.0491,2.9799,2.9114,2.9151,2.9256,2.8945,2.7522,2.8199,2.8382,2.6275,2.6181,2.6218,2.5541,2.5388,2.5361,2.5404,2.5315,2.5488,2.613,2.5628,2.5234,2.5234,2.5261,2.5258,2.5197,2.6794,2.7756,2.7705,2.9857,3.1595,3.2676,3.3333,3.4159,3.5186,3.5836,3.6676,3.7716,3.8362,3.9236,4.0306,4.0306,4.0306,4.0306,4.0306,4.0306,4.0401,4.1643,4.2412,4.2928,4.4174,4.492,4.5302,4.5302,4.5302,4.5302,2.8684,3.0075,3.1191,3.1196,3.2148,3.2652,3.1893,3.3027,3.4767,3.7016,3.7684,3.8683,4.0542,4.0601,4.0308,3.9743,3.8571,3.6873,3.453,3.2831,3.1386,3.0177,2.9182,2.9162,3.0255,2.9201,2.9143,3.0118,2.928,2.887,2.8869,2.8479,2.8498,2.887,2.887,2.9338,3.0118,3.0118,3.0392,3.084,3.1211,3.1368,0.0,3.1796,3.1932,3.1932,3.1932,3.1444,3.0801,3.0801,3.0801,3.0879,3.125,3.1368,3.1446,3.1816,3.1932,3.1852,3.1444,3.1318,3.1232,3.0818,3.0314,2.994,2.9976,2.9927,2.9619,2.8706,2.8935,2.8846,2.7394,2.7178,2.6936,2.6032,2.5827,2.5663,2.5363,2.5253,2.5386,2.5872,2.5802,2.559,2.5229,2.5226,2.5237,2.5197,2.6793,2.7732,2.7701,3.0086,3.1824,3.2676,3.4269,3.5301,3.5759,3.6982,3.7822,3.8266,3.8763,3.9465,4.0306,4.0306,4.0306,4.0306,4.0306,4.0497,4.0903,4.1839,4.266,4.3457,4.4786,4.5302,4.5302,4.5302,4.5302,4.5302,2.9865,3.1935,3.3576,3.3564,3.5633,3.6899,3.5723,3.5532,3.612,3.774,3.7961,3.8298,3.9177,3.9586,4.0151,4.1011,3.9567,3.824,3.736,3.5076,3.2908,3.1055,3.0859,3.0469,2.9768,3.0333,3.0684,3.0801,3.0099,2.9768,2.9749,2.8986,2.9025,2.9768,2.9768,3.0216,3.0977,3.0977,3.1035,3.1211,3.1973,3.2266,3.2344,3.3104,3.3396,3.3396,3.3396,3.242,3.1132,3.1132,3.1132,3.1269,3.2031,3.2266,3.2422,3.3182,3.3396,3.3216,3.2405,3.2171,3.1996,3.1168,3.0957,3.0915,3.0799,3.0762,3.0685,3.046,2.9887,2.9336,2.9063,2.8376,2.7612,2.6781,2.6608,2.6329,2.5628,2.5437,2.5399,2.5513,2.595,0.0,2.5418,2.5363,2.5363,2.5363,2.6807,2.7755,2.7851,3.0277,3.1977,3.2676,3.5068,3.6443,3.6653,3.809,3.8935,3.9159,3.9159,3.9561,4.0306,4.0306,4.0306,4.0306,4.042,4.0845,4.1519,4.1748,4.2756,4.426,4.4991,4.5302,4.5302,4.5302,4.5302,4.5302,3.2689,3.3667,3.4468,3.447,3.6031,3.7905,3.97,3.9974,4.0346,4.1379,4.1516,4.1849,4.2709,4.101,4.0151,4.1011,3.9567,3.824,3.736,3.6208,3.4451,3.1973,3.1172,3.0723,3.0586,3.008,3.0138,3.0801,3.0664,3.0586,3.0586,3.043,3.045,3.0586,3.0586,3.1075,3.1876,3.1876,3.2285,3.2967,3.3104,3.3163,3.3182,3.3338,3.3396,3.3396,3.3396,3.3201,3.2947,3.2947,3.2947,3.2967,3.3124,3.3163,3.3202,3.3357,3.3396,3.3357,3.3196,3.3154,3.3105,3.2885,3.279,3.2567,3.1846,3.1596,3.1119,2.9721,2.9811,2.9687,2.8237,2.7843,2.7678,2.7526,2.7485,2.7415,2.7281,2.6635,2.6463,2.7186,2.6179,2.5628,2.6138,2.6195,2.6195,2.6195,2.7128,2.7985,2.8647,3.1114,3.2546,3.2695,3.4475,3.6084,3.7483,3.7769,3.8648,4.0076,4.0076,4.0153,4.0306,4.0306,4.0306,4.0344,4.0998,4.1366,4.1614,4.298,4.4164,4.5092,4.5244,4.5302,4.5302,4.5302,4.5302,4.5302,3.5426,3.6111,3.7009,3.7868,3.9469,4.1187,4.2864,4.3899,4.3977,4.2571,4.2006,4.1889,4.2319,4.1635,4.1322,4.1732,4.0211,3.9039,3.8629,3.6969,3.5232,3.3515,3.2187,3.1465,3.1465,3.0645,3.0626,3.1465,3.1016,3.0801,3.0801,3.0801,3.0801,3.082,3.127,3.1719,3.2129,3.2578,3.3026,3.3435,3.3885,3.4061,3.4119,3.4587,3.4743,3.4743,3.4743,3.4743,3.4606,3.3709,3.3396,3.3474,3.3924,3.4061,3.4158,3.4626,3.4743,3.4643,3.4158,3.3999,3.3848,3.3327,3.3123,3.293,3.25,3.2378,3.1971,3.0699,3.0736,3.0567,2.9244,2.8991,2.8848,2.8402,2.8325,2.8172,2.7755,2.7338,2.7052,2.7033,2.6711,2.6463,2.6405,2.6803,2.688,2.6424,2.7205,2.8058,2.8857,3.132,3.2695,3.2695,3.5606,3.7349,3.7697,3.9016,3.9871,4.0306,4.0306,4.0306,4.0306,4.0306,4.0535,4.0941,4.1328,4.1991,4.2884,4.4169,4.4914,4.5302,4.5302,4.5302,4.5302,4.5302,4.5302,4.5302,3.8375,3.9098,4.0153,4.1675,4.306,4.427,4.5147,4.6436,4.6338,4.3586,4.2474,4.1928,4.1928,4.2201,4.2395,4.2395,4.0971,3.9995,3.9819,3.7769,3.6071,3.5018,3.3476,3.2578,3.2383,3.1699,3.1699,3.2383,3.1504,3.0977,3.0801,3.0996,3.1172,3.1386,3.207,3.2481,3.2695,3.3377,3.3787,3.4001,3.4705,3.4979,3.5057,3.5738,3.5992,3.5992,3.5992,3.5992,3.5797,3.4411,3.3943,3.4079,3.4764,3.4979,3.5115,3.5797,3.5992,3.585,3.5071,3.4849,3.4608,3.3829,3.355,3.3429,3.3227,3.3179,3.2933,3.2067,3.1718,3.1342,3.0604,3.0322,2.9975,2.9299,2.9185,2.8956,2.8309,2.8061,2.7698,2.7014,2.7393,2.7434,2.6746,2.73,2.7488,2.6975,2.7564,2.8306,2.9127,3.1416,3.2695,3.2695,3.6275,3.8113,3.798,3.978,4.0654,4.0554,4.0554,4.0554,4.0554,4.0745,4.1189,4.1786,4.1953,4.2889,4.4336,4.5015,4.5302,4.5302,4.5302,4.5302,4.5302,4.5302,4.5302,4.5302,4.1927,4.2611,4.3529,4.4464,4.4776,4.5167,4.6046,4.6319,4.63,4.5988,4.5187,4.462,4.462,4.3293,4.2395,4.2395,4.1537,4.064,3.9858,3.8883,3.7614,3.5953,3.4979,3.4081,3.3299,3.3201,3.3201,3.3279,3.2402,3.1563,3.082,3.1602,3.2402,3.3162,3.324,3.3729,3.4452,3.4549,3.5036,3.5758,3.5856,3.5875,3.5895,3.5973,3.5992,3.5992,3.5992,3.5992,3.5973,3.5817,3.5758,3.5778,3.5856,3.5875,3.5895,3.5973,3.5992,3.5966,3.5827,3.5769,3.5697,3.543,3.5367,3.5121,3.427,3.4087,3.3827,3.2958,3.2095,3.1477,3.1396,3.0723,3.0169,3.0093,3.0074,3.0055,2.9978,2.9284,2.8761,2.8685,2.8096,2.766,2.7584,2.7641,2.7966,2.8627,2.8742,2.9166,3.0036,3.1744,3.2695,3.2695,3.4556,3.6619,3.8858,3.8323,3.9188,4.1385,4.1385,4.1385,4.1404,4.2202,4.2603,4.2717,4.3457,4.4298,4.5187,4.5264,4.5302,4.5302,4.5302,4.5302,4.5302,4.5302,4.5302,4.5302,4.3274,4.3451,4.4134,4.5539,4.5342,4.5479,4.6865,4.708,4.6885,4.6379,4.6007,4.5773,4.5773,4.4698,4.3742,4.3235,4.2376,4.1518,4.064,3.9333,3.8063,3.6832,3.4939,3.4002,3.4178,3.3163,3.3124,3.4178,3.3319,3.2694,3.2362,3.2714,3.3065,3.3416,3.3943,3.4374,3.4726,3.5251,3.5681,3.5992,3.5992,3.5992,3.5992,3.5992,3.5992,3.5992,3.5992,3.5992,3.5992,3.5992,3.5992,3.5992,3.5992,3.5992,3.5992,3.5992,3.5978,3.5935,3.5915,3.5811,3.5695,3.5612,3.557,3.5438,3.5075,3.4984,3.4727,3.381,3.2901,3.2135,3.1658,3.1677,3.1428,3.0425,3.0673,3.0793,3.027,2.9909,2.9494,2.8952,2.8627,2.8421,2.8421,2.8421,2.9181,3.1034,2.9754,2.9509,3.0911,3.2069,3.2947,3.3452,3.5572,3.7196,3.8209,3.9398,4.0487,4.1519,4.203,4.2278,4.2297,4.2641,4.3056,4.3572,4.4418,4.4972,4.5302,4.5302,4.5302,4.5302,4.5302,4.5302,4.5302,4.5302,4.5302,4.5378,4.4914,4.4855,4.5304,4.6788,4.6339,4.6182,4.7411,4.7372,4.7002,4.6379,4.6301,4.6301,4.6301,4.5753,4.5031,4.4153,4.3294,4.2415,4.1538,3.9898,3.8571,3.7712,3.5662,3.4588,3.4706,3.3749,3.3729,3.4706,3.408,3.3651,3.3396,3.3396,3.3806,3.4568,3.4919,3.5213,3.5506,3.613,3.6383,3.6403,3.6657,3.6754,3.6735,3.6481,3.6383,3.6344,3.609,3.5992,3.5992,3.5992,3.5992,3.5992,3.5992,3.5992,3.599,3.598,3.5937,3.5882,3.5824,3.5702,3.5599,3.5581,3.5538,3.55,3.55,3.55,3.5317,3.4613,3.3786,3.302,3.245,3.2584,3.2408,3.1222,3.1505,3.1653,3.1019,3.0734,3.0433,3.006,2.9812,2.9659,2.9659,2.9888,3.0671,3.2222,3.09,3.0675,3.2153,3.276,3.3352,3.3972,3.6184,3.7578,3.8075,4.0119,4.138,4.1901,4.2756,4.3152,4.3152,4.3424,4.3845,4.4413,4.5029,4.5302,4.5302,4.5302,4.5302,4.5302,4.5302,4.5302,4.5302,4.5302,4.5455,4.5736,4.7392,4.7548,4.7802,4.8623,4.8095,4.7587,4.7607,4.6866,4.6301,4.6301,4.6301,4.6301,4.6301,4.6281,4.5929,4.5069,4.4192,4.3314,4.2434,4.0756,3.9429,3.8611,3.7732,3.6443,3.4745,3.5524,3.5544,3.4706,3.4686,3.4237,3.3396,3.3396,3.4783,3.7223,3.6364,3.6461,3.7262,3.7282,3.7282,3.736,3.822,3.8572,3.8474,3.7614,3.7282,3.7165,3.6305,3.5992,3.5992,3.5992,3.5992,3.5992,3.5992,3.5992,3.5986,3.5925,3.591,3.5862,3.5653,3.561,3.5579,3.5521,3.55,3.55,3.55,3.55,3.547,3.5393,3.4683,3.408,3.4061,3.337,3.2788,3.2769,3.2781,3.2763,3.2688,3.1996,3.1786,3.2565,3.1958,3.1465,3.1465,3.2183,3.2336,3.158,3.2222,3.3047,3.3914,3.3972,3.3991,3.3991,3.5645,3.7307,3.8973,3.9866,4.1146,4.2794,4.361,4.3987,4.4006,4.4876,4.5283,4.5283,4.5302,4.5302,4.5302,4.5302,4.5302,4.5302,4.5302,4.5302,4.5302,4.5302,4.5793,4.6495,4.6788,4.7197,4.749,4.7159,4.6885,4.671,4.671,4.6475,4.6301,4.6301,4.6301,4.6301,4.6301,4.6301,4.5715,4.4231,4.3861,4.308,4.1616,4.0444,3.9683,3.9429,3.8063,3.7048,3.6482,3.6169,3.5856,3.5583,3.5583,3.5446,3.5192,3.5778,3.6188,3.6442,3.7379,3.7595,3.734,3.7927,3.8181,3.8201,3.8494,3.8591,3.8572,3.8298,3.8181,3.8063,3.7204,3.6891,3.6793,3.6207,3.5992,3.5989,3.5944,3.5934,3.5903,3.5801,3.5738,3.5677,3.5629,3.5564,3.5522,3.5514,3.55,3.55,3.55,3.55,3.5497,3.5467,3.5215,3.4791,3.4208,3.4317,3.4123,3.2982,3.3267,3.3417,3.2859,3.2508,3.2428,3.2732,3.2545,3.2395,3.2395,3.2621,3.3123,3.3968,3.3757,3.3704,3.3991,3.3991,3.4526,3.5664,3.6753,3.8147,3.9866,4.128,4.2541,4.3629,4.4475,4.4895,4.4895,4.5168,4.5302,4.5302,4.5302,4.5302,4.5302,4.5302,4.5302,4.5302,4.5302,4.5646,4.6118,4.6118,4.6667,4.7469,4.6418,4.6749,4.6944,4.6398,4.6301,4.6301,4.6301,4.6301,4.6301,4.6301,4.6301,4.6301,4.6301,4.6301,4.5735,4.4309,4.39,4.3099,4.1675,4.0776,4.0132,3.9819,3.8804,3.7789,3.6832,3.691,3.6657,3.5992,3.6657,3.6813,3.65,3.7048,3.7184,3.7009,3.7771,3.8161,3.8277,3.8825,3.9059,3.9078,3.9411,3.9548,3.9509,3.9176,3.9059,3.8942,3.8083,3.7575,3.7223,3.6676,3.6258,3.5946,3.5854,3.6027,3.6188,3.5782,3.5621,3.5599,3.557,3.5531,3.55,3.55,3.55,3.55,3.55,3.55,3.55,3.55,3.5453,3.524,3.4719,3.5003,3.497,3.3949,3.417,3.432,3.3818,3.3432,3.3348,3.3692,3.3443,3.3248,3.3253,3.3517,3.398,3.4698,3.4866,3.4808,3.4468,3.4751,3.5415,3.6462,3.7593,3.9011,4.0726,4.2106,4.3367,4.4489,4.5034,4.5302,4.5302,4.5302,4.5302,4.5302,4.5302,4.5302,4.5302,4.5302,4.5302,4.5321,4.5627,4.6061,4.6533,4.6877,4.7545,4.8372,4.6301,4.6301,4.6301,4.6301,4.6301,4.6301,4.6301,4.6301,4.6301,4.6301,4.6301,4.6301,4.6301,4.6301,4.5948,4.5089,4.425,4.3391,4.2454,4.1635,4.0796,3.9937,3.9897,3.8745,3.6324,3.7849,3.7868,3.6187,3.781,3.8181,3.7399,3.7458,3.7888,3.8572,3.7868,3.8394,3.98,3.9858,3.9897,3.9956,4.0777,4.1109,4.1011,4.019,3.9897,3.978,3.8961,3.816,3.7454,3.7395,3.6784,3.6045,3.591,3.6379,3.6801,3.5867,3.5673,3.5742,3.5614,3.5577,3.5577,3.5577,3.5538,3.55,3.55,3.5538,3.5577,3.5519,3.5491,3.5493,3.549,3.5398,3.5319,3.5375,3.5334,3.5308,3.5308,3.4664,3.4461,3.5201,3.4588,3.4098,3.4094,3.4774,3.4923,3.422,3.5611,3.618,3.5415,3.6256,3.6714,3.6596,3.8204,3.9909,4.1576,4.245,4.3692,4.5302,4.5302,4.5302,4.5302,4.5302,4.5302,4.5302,4.5302,4.5302,4.5302,4.5359,4.5378,4.5455,4.6271,4.6628,4.6781,4.7584,4.8449,4.918,4.6436,4.6301,4.6301,4.6301,4.6301,4.6301,4.6301,4.6301,4.6301,4.6301,4.6301,4.6301,4.6301,4.6301,4.5948,4.5089,4.4815,4.4035,4.2493,4.2201,4.1693,4.0835,4.0796,4.019,3.8921,3.9292,3.902,3.7985,3.8396,3.8494,3.8318,3.8921,3.8981,3.865,3.9723,4.0054,3.9839,4.0503,4.0796,4.0816,4.1011,4.1109,4.109,4.0874,4.0796,4.0679,3.9819,3.9351,3.9025,3.8359,3.7964,3.7705,3.7563,3.7663,3.7509,3.5968,3.642,3.728,3.6607,3.6423,3.6423,3.6423,3.5942,3.55,3.55,3.5981,3.6231,3.5635,3.5972,3.6181,3.5531,3.5361,3.5312,3.5319,3.5315,3.5308,3.5308,3.5139,3.5097,3.5277,3.5124,3.4994,3.4994,3.5162,3.5452,3.5874,3.6313,3.6722,3.7086,3.8569,3.8779,3.7464,3.9083,4.0802,4.2488,4.3305,4.4241,4.5302,4.5302,4.5302,4.5302,4.5302,4.5302,4.5302,4.5302,4.5302,4.5359,4.5965,4.6214,4.6309,4.7163,4.7895,4.8512,4.8722,4.9308,5.0015,4.6398,4.6301,4.6301,4.6301,4.6301,4.6301,4.6301,4.6301,4.6301,4.6301,4.6301,4.6301,4.6301,4.6301,4.6105,4.5636,4.5225,4.4425,4.3079,4.261,4.2181,4.1713,4.1304,4.0699,3.9819,4.019,4.0171,3.9743,3.9743,3.9548,3.9156,3.9605,3.9566,3.9196,4.0093,4.0464,4.0425,4.0894,4.1109,4.1109,4.1109,4.1109,4.1109,4.1109,4.1079,4.0982,4.0513,4.0028,3.9538,3.9068,3.8598,3.8205,3.8121,3.8353,3.8372,3.7048,3.7292,3.7892,3.7427,3.7292,3.7292,3.7292,3.6965,3.6638,3.6638,3.6984,3.7177,3.6734,3.6975,3.711,3.6664,3.6216,3.5898,3.5936,3.5617,3.5361,3.5398,3.5382,3.5521,3.5852,3.5887,3.6036,3.6359,3.6408,3.6599,3.705,3.7504,3.7915,3.8325,3.9968,4.0284,3.8935,4.0554,4.2063,4.3343,4.4183,4.4838,4.5302,4.5302,4.5493,4.5851,4.5851,4.6061,4.6443,4.6443,4.6443,4.6481,4.6915,4.7087,4.7182,4.8048,4.8678,4.9142,4.9505,4.992,5.0302,4.6339,4.63,4.6301,4.63,4.63,4.6301,4.6301,4.6301,4.6301,4.6301,4.6301,4.6301,4.6301,4.6301,4.6301,4.6301,4.5617,4.4836,4.3958,4.3196,4.2688,4.2415,4.1693,4.0894,4.0015,4.0718,4.1109,4.1109,4.1109,4.0718,3.9995,3.9995,3.9995,3.9995,3.9995,4.0406,4.1109,4.1109,4.1109,4.1109,4.1109,4.1109,4.1108,4.1083,4.1057,4.101,4.0979,4.042,3.9675,3.9675,3.9132,3.8459,3.8459,3.8928,3.9338,3.8584,3.8373,3.8354,3.8238,3.82,3.8161,3.8027,3.8007,3.8007,3.8007,3.8104,3.8161,3.8027,3.8058,3.8086,3.8,3.7244,3.668,3.6877,3.6052,3.5484,3.567,3.5689,3.5911,3.6535,3.6719,3.709,3.7829,3.7906,3.8042,3.8363,3.907,3.9548,3.9646,4.1135,4.1647,4.0879,4.2235,4.3362,4.4183,4.4934,4.5302,4.5302,4.5302,4.5722,4.6495,4.6495,4.6972,4.7794,4.7794,4.7794,4.7813,4.7946,4.8004,4.808,4.8945,4.9276,4.9352,5.0054,5.0302,5.0302,4.6493,4.6299,4.63,4.6298,4.6299,4.6301,4.6301,4.6301,4.6301,4.6301,4.6301,4.6301,4.6301,4.6301,4.6301,4.6301,4.6184,4.5734,4.4855,4.4679,4.3937,4.2454,4.2278,4.1791,4.0913,4.103,4.1109,4.1109,4.1109,4.103,4.0894,4.0894,4.0894,4.0894,4.0894,4.0972,4.1109,4.1109,4.1109,4.1109,4.1109,4.1109,4.1086,4.1046,4.1001,4.0984,4.0878,4.0689,4.0511,4.0511,4.0346,4.0123,4.0123,4.0204,4.0285,4.015,4.0112,3.9954,3.9281,3.9107,3.8915,3.818,3.8007,3.8007,3.8007,3.8569,3.8896,3.8142,3.8581,3.885,3.8123,3.7285,3.6932,3.7677,3.6496,3.5724,3.6423,3.6513,3.6538,3.6589,3.7252,3.8018,3.8818,3.8872,3.9495,4.0976,4.1217,4.1564,4.2192,4.322,4.3676,4.3438,4.3682,4.4222,4.5092,4.5225,4.5302,4.5302,4.5302,4.5722,4.6495,4.6495,4.6972,4.7794,4.7794,4.7794,4.787,4.8582,4.8894,4.8989,4.9805,5.0111,5.013,5.0245,5.0302,5.0302,4.6395,4.7022,4.7356,4.6455,4.63,4.6301,4.6301,4.5909,4.5773,4.6242,4.589,4.5773,4.6242,4.6301,4.6301,4.6301,4.6301,4.6124,4.5734,4.5264,4.4425,4.3157,4.265,4.1986,4.1129,4.1109,4.1109,4.1109,4.1109,4.1109,4.1109,4.1109,4.1109,4.1109,4.1109,4.1109,4.1109,4.1109,4.1109,4.1107,4.1065,4.1053,4.1029,4.0923,4.0863,4.083,4.0762,4.0684,4.0584,4.0584,4.0557,4.0496,4.0496,4.0496,4.0496,4.0496,4.0496,4.0419,4.0054,3.9958,3.9842,3.9454,3.9358,3.9358,3.9358,3.9665,3.9819,3.9434,3.9665,3.9819,3.9415,3.8661,3.8373,3.9204,3.793,3.7138,3.7988,3.7704,3.7544,3.7943,3.8761,3.9631,4.0413,4.089,4.1496,4.2347,4.2403,4.2746,4.3513,4.3967,4.4355,4.4685,4.4704,4.4895,4.5302,4.5302,4.5302,4.5302,4.5736,4.6385,4.7221,4.7685,4.8353,4.915,4.915,4.915,4.9169,4.9576,4.9754,4.9786,5.0168,5.0302,5.0302,5.0302,5.0302,5.0302,4.6296,4.7333,4.7805,4.6515,4.63,4.6301,4.6301,4.5734,4.5539,4.6203,4.5714,4.5558,4.6223,4.6301,4.6301,4.6301,4.6301,4.6301,4.6301,4.5675,4.4914,4.4036,4.2962,4.2084,4.1421,4.1206,4.1109,4.1109,4.1109,4.1109,4.1109,4.1109,4.1109,4.1109,4.1109,4.1109,4.1109,4.1109,4.1109,4.1087,4.1038,4.0992,4.0982,4.0822,4.074,4.0694,4.0662,4.0596,4.0496,4.0496,4.0496,4.0496,4.0496,4.0496,4.0496,4.0496,4.0496,4.0496,4.0496,4.0496,4.0496,4.0496,4.0496,4.0496,4.0496,4.0496,4.0496,4.0496,4.0496,4.0496,4.0496,3.9996,3.9785,4.04,3.9415,3.8819,3.9473,3.9158,3.9096,3.9714,4.054,4.1392,4.2221,4.2863,4.3331,4.3581,4.36,4.3862,4.4446,4.448,4.4719,4.5288,4.5302,4.5302,4.5302,4.5302,4.5397,4.5588,4.6194,4.7049,4.8118,4.8798,4.9543,5.0302,5.0302,5.0302,5.0302,5.0302,5.0302,5.0302,5.0302,5.0302,5.0302,5.0302,5.0302,5.0302,4.6294,4.6393,4.6453,4.6317,4.6299,4.6301,4.6301,4.6242,4.6223,4.6281,4.6242,4.6223,4.6281,4.6301,4.6301,4.6301,4.6301,4.6301,4.6301,4.6242,4.5812,4.4933,4.3293,4.2376,4.2317,4.1518,4.1109,4.1109,4.1109,4.1109,4.1109,4.1109,4.1109,4.1109,4.1109,4.1109,4.1109,4.1109,4.1109,4.1087,4.1038,4.0992,4.0977,4.0779,4.0706,4.0681,4.0568,4.0504,4.0496,4.0496,4.0496,4.0496,4.0496,4.0496,4.0496,4.0496,4.0496,4.0496,4.0496,4.0496,4.0496,4.0496,4.0496,4.0496,4.0496,4.0496,4.0496,4.0496,4.0496,4.0496,4.0496,4.0458,4.0439,4.0496,4.04,4.0342,4.04,4.0999,4.1451,4.1504,4.2296,4.316,4.4011,4.4166,4.4524,4.5355,4.5417,4.5373,4.5314,4.5309,4.5318,4.5307,4.5302,4.5302,4.5302,4.5302,4.5665,4.6399,4.6476,4.7379,4.9008,4.9066,4.9543,5.0302,5.0302,5.0302,5.0302,5.0302,5.0302,5.0302,5.0302,5.0302,5.0302,5.0302,5.0302,5.0302,4.9459,4.9466,4.8785,4.6669,4.6303,4.6306,4.6302,4.6301,4.6301,4.6301,4.5831,4.5695,4.6242,4.6301,4.6301,4.6301,4.6301,4.6301,4.6301,4.6301,4.5909,4.505,4.3332,4.2395,4.2395,4.1557,4.1109,4.1109,4.1109,4.1109,4.1109,4.1109,4.1109,4.1109,4.1109,4.1109,4.1108,4.1061,4.1047,4.102,4.0879,4.0813,4.0795,4.0642,4.0586,4.0579,4.0519,4.0496,4.0496,4.0496,4.0496,4.0496,4.0496,4.0496,4.0496,4.0496,4.0496,4.0496,4.0496,4.0496,4.0496,4.0496,4.0496,4.0496,4.0496,4.0496,4.0646,4.1181,4.1316,4.147,4.2012,4.2108,4.2281,4.2782,4.2435,4.2281,4.2782,4.2688,4.256,4.256,4.3295,4.3949,4.4271,4.4793,4.5244,4.5575,4.5594,4.5531,4.541,4.5361,4.5329,4.5302,4.5774,4.5793,4.5302,4.5793,4.6194,4.6514,4.7589,4.8454,4.9123,4.962,5.0015,5.0302,5.0302,5.0302,5.0302,5.0302,5.0302,5.0302,5.0302,5.0302,5.0302,5.0302,5.0302,5.0302,5.1399,5.1407,5.0668,4.8316,4.7011,4.6291,4.6302,4.6301,4.6301,4.6301,4.5772,4.5635,4.6222,4.63,4.63,4.6301,4.63,4.63,4.6301,4.6301,4.6027,4.5421,4.3996,4.3098,4.2806,4.2221,4.1655,4.1109,4.1362,4.1362,4.1109,4.1109,4.1109,4.1109,4.1109,4.1083,4.1069,4.1011,4.0979,4.0927,4.076,4.0697,4.0681,4.0557,4.0496,4.0496,4.0496,4.0496,4.0496,4.0496,4.0496,4.0496,4.0496,4.0496,4.0496,4.0496,4.0685,4.0858,4.0573,4.0704,4.0839,4.0573,4.0496,4.0573,4.0858,4.0916,4.1166,4.2023,4.2216,4.2389,4.2989,4.3316,4.3566,4.3874,4.3893,4.397,4.4259,4.4066,4.3897,4.3897,4.4378,4.4705,4.4705,4.5244,4.5594,4.5594,4.5594,4.5666,4.5793,4.5737,4.5825,4.6117,4.6647,4.6666,4.6112,4.6645,4.7049,4.7322,4.8531,4.9104,4.9123,4.992,5.0168,4.9939,5.0187,5.0302,5.0302,5.0302,5.0302,5.0302,5.0302,5.0302,5.0302,5.0302,5.0302,5.0302,5.1409,5.1395,5.1397,5.1391,4.8578,4.6291,4.6302,4.6301,4.6301,4.6301,4.6298,4.6318,4.6319,4.6318,4.6298,4.63,4.6298,4.6298,4.6301,4.6301,4.6301,4.6301,4.548,4.4602,4.3724,4.3705,4.2846,4.1129,4.1986,4.1967,4.1109,4.1108,4.1108,4.1108,4.1108,4.1066,4.099,4.101,4.0927,4.0798,4.0726,4.0694,4.0681,4.0557,4.0496,4.0496,4.0496,4.0496,4.0496,4.0496,4.0496,4.0496,4.0496,4.0496,4.0496,4.0516,4.1123,4.16,4.0743,4.1143,4.16,4.0723,4.0516,4.0743,4.16,4.1812,4.2062,4.2931,4.3104,4.3104,4.3124,4.3778,4.4047,4.3258,4.4513,4.5302,4.4436,4.5051,4.5594,4.5594,4.5594,4.5594,4.5594,4.5594,4.5594,4.5594,4.5614,4.593,4.6666,4.6649,4.7006,4.7878,4.7916,4.7916,4.7916,4.7846,4.8233,4.9104,4.9104,4.9104,4.9123,4.992,4.9843,4.9142,4.9939,5.0302,5.0283,5.0302,5.0302,5.0302,5.0302,5.0302,5.0302,5.0302,5.0302,5.0302,5.1396,5.1401,5.1401,5.1392,4.8562,4.6296,4.6302,4.6301,4.6301,4.6301,4.6298,4.6747,4.7923,4.7002,4.6298,4.63,4.6298,4.6298,4.6301,4.6301,4.6301,4.6301,4.548,4.4874,4.462,4.4017,4.3451,4.2924,4.3178,4.2864,4.2005,4.1956,4.1627,4.1038,4.0935,4.0877,4.0866,4.0818,4.0765,4.0723,4.0609,4.0568,4.056,4.0516,4.0496,4.0496,4.0496,4.0496,4.0496,4.0496,4.0496,4.0496,4.0496,4.0496,4.0631,4.1239,4.16,4.1889,4.222,4.2508,4.2508,4.1623,4.1412,4.1643,4.2508,4.272,4.2951,4.3778,4.3932,4.4124,4.4744,4.5051,4.5128,4.4898,4.5263,4.5518,4.5244,4.5436,4.5594,4.5594,4.5594,4.5594,4.5594,4.5594,4.5594,4.5594,4.6112,4.6522,4.6685,4.7264,4.77,4.7949,4.8462,4.8747,4.8747,4.8731,4.8837,4.9104,4.9104,4.9104,4.9104,4.9352,4.8984,4.8271,4.9691,4.9977,4.9505,5.0073,5.0302,5.0302,5.0302,5.0302,5.0302,5.0302,5.0678,5.1213,5.1399,5.1402,5.1403,5.1392,4.8561,4.6295,4.6302,4.6301,4.6301,4.6301,4.6298,4.7197,4.9562,4.7724,4.6296,4.6299,4.6299,4.6299,4.6301,4.6301,4.6301,4.6301,4.5792,4.5342,4.5011,4.4816,4.4388,4.3705,4.4055,4.3735,4.2837,4.2785,4.2303,4.143,4.1358,4.1116,4.0762,4.073,4.0665,4.0609,4.0534,4.0496,4.0496,4.0496,4.0704,4.1012,4.1012,4.1243,4.1531,4.1531,4.1531,4.1531,4.1531,4.1531,4.1627,4.2162,4.2543,4.2835,4.3047,4.3335,4.3451,4.2912,4.2543,4.2543,4.3374,4.3566,4.3816,4.4648,4.4801,4.4975,4.5494,4.5594,4.5594,4.5594,4.5594,4.5594,4.5594,4.5594,4.5594,4.5594,4.5594,4.5594,4.5594,4.5594,4.5744,4.609,4.6867,4.7439,4.7707,4.8235,4.8676,4.9021,4.9139,4.9337,4.9641,4.928,4.9107,4.9104,4.9104,4.8741,4.8072,4.8435,4.8296,4.7889,4.9232,4.9729,4.962,5.0092,5.0302,5.0302,5.0302,5.0302,5.0302,5.0302,5.085,5.1595,5.14,5.1402,5.1305,5.1001,4.8363,4.6291,4.6302,4.6301,4.6301,4.6301,4.6298,4.7607,5.1026,4.8621,4.6627,4.6336,4.6299,4.6301,4.6301,4.6301,4.6301,4.6301,4.6301,4.5927,4.5122,4.5888,4.5518,4.3914,4.4713,4.4571,4.3608,4.3583,4.3091,4.2206,4.2196,4.1671,4.0794,4.0794,4.0682,4.0496,4.0496,4.0496,4.0516,4.0593,4.1104,4.1812,4.1889,4.2427,4.3104,4.3104,4.3104,4.3104,4.3104,4.3104,4.3104,4.3181,4.372,4.4162,4.3508,4.3855,4.4417,4.4417,4.3874,4.3528,4.4244,4.4417,4.4648,4.5436,4.5594,4.5594,4.5594,4.5594,4.5594,4.5594,4.5594,4.5594,4.5594,4.5667,4.5686,4.5614,4.5667,4.5725,4.5725,4.5782,4.6124,4.6846,4.7713,4.8534,4.9268,4.9379,4.9787,5.0589,4.9825,4.9761,5.0486,4.9726,4.9288,4.9219,4.9219,4.8302,4.6648,4.7584,4.7908,4.7736,4.876,4.9582,5.0206,5.0359,5.0378,5.0302,5.0397,5.0417,5.0417,5.0417,5.1003,5.1824,5.1404,5.1404,5.0563,4.7875,4.6799,4.6308,4.6299,4.6299,4.6301,4.6301,4.6298,4.7607,5.1029,5.0734,4.9229,4.6534,4.63,4.6301,4.6301,4.6301,4.6301,4.6301,4.6301,4.6168,4.587,4.6146,4.6069,4.5576,4.5771,4.5342,4.4368,4.4306,4.3817,4.296,4.2913,4.2379,4.1559,4.1559,4.1158,4.0496,4.0496,4.0496,4.0573,4.1258,4.1639,4.1889,4.2562,4.2931,4.3104,4.3104,4.3104,4.3104,4.3104,4.3104,4.322,4.3855,4.4162,4.4417,4.4917,4.5186,4.5321,4.5321,4.5186,4.509,4.5282,4.5321,4.5359,4.5556,4.5594,4.5594,4.5594,4.5594,4.5594,4.5594,4.5594,4.5594,4.5594,4.6182,4.6355,4.5686,4.6201,4.662,4.662,4.7182,4.7356,4.6853,4.8246,4.9168,4.9283,4.9995,5.0481,5.0668,5.039,5.0319,5.0505,5.0874,5.0715,5.0034,5.0034,4.9156,4.7564,4.9074,4.8672,4.6896,4.9098,4.9786,4.9467,5.0774,5.0926,5.0378,5.1041,5.1328,5.1328,5.1328,5.2264,5.3664,5.1403,5.1402,5.0833,4.9041,4.8726,4.8178,4.6552,4.6298,4.6299,4.6301,4.6298,4.6981,4.8761,4.8975,4.8252,4.6457,4.6301,4.6301,4.6301,4.6301,4.6301,4.6301,4.6242,4.6176,4.61,4.6103,4.6066,4.6,4.6,4.5716,4.5165,4.5141,4.462,4.3725,4.368,4.3201,4.2427,4.2427,4.2162,4.1743,4.1743,4.1743,4.1781,4.2258,4.2658,4.3047,4.3508,4.3932,4.4282,4.4282,4.4282,4.4282,4.4282,4.4282,4.4378,4.4801,4.4917,4.5013,4.5475,4.5594,4.5594,4.5594,4.5594,4.5594,4.5594,4.5594,4.5594,4.5594,4.5594,4.5594,4.5594,4.5594,4.5594,4.5594,4.5956,4.622,4.622,4.6951,4.7293,4.6855,4.7182,4.7466,4.7466,4.824,4.8538,4.8068,4.9264,5.0173,5.0528,5.1014,5.1457,5.1835,5.138,5.1283,5.1644,5.1653,5.1606,5.1486,5.1104,5.0239,4.9016,4.95,4.9442,4.8978,4.9901,5.0512,5.0938,5.1811,5.1907,5.1544,5.1983,5.2174,5.2174,5.2174,5.2996,5.4218,5.1399,5.1397,5.1393,5.1397,5.1395,5.044,4.7606,4.6687,4.6298,4.63,4.6298,4.6297,4.6297,4.6297,4.6295,4.631,4.6296,4.6294,4.624,4.6267,4.6268,4.6239,4.6133,4.6055,4.6058,4.5939,4.5872,4.5872,4.5872,4.5847,4.5768,4.5768,4.533,4.4513,4.4513,4.4066,4.3316,4.3316,4.3239,4.3104,4.3104,4.3104,4.3124,4.3258,4.372,4.4316,4.4474,4.4994,4.5594,4.5594,4.5594,4.5594,4.5594,4.5594,4.5594,4.5594,4.5594,4.5594,4.5594,4.5594,4.5594,4.5594,4.5594,4.5594,4.5594,4.5594,4.5594,4.5594,4.5594,4.5648,4.5782,4.5821,4.5879,4.5994,4.6624,4.7101,4.7101,4.7812,4.8274,4.812,4.8235,4.8255,4.8101,4.9029,4.9548,4.9413,5.0322,5.1202,5.1865,5.2038,5.2417,5.307,5.2398,5.228,5.2895,5.236,5.2426,5.3021,5.2499,5.1633,5.0512,5.0136,5.055,5.1576,5.099,5.1525,5.2811,5.2964,5.2925,5.2811,5.2964,5.3021,5.3034,5.3193,5.3702,5.4428,5.1394,5.1391,5.1407,5.1396,5.1394,5.1238,5.0789,4.8191,4.6297,4.6297,4.6297,4.6297,4.6297,4.6297,4.6301,4.6291,4.6297,4.6227,4.6054,4.6098,4.6086,4.5969,4.5932,4.5897,4.5845,4.5825,4.5815,4.5815,4.5815,4.5757,4.5629,4.5629,4.5558,4.5417,4.5417,4.4955,4.4143,4.4143,4.3739,4.3104,4.3104,4.3104,4.3181,4.3874,4.4201,4.4397,4.5148,4.5494,4.5594,4.5594,4.5594,4.5594,4.5594,4.5594,4.5594,4.5594,4.5594,4.5594,4.5594,4.5594,4.5594,4.5594,4.5594,4.5594,4.5594,4.5594,4.5594,4.5594,4.5594,4.5821,4.6586,4.6716,4.6947,4.7644,4.7851,4.7947,4.7947,4.8682,4.8933,4.8197,4.8779,4.8933,4.8178,4.9572,5.0207,4.9452,5.0851,5.1793,5.1885,5.2601,5.3056,5.3089,5.293,5.2855,5.2895,5.3472,5.3823,5.3932,5.4575,5.3677,5.1461,5.2805,5.2766,5.1633,5.2212,5.2601,5.2868,5.3607,5.3473,5.2868,5.3626,5.3913,5.4027,5.4772,5.511,5.5244,5.1392,5.1409,5.1407,5.1396,5.1394,5.1394,5.1394,5.0125,4.8797,4.7821,4.8545,4.9151,4.9151,4.9149,4.8377,4.6468,4.607,4.5918,4.5949,4.5966,4.5952,4.5905,4.5858,4.5832,4.5807,4.5739,4.5692,4.5692,4.5692,4.5651,4.5594,4.5594,4.5594,4.5594,4.5594,4.5379,4.5032,4.5032,4.4821,4.4494,4.4494,4.4494,4.4532,4.4898,4.5032,4.5071,4.5455,4.5594,4.5594,4.5594,4.5594,4.5594,4.5594,4.5594,4.5594,4.5594,4.5594,4.5594,4.5594,4.5594,4.5594,4.5594,4.5594,4.5725,4.622,4.6336,4.6336,4.6336,4.6682,4.7105,4.7505,4.7562,4.7697,4.8043,4.8509,4.8836,4.8836,4.9591,4.9976,4.961,5.0298,5.0659,5.0255,5.1356,5.1933,5.1548,5.2217,5.2832,5.3332,5.3691,5.4046,5.4426,5.4388,5.4323,5.4294,5.4651,5.483,5.483,5.5224,5.4804,5.3734,5.3989,5.397,5.3715,5.3588,5.3798,5.4276,5.4677,5.46,5.4295,5.4677,5.483,5.4861,5.5263,5.5396,5.5396]}]]